Air Quality Table

TIMESTAMP NO2 SO2 O3 PM10 PM2.5 CO TEMP HUM AIRPRES WS WD NO BENZENE
2022-08-10 20:00 33.02 µg/m3 0.34 µg/m3 47.8 µg/m3 27.26 µg/m3 12.89 µg/m3 0 mg/m3 28.98 °C 58.67 % 1,013.18 mbar 1.02 m/s 270.9 Deg 5.24 µg/m3 0.79 µg/m3
2022-08-10 19:00 35.42 µg/m3 0.54 µg/m3 51.36 µg/m3 27.49 µg/m3 11.85 µg/m3 0 mg/m3 29.71 °C 55.24 % 1,013.05 mbar 1.67 m/s 274.68 Deg 7.65 µg/m3 3.25 µg/m3
2022-08-10 18:00 28.38 µg/m3 0.42 µg/m3 56.46 µg/m3 30.59 µg/m3 11.96 µg/m3 0 mg/m3 30.01 °C 61.26 % 1,012.84 mbar 1.67 m/s 322.28 Deg 11.68 µg/m3 0.47 µg/m3
2022-08-10 17:00 18.63 µg/m3 0.29 µg/m3 62.46 µg/m3 25.03 µg/m3 10.05 µg/m3 0 mg/m3 30.45 °C 56.67 % 1,012.97 mbar 1.51 m/s 213.25 Deg 6.79 µg/m3 0.47 µg/m3
2022-08-10 16:00 21.87 µg/m3 0.38 µg/m3 60.28 µg/m3 36.65 µg/m3 14.64 µg/m3 0 mg/m3 30.51 °C 55.19 % 1,013.00 mbar 1.88 m/s 185.05 Deg 13.65 µg/m3 0.58 µg/m3
2022-08-10 15:00 27.06 µg/m3 0.4 µg/m3 56.59 µg/m3 28.75 µg/m3 11.9 µg/m3 0 mg/m3 30.11 °C 60.16 % 1,013.11 mbar 1.76 m/s 196.8 Deg 18.78 µg/m3 1.26 µg/m3
2022-08-10 14:00 32.17 µg/m3 0.58 µg/m3 53.29 µg/m3 30.09 µg/m3 16.24 µg/m3 0 mg/m3 28.22 °C 72.36 % 1,013.77 mbar 1.99 m/s 39.58 Deg 31.3 µg/m3 0.84 µg/m3
2022-08-10 13:00 26.15 µg/m3 0.41 µg/m3 71.13 µg/m3 22.11 µg/m3 14.72 µg/m3 0 mg/m3 28.74 °C 71.19 % 1,013.96 mbar 4.88 m/s 53.75 Deg 23.15 µg/m3 1 µg/m3
2022-08-10 12:00 17.23 µg/m3 0.5 µg/m3 71.34 µg/m3 23.39 µg/m3 13.36 µg/m3 0 mg/m3 28.85 °C 69.75 % 1,014.12 mbar 4.46 m/s 50.12 Deg 28.19 µg/m3 1.05 µg/m3
2022-08-10 11:00 19.03 µg/m3 0.52 µg/m3 62.6 µg/m3 19.66 µg/m3 11.47 µg/m3 0 mg/m3 29.2 °C 67.27 % 1,014.19 mbar 3.59 m/s 57.83 Deg 34.67 µg/m3 0.94 µg/m3
2022-08-10 10:00 24.81 µg/m3 0.48 µg/m3 67.77 µg/m3 19.11 µg/m3 11.79 µg/m3 0 mg/m3 28.61 °C 70.03 % 1,014.11 mbar 3.96 m/s 51.85 Deg 25.79 µg/m3 1.26 µg/m3
2022-08-10 09:00 42.58 µg/m3 0.61 µg/m3 52.82 µg/m3 31.91 µg/m3 15.52 µg/m3 0.46 mg/m3 28.91 °C 67.18 % 1,014.00 mbar 2.16 m/s 119.2 Deg 37.2 µg/m3 1.05 µg/m3
2022-08-10 08:00 32.24 µg/m3 0.34 µg/m3 54.14 µg/m3 48.21 µg/m3 16.4 µg/m3 0.34 mg/m3 28.85 °C 68.5 % 1,013.86 mbar 0.92 m/s 171.92 Deg 15.27 µg/m3 0.84 µg/m3
2022-08-10 07:00 27.31 µg/m3 0.3 µg/m3 55.36 µg/m3 28.76 µg/m3 17.06 µg/m3 0.27 mg/m3 27.77 °C 75.3 % 1,013.64 mbar 1.11 m/s 207.2 Deg 5.45 µg/m3 0.79 µg/m3
2022-08-10 06:00 27.93 µg/m3 0.32 µg/m3 45.7 µg/m3 29.89 µg/m3 20.96 µg/m3 0.26 mg/m3 27.39 °C 79.37 % 1,013.38 mbar 1.09 m/s 209.62 Deg 2.8 µg/m3 0.52 µg/m3
2022-08-10 05:00 11.9 µg/m3 0.2 µg/m3 57.55 µg/m3 22.52 µg/m3 16.55 µg/m3 0.17 mg/m3 27.4 °C 80.68 % 1,013.00 mbar 0.83 m/s 195.37 Deg 0.86 µg/m3 0.47 µg/m3
2022-08-10 04:00 9.2 µg/m3 0.24 µg/m3 52.67 µg/m3 23.58 µg/m3 17.57 µg/m3 0.18 mg/m3 27.6 °C 78.68 % 1,013.04 mbar 0.88 m/s 181.22 Deg 0.74 µg/m3 0.47 µg/m3
2022-08-10 03:00 15.09 µg/m3 0.08 µg/m3 44.26 µg/m3 23.52 µg/m3 17.41 µg/m3 0.2 mg/m3 27.83 °C 76.45 % 1,013.19 mbar 0.77 m/s 183.1 Deg 0.9 µg/m3 0.52 µg/m3
2022-08-10 02:00 15.84 µg/m3 0.14 µg/m3 47.32 µg/m3 22.55 µg/m3 16.26 µg/m3 0.18 mg/m3 28.08 °C 74.33 % 1,013.35 mbar 0.87 m/s 193.28 Deg 0.12 µg/m3 0.52 µg/m3
2022-08-10 01:00 12.37 µg/m3 0.14 µg/m3 58 µg/m3 18.82 µg/m3 13.46 µg/m3 0.2 mg/m3 28.37 °C 73.27 % 1,013.60 mbar 0.66 m/s 206.22 Deg 0.18 µg/m3 0.52 µg/m3
2022-08-10 00:00 15.46 µg/m3 0.23 µg/m3 58.96 µg/m3 16.37 µg/m3 11.8 µg/m3 0.24 mg/m3 28.42 °C 75.35 % 1,014.01 mbar 0.78 m/s 148.22 Deg 6.76 µg/m3 1 µg/m3
2022-08-09 23:00 16.2 µg/m3 0.24 µg/m3 62.59 µg/m3 16.36 µg/m3 11.95 µg/m3 0.29 mg/m3 28.47 °C 75.05 % 1,014.10 mbar 1.09 m/s 43.18 Deg 10.53 µg/m3 0.84 µg/m3
2022-08-09 22:00 16.83 µg/m3 0.25 µg/m3 60.14 µg/m3 26.54 µg/m3 19.45 µg/m3 0.27 mg/m3 28.72 °C 73.6 % 1,013.95 mbar 0.86 m/s 295.28 Deg 3.69 µg/m3 0.68 µg/m3
2022-08-09 21:00 13.67 µg/m3 0.16 µg/m3 67.42 µg/m3 23.34 µg/m3 13.9 µg/m3 0.22 mg/m3 28.81 °C 72.73 % 1,013.89 mbar 1.05 m/s 268.23 Deg 1.06 µg/m3 0.63 µg/m3
2022-08-09 20:00 18.62 µg/m3 0.16 µg/m3 60.65 µg/m3 21.6 µg/m3 12.35 µg/m3 0.26 mg/m3 29.11 °C 71.28 % 1,013.54 mbar 1.5 m/s 289.68 Deg 2.89 µg/m3 0.63 µg/m3
2022-08-09 19:00 22.5 µg/m3 0.23 µg/m3 56.71 µg/m3 23.77 µg/m3 12.14 µg/m3 0.26 mg/m3 29.79 °C 66.64 % 1,013.27 mbar 1.94 m/s 293.73 Deg 4.17 µg/m3 0.73 µg/m3
2022-08-09 18:00 26.09 µg/m3 0.28 µg/m3 60.71 µg/m3 20.8 µg/m3 9.56 µg/m3 0.33 mg/m3 30.5 °C 63.83 % 1,013.24 mbar 2.5 m/s 233.82 Deg 9.15 µg/m3 1.57 µg/m3
2022-08-09 17:00 23.99 µg/m3 0.38 µg/m3 60.25 µg/m3 18.37 µg/m3 9.65 µg/m3 0.44 mg/m3 30.19 °C 68.04 % 1,012.98 mbar 3.56 m/s 48.55 Deg 22.36 µg/m3 1.21 µg/m3
2022-08-09 16:00 25.6 µg/m3 0.39 µg/m3 76.17 µg/m3 24.35 µg/m3 13.17 µg/m3 0.45 mg/m3 30.77 °C 62.47 % 1,012.97 mbar 2.67 m/s 100.77 Deg 18.73 µg/m3 1.26 µg/m3
2022-08-09 15:00 37.82 µg/m3 0.37 µg/m3 92.6 µg/m3 39.89 µg/m3 20.22 µg/m3 0.47 mg/m3 31.61 °C 57.39 % 1,013.18 mbar 1.61 m/s 249.78 Deg 11.97 µg/m3 0.84 µg/m3
2022-08-09 14:00 28.6 µg/m3 0.33 µg/m3 87.39 µg/m3 28.46 µg/m3 14.77 µg/m3 0.38 mg/m3 30.41 °C 62.15 % 1,013.48 mbar 3.22 m/s 41.65 Deg 23.13 µg/m3 1.1 µg/m3
2022-08-09 13:00 27.47 µg/m3 0.25 µg/m3 100.26 µg/m3 21.66 µg/m3 14.75 µg/m3 0.4 mg/m3 29.25 °C 67.97 % 1,014.11 mbar 4.19 m/s 58.02 Deg 19.37 µg/m3 1 µg/m3
2022-08-09 12:00 27.87 µg/m3 0.36 µg/m3 88.33 µg/m3 23.56 µg/m3 15.25 µg/m3 0.43 mg/m3 29.19 °C 68.53 % 1,014.40 mbar 3.58 m/s 56.83 Deg 26.3 µg/m3 1.05 µg/m3
2022-08-09 11:00 22.14 µg/m3 0.4 µg/m3 81.53 µg/m3 23.76 µg/m3 15.13 µg/m3 0.38 mg/m3 29.14 °C 68.26 % 1,014.43 mbar 3.53 m/s 52.12 Deg 31.9 µg/m3 1.21 µg/m3
2022-08-09 10:00 25.31 µg/m3 0.39 µg/m3 78.87 µg/m3 27.9 µg/m3 15.92 µg/m3 0.38 mg/m3 28.98 °C 69 % 1,014.21 mbar 3.42 m/s 57.2 Deg 33.51 µg/m3 1.26 µg/m3
2022-08-09 09:00 44.23 µg/m3 0.47 µg/m3 63.56 µg/m3 32.79 µg/m3 17.21 µg/m3 0.45 mg/m3 29.04 °C 68.37 % 1,013.98 mbar 2.51 m/s 54.53 Deg 37.05 µg/m3 1.78 µg/m3
2022-08-09 08:00 51.38 µg/m3 0.5 µg/m3 54.1 µg/m3 35.86 µg/m3 17.79 µg/m3 0.49 mg/m3 28.86 °C 68.93 % 1,013.80 mbar 1.17 m/s 44.52 Deg 34.35 µg/m3 3.41 µg/m3
2022-08-09 07:00 40.77 µg/m3 0.34 µg/m3 60.46 µg/m3 30.87 µg/m3 18.05 µg/m3 0.53 mg/m3 28.44 °C 72.2 % 1,013.49 mbar 0.73 m/s 87.08 Deg 28.06 µg/m3 1.21 µg/m3
2022-08-09 06:00 33.74 µg/m3 0.15 µg/m3 61.2 µg/m3 26.31 µg/m3 18.21 µg/m3 0.4 mg/m3 27.77 °C 77.03 % 1,012.99 mbar 0.59 m/s 224.8 Deg 5.97 µg/m3 0.89 µg/m3
2022-08-09 05:00 30.05 µg/m3 0.03 µg/m3 60.12 µg/m3 25.6 µg/m3 17.84 µg/m3 0.25 mg/m3 27.73 °C 74.27 % 1,012.75 mbar 0.61 m/s 252.19 Deg 1.3 µg/m3 0.68 µg/m3
2022-08-09 04:00 22.46 µg/m3 0.1 µg/m3 68.9 µg/m3 23.83 µg/m3 16.92 µg/m3 0.22 mg/m3 28 °C 72.38 % 1,012.69 mbar 0.48 m/s 259.06 Deg 1.5 µg/m3 0.52 µg/m3
2022-08-09 03:00 14.02 µg/m3 0.14 µg/m3 71.98 µg/m3 23.37 µg/m3 16.55 µg/m3 0.2 mg/m3 27.96 °C 73.82 % 1,012.66 mbar 0.75 m/s 245.6 Deg 0.26 µg/m3 0.31 µg/m3
2022-08-09 02:00 19.19 µg/m3 0.17 µg/m3 77.04 µg/m3 23.3 µg/m3 16.43 µg/m3 0.2 mg/m3 28.24 °C 73.93 % 1,012.72 mbar 0.6 m/s 183.48 Deg 5.02 µg/m3 0.52 µg/m3
2022-08-09 01:00 17.85 µg/m3 0.17 µg/m3 88.12 µg/m3 21.51 µg/m3 15.39 µg/m3 0.2 mg/m3 28.39 °C 73.87 % 1,013.00 mbar 0.59 m/s 103.81 Deg 1.31 µg/m3 0.79 µg/m3
2022-08-09 00:00 27.15 µg/m3 0.3 µg/m3 77.44 µg/m3 22.83 µg/m3 15.32 µg/m3 0.3 mg/m3 28.4 °C 72.96 % 1,013.53 mbar 1.38 m/s 61.73 Deg 7.91 µg/m3 1 µg/m3
2022-08-08 23:00 20.53 µg/m3 0.32 µg/m3 82.14 µg/m3 21.1 µg/m3 15.32 µg/m3 0.33 mg/m3 28.4 °C 75.43 % 1,013.66 mbar 1.87 m/s 61.92 Deg 12.74 µg/m3 1.31 µg/m3
2022-08-08 22:00 23.02 µg/m3 0.32 µg/m3 78.23 µg/m3 24.62 µg/m3 16.17 µg/m3 0.39 mg/m3 28.85 °C 72.11 % 1,013.50 mbar 1.41 m/s 125.5 Deg 11.2 µg/m3 1.1 µg/m3
2022-08-08 21:00 28.49 µg/m3 0.4 µg/m3 76.66 µg/m3 24.26 µg/m3 15.99 µg/m3 0.38 mg/m3 28.81 °C 73.48 % 1,013.50 mbar 1.68 m/s 52.9 Deg 16.37 µg/m3 1.52 µg/m3
2022-08-08 20:00 33.16 µg/m3 0.48 µg/m3 71.07 µg/m3 25.81 µg/m3 16.49 µg/m3 0.44 mg/m3 28.92 °C 72.59 % 1,012.76 mbar 1.63 m/s 48.33 Deg 22.58 µg/m3 2.15 µg/m3
2022-08-08 19:00 37.9 µg/m3 0.59 µg/m3 73.3 µg/m3 25.1 µg/m3 16.23 µg/m3 0.54 mg/m3 29.04 °C 72.33 % 1,012.23 mbar 2.28 m/s 61.87 Deg 30.24 µg/m3 1.73 µg/m3
2022-08-08 18:00 32.07 µg/m3 0.44 µg/m3 84.41 µg/m3 22.89 µg/m3 15.46 µg/m3 0.5 mg/m3 29.3 °C 70.73 % 1,011.85 mbar 2.89 m/s 57.4 Deg 24.59 µg/m3 1.94 µg/m3
2022-08-08 17:00 22.24 µg/m3 0.42 µg/m3 80.81 µg/m3 20.73 µg/m3 14.65 µg/m3 0.48 mg/m3 29.31 °C 71.98 % 1,011.90 mbar 3.82 m/s 60.38 Deg 21.66 µg/m3 1.36 µg/m3
2022-08-08 16:00 24.9 µg/m3 0.44 µg/m3 81.46 µg/m3 20.92 µg/m3 14.69 µg/m3 0.4 mg/m3 29.41 °C 72.3 % 1,011.68 mbar 3.81 m/s 55.43 Deg 18.68 µg/m3 1.42 µg/m3
2022-08-08 15:00 20.78 µg/m3 0.4 µg/m3 80.69 µg/m3 21.11 µg/m3 14.67 µg/m3 0.46 mg/m3 29.53 °C 71.4 % 1,011.80 mbar 3.46 m/s 57.58 Deg 19.97 µg/m3 1.1 µg/m3
2022-08-08 14:00 21.03 µg/m3 0.36 µg/m3 78.54 µg/m3 23.29 µg/m3 15.47 µg/m3 0.43 mg/m3 29.27 °C 74.23 % 1,012.34 mbar 3.91 m/s 62.37 Deg 21.15 µg/m3 1.05 µg/m3
2022-08-08 13:00 25.83 µg/m3 0.37 µg/m3 89.04 µg/m3 28.74 µg/m3 16.45 µg/m3 0.36 mg/m3 29.57 °C 73.93 % 1,012.22 mbar 3.49 m/s 46.22 Deg 18.91 µg/m3 1.1 µg/m3
2022-08-08 12:00 26.44 µg/m3 0.4 µg/m3 74.1 µg/m3 23.76 µg/m3 14.82 µg/m3 0.36 mg/m3 29.47 °C 73.15 % 1,012.40 mbar 3.11 m/s 39.38 Deg 19.65 µg/m3 1 µg/m3
2022-08-08 11:00 32.2 µg/m3 0.45 µg/m3 64.63 µg/m3 24.03 µg/m3 14.11 µg/m3 0.35 mg/m3 29.7 °C 69.33 % 1,012.43 mbar 2.6 m/s 44.22 Deg 25.36 µg/m3 1.15 µg/m3
2022-08-08 10:00 29 µg/m3 0.51 µg/m3 53.26 µg/m3 28.29 µg/m3 14.75 µg/m3 0.36 mg/m3 29.48 °C 68.48 % 1,012.36 mbar 2.65 m/s 54.95 Deg 30.74 µg/m3 1.31 µg/m3
2022-08-08 09:00 32.82 µg/m3 0.56 µg/m3 44.84 µg/m3 26.8 µg/m3 13.75 µg/m3 0.45 mg/m3 29.58 °C 62.48 % 1,012.04 mbar 2.35 m/s 59.68 Deg 37.93 µg/m3 1.47 µg/m3
2022-08-08 08:00 54.81 µg/m3 0.88 µg/m3 18.62 µg/m3 61.99 µg/m3 20.49 µg/m3 0.47 mg/m3 28.95 °C 69.12 % 1,011.66 mbar 1.07 m/s 46.48 Deg 53.43 µg/m3 2.78 µg/m3
2022-08-08 07:00 52.27 µg/m3 1.02 µg/m3 6.9 µg/m3 32.22 µg/m3 21.16 µg/m3 0.68 mg/m3 27.92 °C 78.17 % 1,011.17 mbar 0.94 m/s 55.87 Deg 62.38 µg/m3 2.47 µg/m3
2022-08-08 06:00 45.14 µg/m3 0.62 µg/m3 2.83 µg/m3 29.91 µg/m3 20.55 µg/m3 0.4 mg/m3 27.3 °C 79.73 % 1,010.77 mbar 0.47 m/s 142.14 Deg 31.96 µg/m3 1.99 µg/m3
2022-08-08 05:00 39.62 µg/m3 0.45 µg/m3 5.16 µg/m3 23.53 µg/m3 16.5 µg/m3 0.31 mg/m3 27.16 °C 78.12 % 1,010.36 mbar 0.73 m/s 112.88 Deg 15.5 µg/m3 0.73 µg/m3
2022-08-08 04:00 16.53 µg/m3 0.23 µg/m3 32.24 µg/m3 20.67 µg/m3 14.67 µg/m3 0.18 mg/m3 27.41 °C 76.64 % 1,010.09 mbar 0.73 m/s 226.68 Deg 1.25 µg/m3 0.68 µg/m3
2022-08-08 03:00 10.22 µg/m3 0.16 µg/m3 42.32 µg/m3 20.62 µg/m3 14.85 µg/m3 0.16 mg/m3 27.39 °C 79.21 % 1,010.17 mbar 0.44 m/s 180.39 Deg 1.62 µg/m3 0.26 µg/m3
2022-08-08 02:00 6.26 µg/m3 0.17 µg/m3 50.94 µg/m3 20.81 µg/m3 14.63 µg/m3 0.13 mg/m3 27.43 °C 82.62 % 1,010.28 mbar 0.94 m/s 222.83 Deg 0.13 µg/m3 0.31 µg/m3
2022-08-08 01:00 11.21 µg/m3 0.17 µg/m3 50.28 µg/m3 20.07 µg/m3 14.12 µg/m3 0.16 mg/m3 27.61 °C 82.02 % 1,010.51 mbar 1.04 m/s 249.77 Deg 1.58 µg/m3 0.37 µg/m3
2022-08-08 00:00 10.93 µg/m3 0.16 µg/m3 49.99 µg/m3 20.21 µg/m3 14.39 µg/m3 0.17 mg/m3 27.64 °C 82.17 % 1,010.86 mbar 1.29 m/s 238.18 Deg 0.84 µg/m3 0.42 µg/m3
2022-08-07 23:00 16.3 µg/m3 0.2 µg/m3 46.82 µg/m3 22.43 µg/m3 15.66 µg/m3 0.2 mg/m3 27.93 °C 80.32 % 1,010.94 mbar 1.16 m/s 231.75 Deg 1.08 µg/m3 0.58 µg/m3
2022-08-07 22:00 19.47 µg/m3 0.2 µg/m3 49.76 µg/m3 25.06 µg/m3 15.73 µg/m3 0.24 mg/m3 28.44 °C 74.23 % 1,010.91 mbar 1.34 m/s 254.03 Deg 1.33 µg/m3 0.84 µg/m3
2022-08-07 21:00 20.02 µg/m3 0.19 µg/m3 52.33 µg/m3 24.36 µg/m3 16.88 µg/m3 0.27 mg/m3 28.48 °C 73.99 % 1,010.81 mbar 1.09 m/s 270.05 Deg 3.19 µg/m3 0.68 µg/m3
2022-08-07 20:00 17.39 µg/m3 0.19 µg/m3 67.53 µg/m3 25.33 µg/m3 15.57 µg/m3 0.23 mg/m3 28.48 °C 75.29 % 1,010.38 mbar 1.61 m/s 297.6 Deg 2.1 µg/m3 0.47 µg/m3
2022-08-07 19:00 23.41 µg/m3 0.22 µg/m3 72.46 µg/m3 24.74 µg/m3 14.25 µg/m3 0.25 mg/m3 29.16 °C 70.08 % 1,009.93 mbar 2.19 m/s 311.9 Deg 3.21 µg/m3 0.84 µg/m3
2022-08-07 18:00 26.61 µg/m3 0.3 µg/m3 83.78 µg/m3 22.43 µg/m3 10.1 µg/m3 0.34 mg/m3 30.52 °C 59.4 % 1,009.60 mbar 1.66 m/s 253.73 Deg 9.56 µg/m3 0.68 µg/m3
2022-08-07 17:00 19.03 µg/m3 0.24 µg/m3 95.91 µg/m3 17.14 µg/m3 8.3 µg/m3 0.32 mg/m3 31.04 °C 57.76 % 1,009.73 mbar 1.8 m/s 267.4 Deg 8.62 µg/m3 0.68 µg/m3
2022-08-07 16:00 16.61 µg/m3 0.31 µg/m3 96.63 µg/m3 15.09 µg/m3 8.7 µg/m3 0.34 mg/m3 30.6 °C 59.65 % 1,009.84 mbar 2.86 m/s 42.4 Deg 10.66 µg/m3 0.73 µg/m3
2022-08-07 15:00 15.76 µg/m3 0.35 µg/m3 92.81 µg/m3 12.78 µg/m3 8.23 µg/m3 0.3 mg/m3 29.73 °C 62.41 % 1,010.09 mbar 3.58 m/s 57.15 Deg 14.26 µg/m3 0.94 µg/m3
2022-08-07 14:00 17.2 µg/m3 0.25 µg/m3 86.77 µg/m3 13.11 µg/m3 8.18 µg/m3 0.29 mg/m3 29.45 °C 65.96 % 1,010.46 mbar 3.63 m/s 62.18 Deg 11.73 µg/m3 0.63 µg/m3
2022-08-07 13:00 14.93 µg/m3 0.29 µg/m3 84.88 µg/m3 13.81 µg/m3 8.58 µg/m3 0.34 mg/m3 29.44 °C 66.8 % 1,010.89 mbar 3.4 m/s 61.17 Deg 12.98 µg/m3 1.15 µg/m3
2022-08-07 12:00 16.9 µg/m3 0.32 µg/m3 82.54 µg/m3 14.89 µg/m3 9.19 µg/m3 0.34 mg/m3 29.34 °C 68.84 % 1,011.23 mbar 3.07 m/s 58.33 Deg 15.86 µg/m3 0.89 µg/m3
2022-08-07 11:00 18.5 µg/m3 0.33 µg/m3 78.34 µg/m3 15.03 µg/m3 9.31 µg/m3 0.33 mg/m3 29.19 °C 67.99 % 1,011.54 mbar 3.12 m/s 56.38 Deg 15.85 µg/m3 0.89 µg/m3
2022-08-07 10:00 18.47 µg/m3 0.28 µg/m3 74.28 µg/m3 16.65 µg/m3 9.83 µg/m3 0.32 mg/m3 29.24 °C 68.03 % 1,011.58 mbar 2.87 m/s 45.68 Deg 14.85 µg/m3 0.68 µg/m3
2022-08-07 09:00 18.48 µg/m3 0.31 µg/m3 68.33 µg/m3 20.98 µg/m3 11.17 µg/m3 0.3 mg/m3 29.24 °C 70.06 % 1,011.23 mbar 1.58 m/s 24.63 Deg 10.61 µg/m3 0.52 µg/m3
2022-08-07 08:00 16.57 µg/m3 0.24 µg/m3 65.21 µg/m3 22.22 µg/m3 11.7 µg/m3 0.29 mg/m3 28.8 °C 75.77 % 1,010.89 mbar 1.27 m/s 184 Deg 7.4 µg/m3 1.05 µg/m3
2022-08-07 07:00 17.4 µg/m3 0.22 µg/m3 56.28 µg/m3 22.67 µg/m3 14.06 µg/m3 0.3 mg/m3 28.28 °C 78.57 % 1,010.50 mbar 0.9 m/s 97.53 Deg 6.94 µg/m3 0.73 µg/m3
2022-08-07 06:00 21.71 µg/m3 0.13 µg/m3 44.42 µg/m3 21.11 µg/m3 14.1 µg/m3 0.25 mg/m3 27.25 °C 75.57 % 1,010.13 mbar 0.79 m/s 260.48 Deg 3.64 µg/m3 0.52 µg/m3
2022-08-07 05:00 15.9 µg/m3 0.15 µg/m3 50.64 µg/m3 19.98 µg/m3 13.44 µg/m3 0.17 mg/m3 27.15 °C 78.49 % 1,009.91 mbar 0.91 m/s 228.28 Deg 0.82 µg/m3 0.31 µg/m3
2022-08-07 04:00 13.08 µg/m3 0.2 µg/m3 62.73 µg/m3 20.95 µg/m3 11.91 µg/m3 0.16 mg/m3 27.67 °C 72.52 % 1,009.92 mbar 0.99 m/s 266.5 Deg 0.49 µg/m3 0.31 µg/m3
2022-08-07 03:00 11.68 µg/m3 0.17 µg/m3 64.08 µg/m3 19.24 µg/m3 10.74 µg/m3 0.16 mg/m3 27.86 °C 70.23 % 1,010.09 mbar 1.3 m/s 271.6 Deg 0.57 µg/m3 0.31 µg/m3
2022-08-07 02:00 8.58 µg/m3 0.22 µg/m3 59.08 µg/m3 17.22 µg/m3 11.79 µg/m3 0.16 mg/m3 27.79 °C 74.87 % 1,010.44 mbar 1.68 m/s 241.1 Deg 0.54 µg/m3 0.42 µg/m3
2022-08-07 01:00 11.82 µg/m3 0.23 µg/m3 54.63 µg/m3 17.05 µg/m3 11.93 µg/m3 0.19 mg/m3 27.8 °C 75.37 % 1,011.05 mbar 1.76 m/s 230.7 Deg 1.42 µg/m3 0.47 µg/m3
2022-08-07 00:00 11.27 µg/m3 0.21 µg/m3 55.53 µg/m3 17.99 µg/m3 12.49 µg/m3 0.19 mg/m3 27.9 °C 76.21 % 1,011.69 mbar 1.68 m/s 223.85 Deg 1.33 µg/m3 0.37 µg/m3
2022-08-06 23:00 9.55 µg/m3 0.2 µg/m3 53.44 µg/m3 16.36 µg/m3 11.14 µg/m3 0.18 mg/m3 28.21 °C 73.97 % 1,011.97 mbar 2.02 m/s 225.42 Deg 0.78 µg/m3 0.47 µg/m3
2022-08-06 22:00 16.28 µg/m3 0.28 µg/m3 47.54 µg/m3 38.36 µg/m3 28.59 µg/m3 0.23 mg/m3 28.48 °C 72.78 % 1,012.06 mbar 1.98 m/s 246.48 Deg 2.26 µg/m3 0.58 µg/m3
2022-08-06 21:00 15.9 µg/m3 0.23 µg/m3 50.16 µg/m3 31.44 µg/m3 22.61 µg/m3 0.25 mg/m3 28.72 °C 72.2 % 1,012.04 mbar 1.98 m/s 258.78 Deg 1.95 µg/m3 0.68 µg/m3
2022-08-06 20:00 18.77 µg/m3 0.27 µg/m3 48.96 µg/m3 19.51 µg/m3 12.15 µg/m3 0.26 mg/m3 29.14 °C 69.58 % 1,011.80 mbar 2.41 m/s 258.75 Deg 3.59 µg/m3 0.68 µg/m3
2022-08-06 19:00 17.84 µg/m3 0.28 µg/m3 53.72 µg/m3 24.76 µg/m3 15.77 µg/m3 0.22 mg/m3 29.97 °C 63.24 % 1,011.50 mbar 2.87 m/s 255.93 Deg 3.95 µg/m3 0.47 µg/m3
2022-08-06 18:00 16.16 µg/m3 0.25 µg/m3 64.65 µg/m3 20.41 µg/m3 11.32 µg/m3 0.21 mg/m3 31.07 °C 54.85 % 1,011.25 mbar 3.17 m/s 254.78 Deg 3.57 µg/m3 0.31 µg/m3
2022-08-06 17:00 13.9 µg/m3 0.19 µg/m3 75.89 µg/m3 19.09 µg/m3 9.29 µg/m3 0.18 mg/m3 31.99 °C 43.94 % 1,011.41 mbar 3.37 m/s 254.43 Deg 3.04 µg/m3 0.37 µg/m3
2022-08-06 16:00 20.29 µg/m3 0.22 µg/m3 77.76 µg/m3 23.08 µg/m3 8.49 µg/m3 0.18 mg/m3 32.89 °C 38.31 % 1,011.61 mbar 3.08 m/s 255.73 Deg 3.07 µg/m3 0.37 µg/m3
2022-08-06 15:00 19.62 µg/m3 0.24 µg/m3 85.86 µg/m3 21.26 µg/m3 8.39 µg/m3 0.18 mg/m3 33.34 °C 35.06 % 1,012.01 mbar 3.24 m/s 260.23 Deg 2.53 µg/m3 0.31 µg/m3
2022-08-06 14:00 22.81 µg/m3 0.31 µg/m3 90.82 µg/m3 23 µg/m3 8.29 µg/m3 0.19 mg/m3 33.45 °C 32.97 % 1,012.35 mbar 3.29 m/s 262 Deg 2.88 µg/m3 0.42 µg/m3
2022-08-06 13:00 17.21 µg/m3 0.25 µg/m3 89.65 µg/m3 28.87 µg/m3 10.11 µg/m3 0.19 mg/m3 33.11 °C 40.2 % 1,012.54 mbar 3.14 m/s 259.17 Deg 3.06 µg/m3 0.52 µg/m3
2022-08-06 12:00 21.92 µg/m3 0.25 µg/m3 83.71 µg/m3 35.57 µg/m3 15.7 µg/m3 0.25 mg/m3 32.47 °C 51.84 % 1,012.72 mbar 2.27 m/s 289.98 Deg 5.56 µg/m3 0.52 µg/m3
2022-08-06 11:00 20.21 µg/m3 0.17 µg/m3 81.73 µg/m3 33.8 µg/m3 14.9 µg/m3 0.24 mg/m3 31.86 °C 53.13 % 1,012.93 mbar 2.64 m/s 273.52 Deg 4.29 µg/m3 0.58 µg/m3
2022-08-06 10:00 21.31 µg/m3 0.22 µg/m3 76.58 µg/m3 32.21 µg/m3 13.62 µg/m3 0.23 mg/m3 31.25 °C 51.76 % 1,012.85 mbar 2.86 m/s 266.47 Deg 4.48 µg/m3 0.47 µg/m3
2022-08-06 09:00 22.94 µg/m3 0.28 µg/m3 68.94 µg/m3 31.8 µg/m3 11.64 µg/m3 0.24 mg/m3 30.19 °C 54.97 % 1,012.71 mbar 2.97 m/s 269.2 Deg 4.98 µg/m3 0.52 µg/m3
2022-08-06 08:00 26.35 µg/m3 0.24 µg/m3 58.31 µg/m3 27.39 µg/m3 10.59 µg/m3 0.22 mg/m3 29.2 °C 60.37 % 1,012.70 mbar 2.49 m/s 264.7 Deg 5.95 µg/m3 0.52 µg/m3
2022-08-06 07:00 25.44 µg/m3 0.25 µg/m3 54.11 µg/m3 22.63 µg/m3 10.95 µg/m3 0.24 mg/m3 28.17 °C 72.05 % 1,012.73 mbar 2.12 m/s 267.23 Deg 4.26 µg/m3 6.3 µg/m3
2022-08-06 06:00 20.56 µg/m3 0.33 µg/m3 55.7 µg/m3 16.71 µg/m3 11.6 µg/m3 0.23 mg/m3 27.38 °C 78.34 % 1,012.67 mbar 1.39 m/s 246.27 Deg 2.12 µg/m3 0.37 µg/m3
2022-08-06 05:00 14.23 µg/m3 0.24 µg/m3 60.35 µg/m3 15.61 µg/m3 11.3 µg/m3 0.18 mg/m3 27.36 °C 77.57 % 1,012.42 mbar 1.06 m/s 239.93 Deg 0.91 µg/m3 0.42 µg/m3
2022-08-06 04:00 11.33 µg/m3 0.23 µg/m3 62.94 µg/m3 14.73 µg/m3 10.83 µg/m3 0.16 mg/m3 27.51 °C 77.01 % 1,012.48 mbar 1.68 m/s 249.08 Deg 1.01 µg/m3 0.21 µg/m3
2022-08-06 03:00 16.15 µg/m3 0.24 µg/m3 56.37 µg/m3 15.04 µg/m3 10.98 µg/m3 0.16 mg/m3 27.56 °C 77.63 % 1,012.63 mbar 1.52 m/s 256.05 Deg 1.99 µg/m3 0.31 µg/m3
2022-08-06 02:00 25.33 µg/m3 0.23 µg/m3 48.61 µg/m3 16.17 µg/m3 12.14 µg/m3 0.16 mg/m3 27.61 °C 78.49 % 1,012.73 mbar 1.85 m/s 251.92 Deg 6.75 µg/m3 0.47 µg/m3
2022-08-06 01:00 23.03 µg/m3 0.31 µg/m3 48.09 µg/m3 26.55 µg/m3 19.52 µg/m3 0.22 mg/m3 27.77 °C 76.54 % 1,013.01 mbar 1.57 m/s 245.57 Deg 3.44 µg/m3 0.63 µg/m3
2022-08-06 00:00 21.63 µg/m3 0.2 µg/m3 55.27 µg/m3 27.33 µg/m3 17.76 µg/m3 0.21 mg/m3 28.05 °C 73.4 % 1,013.44 mbar 1.48 m/s 244.03 Deg 2.73 µg/m3 0.47 µg/m3
2022-08-05 23:00 21.02 µg/m3 0.24 µg/m3 63.12 µg/m3 51.16 µg/m3 31.73 µg/m3 0.2 mg/m3 28.42 °C 68.28 % 1,013.44 mbar 2 m/s 249.73 Deg 1.95 µg/m3 0.63 µg/m3
2022-08-05 22:00 30.17 µg/m3 0.31 µg/m3 67.32 µg/m3 29.32 µg/m3 17.21 µg/m3 0.26 mg/m3 29.17 °C 55.45 % 1,013.52 mbar 1.61 m/s 260.83 Deg 1.32 µg/m3 0.89 µg/m3
2022-08-05 21:00 29.1 µg/m3 0.25 µg/m3 63.52 µg/m3 31.54 µg/m3 13.31 µg/m3 0.29 mg/m3 29.28 °C 58.73 % 1,013.60 mbar 1.36 m/s 261.93 Deg 2.41 µg/m3 1.05 µg/m3
2022-08-05 20:00 37.05 µg/m3 0.24 µg/m3 60.28 µg/m3 29.18 µg/m3 13.7 µg/m3 0.31 mg/m3 29.79 °C 55.42 % 1,013.17 mbar 1.58 m/s 256.62 Deg 3.77 µg/m3 0.84 µg/m3
2022-08-05 19:00 44.73 µg/m3 0.31 µg/m3 74.72 µg/m3 26.6 µg/m3 14.16 µg/m3 0.27 mg/m3 30.94 °C 45.08 % 1,012.88 mbar 2 m/s 262.43 Deg 4.23 µg/m3 0.58 µg/m3
2022-08-05 18:00 46.8 µg/m3 0.26 µg/m3 81.99 µg/m3 23.02 µg/m3 10.86 µg/m3 0.25 mg/m3 31.95 °C 39.13 % 1,012.85 mbar 2.57 m/s 252.07 Deg 5.07 µg/m3 0.63 µg/m3
2022-08-05 17:00 42.25 µg/m3 0.28 µg/m3 88.53 µg/m3 26.29 µg/m3 10.98 µg/m3 0.25 mg/m3 32.44 °C 38.71 % 1,013.14 mbar 2.55 m/s 252.98 Deg 4.11 µg/m3 0.63 µg/m3
2022-08-05 16:00 37.64 µg/m3 0.34 µg/m3 87.71 µg/m3 34.18 µg/m3 13.09 µg/m3 0.25 mg/m3 32.56 °C 42.48 % 1,013.39 mbar 2.39 m/s 287.3 Deg 6.85 µg/m3 0.58 µg/m3
2022-08-05 15:00 35.38 µg/m3 0.41 µg/m3 84.34 µg/m3 50.47 µg/m3 14.23 µg/m3 0.25 mg/m3 32.44 °C 39.41 % 1,013.71 mbar 2.29 m/s 322.82 Deg 16.13 µg/m3 0.47 µg/m3
2022-08-05 14:00 35.68 µg/m3 0.43 µg/m3 77.51 µg/m3 33.57 µg/m3 10.79 µg/m3 0.26 mg/m3 32.09 °C 37.75 % 1,014.13 mbar 2.34 m/s 329.95 Deg 15.44 µg/m3 0.94 µg/m3
2022-08-05 13:00 26.89 µg/m3 0.45 µg/m3 76.23 µg/m3 33.53 µg/m3 12.19 µg/m3 0.33 mg/m3 31.65 °C 44.84 % 1,014.43 mbar 2.15 m/s 340.08 Deg 18.35 µg/m3 1.15 µg/m3
2022-08-05 12:00 35.31 µg/m3 0.49 µg/m3 70.55 µg/m3 31.35 µg/m3 13.39 µg/m3 0.37 mg/m3 30.98 °C 54.57 % 1,014.64 mbar 1.92 m/s 255.08 Deg 21.88 µg/m3 0.73 µg/m3
2022-08-05 11:00 21.57 µg/m3 0.33 µg/m3 75.36 µg/m3 21.74 µg/m3 8.68 µg/m3 0.26 mg/m3 30.17 °C 57.19 % 1,014.81 mbar 2.14 m/s 315.27 Deg 8.88 µg/m3 0.58 µg/m3
2022-08-05 10:00 23.52 µg/m3 0.39 µg/m3 64.74 µg/m3 24.45 µg/m3 9.67 µg/m3 0.29 mg/m3 30.17 °C 57.86 % 1,014.76 mbar 1.93 m/s 325.6 Deg 10.92 µg/m3 0.89 µg/m3
2022-08-05 09:00 35.75 µg/m3 0.52 µg/m3 52.85 µg/m3 37 µg/m3 12.78 µg/m3 0.38 mg/m3 30.78 °C 49.5 % 1,014.62 mbar 1.52 m/s 312.13 Deg 19.06 µg/m3 1.26 µg/m3
2022-08-05 08:00 41.79 µg/m3 0.36 µg/m3 42.63 µg/m3 32.96 µg/m3 12.12 µg/m3 0.3 mg/m3 29.56 °C 57.64 % 1,014.29 mbar 1.52 m/s 262.9 Deg 13.34 µg/m3 1.05 µg/m3
2022-08-05 07:00 51.25 µg/m3 0.45 µg/m3 32.12 µg/m3 38.19 µg/m3 18.19 µg/m3 0.41 mg/m3 28.2 °C 70.89 % 1,014.07 mbar 1.41 m/s 281.85 Deg 17.21 µg/m3 1.47 µg/m3
2022-08-05 06:00 50.79 µg/m3 0.39 µg/m3 25.44 µg/m3 26.02 µg/m3 17.55 µg/m3 0.38 mg/m3 27.32 °C 76.07 % 1,013.92 mbar 0.8 m/s 242.83 Deg 8.32 µg/m3 1.15 µg/m3
2022-08-05 05:00 22.63 µg/m3 0.24 µg/m3 54.07 µg/m3 22.12 µg/m3 16.62 µg/m3 0.22 mg/m3 27.21 °C 78.27 % 1,013.79 mbar 0.82 m/s 239.57 Deg 0.67 µg/m3 0.42 µg/m3
2022-08-05 04:00 10.39 µg/m3 0.26 µg/m3 82.84 µg/m3 20.61 µg/m3 15.82 µg/m3 0.17 mg/m3 27.42 °C 78.15 % 1,013.82 mbar 0.79 m/s 264.63 Deg 0.09 µg/m3 0.47 µg/m3
2022-08-05 03:00 8.12 µg/m3 0.19 µg/m3 96.46 µg/m3 19.26 µg/m3 14.5 µg/m3 0.16 mg/m3 27.69 °C 77.45 % 1,014.04 mbar 0.81 m/s 278.33 Deg 0.16 µg/m3 0.58 µg/m3
2022-08-05 02:00 9.27 µg/m3 0.23 µg/m3 89.59 µg/m3 19.87 µg/m3 14.74 µg/m3 0.17 mg/m3 27.78 °C 74.1 % 1,014.36 mbar 0.91 m/s 244.63 Deg 0.08 µg/m3 0.42 µg/m3
2022-08-05 01:00 12.81 µg/m3 0.22 µg/m3 72.78 µg/m3 19.37 µg/m3 13.55 µg/m3 0.18 mg/m3 28.14 °C 74.63 % 1,014.62 mbar 0.94 m/s 282.57 Deg 0.29 µg/m3 0.47 µg/m3
2022-08-05 00:00 21.55 µg/m3 0.34 µg/m3 71.59 µg/m3 19.31 µg/m3 11.6 µg/m3 0.27 mg/m3 28.51 °C 69.65 % 1,014.73 mbar 1.13 m/s 181.62 Deg 4.28 µg/m3 1.52 µg/m3
2022-08-04 23:00 27.57 µg/m3 0.44 µg/m3 69.41 µg/m3 21.75 µg/m3 12.24 µg/m3 0.33 mg/m3 28.47 °C 69.28 % 1,014.77 mbar 0.95 m/s 57.5 Deg 16.4 µg/m3 1.26 µg/m3
2022-08-04 22:00 33.19 µg/m3 0.49 µg/m3 68.36 µg/m3 22.45 µg/m3 12.41 µg/m3 0.35 mg/m3 28.64 °C 68.98 % 1,014.84 mbar 1.12 m/s 49.8 Deg 20.1 µg/m3 1.26 µg/m3
2022-08-04 21:00 30.69 µg/m3 0.42 µg/m3 74.99 µg/m3 24.08 µg/m3 12.09 µg/m3 0.4 mg/m3 28.98 °C 67.19 % 1,014.74 mbar 1.36 m/s 32.33 Deg 15.54 µg/m3 1.68 µg/m3
2022-08-04 20:00 34.95 µg/m3 0.54 µg/m3 80.9 µg/m3 24.83 µg/m3 13.49 µg/m3 0.5 mg/m3 29.07 °C 65.63 % 1,014.22 mbar 1.66 m/s 45 Deg 21.75 µg/m3 1.78 µg/m3
2022-08-04 19:00 34.21 µg/m3 0.47 µg/m3 94.99 µg/m3 28.34 µg/m3 13.73 µg/m3 0.45 mg/m3 29.47 °C 63.71 % 1,014.09 mbar 1.94 m/s 41.92 Deg 17.34 µg/m3 1.42 µg/m3
2022-08-04 18:00 34.87 µg/m3 0.48 µg/m3 96.84 µg/m3 26.82 µg/m3 13.09 µg/m3 0.44 mg/m3 29.83 °C 60.83 % 1,014.05 mbar 2.98 m/s 39.5 Deg 19.08 µg/m3 1.57 µg/m3
2022-08-04 17:00 40.41 µg/m3 0.59 µg/m3 93.11 µg/m3 42.09 µg/m3 17.44 µg/m3 0.41 mg/m3 30.59 °C 52.28 % 1,013.89 mbar 3.3 m/s 46.28 Deg 29.1 µg/m3 0.94 µg/m3
2022-08-04 16:00 24.92 µg/m3 0.43 µg/m3 96.35 µg/m3 32.59 µg/m3 14.7 µg/m3 0.34 mg/m3 30.78 °C 46.5 % 1,013.81 mbar 3.34 m/s 53.9 Deg 19.86 µg/m3 1.05 µg/m3
2022-08-04 15:00 35.78 µg/m3 0.55 µg/m3 100.49 µg/m3 118.02 µg/m3 29.19 µg/m3 0.42 mg/m3 29.9 °C 58.46 % 1,014.14 mbar 3.24 m/s 55.03 Deg 24.18 µg/m3 1.47 µg/m3
2022-08-04 14:00 25.82 µg/m3 0.51 µg/m3 106.1 µg/m3 32.92 µg/m3 13.99 µg/m3 0.4 mg/m3 29.4 °C 65.74 % 1,014.47 mbar 3.28 m/s 53.25 Deg 26.18 µg/m3 1.36 µg/m3
2022-08-04 13:00 33.14 µg/m3 0.48 µg/m3 103.36 µg/m3 17.63 µg/m3 11.04 µg/m3 0.34 mg/m3 29.25 °C 66.1 % 1,014.85 mbar 3.6 m/s 51.42 Deg 22.65 µg/m3 1.1 µg/m3
2022-08-04 12:00 25.95 µg/m3 0.51 µg/m3 95.94 µg/m3 20.03 µg/m3 11.26 µg/m3 0.34 mg/m3 29.13 °C 64.87 % 1,015.10 mbar 3.32 m/s 52.42 Deg 26.51 µg/m3 1 µg/m3
2022-08-04 11:00 27.46 µg/m3 0.45 µg/m3 94.85 µg/m3 18.33 µg/m3 10.97 µg/m3 0.36 mg/m3 29.17 °C 65.59 % 1,015.12 mbar 2.64 m/s 49.8 Deg 22.61 µg/m3 1.26 µg/m3
2022-08-04 10:00 35.99 µg/m3 0.52 µg/m3 81.76 µg/m3 19.62 µg/m3 11.8 µg/m3 0.4 mg/m3 29.1 °C 67.15 % 1,014.90 mbar 2.24 m/s 45.32 Deg 27.91 µg/m3 1.15 µg/m3
2022-08-04 09:00 38.21 µg/m3 0.5 µg/m3 67.17 µg/m3 23.05 µg/m3 11.63 µg/m3 0.42 mg/m3 29.02 °C 67.87 % 1,014.58 mbar 1.87 m/s 29.73 Deg 25.91 µg/m3 0.94 µg/m3
2022-08-04 08:00 30.59 µg/m3 0.38 µg/m3 61.05 µg/m3 32.87 µg/m3 12.38 µg/m3 0.44 mg/m3 28.8 °C 66.36 % 1,014.20 mbar 1.22 m/s 104.63 Deg 16.7 µg/m3 1.52 µg/m3
2022-08-04 07:00 39.52 µg/m3 0.47 µg/m3 46.71 µg/m3 28.71 µg/m3 12.2 µg/m3 0.47 mg/m3 28.3 °C 64.74 % 1,013.80 mbar 0.94 m/s 22.37 Deg 23.01 µg/m3 1.26 µg/m3
2022-08-04 06:00 36.54 µg/m3 0.33 µg/m3 42.82 µg/m3 25.07 µg/m3 12.64 µg/m3 0.3 mg/m3 27.41 °C 69.06 % 1,013.49 mbar 0.86 m/s 311.18 Deg 6.28 µg/m3 1.94 µg/m3
2022-08-04 05:00 47.72 µg/m3 0.62 µg/m3 20.56 µg/m3 23.84 µg/m3 16.01 µg/m3 0.47 mg/m3 27.07 °C 70.93 % 1,013.27 mbar 0.25 m/s 238.14 Deg 19.23 µg/m3 2.31 µg/m3
2022-08-04 04:00 23.31 µg/m3 0.27 µg/m3 47.39 µg/m3 22.81 µg/m3 13.12 µg/m3 0.25 mg/m3 27.2 °C 67.57 % 1,013.33 mbar 0.26 m/s 215.57 Deg 0.65 µg/m3 0.63 µg/m3
2022-08-04 03:00 18.29 µg/m3 0.2 µg/m3 59.89 µg/m3 21.03 µg/m3 10.83 µg/m3 0.2 mg/m3 27.27 °C 67.64 % 1,013.44 mbar 0.56 m/s 216.86 Deg 0.37 µg/m3 0.68 µg/m3
2022-08-04 02:00 9.89 µg/m3 0.29 µg/m3 76.99 µg/m3 12 µg/m3 8.04 µg/m3 0.22 mg/m3 27.51 °C 68.11 % 1,013.74 mbar 0.95 m/s 69.5 Deg 7.93 µg/m3 0.94 µg/m3
2022-08-04 01:00 19.22 µg/m3 0.3 µg/m3 74.92 µg/m3 12.51 µg/m3 8.36 µg/m3 0.24 mg/m3 27.66 °C 68.11 % 1,013.87 mbar 0.84 m/s 66.6 Deg 8.32 µg/m3 0.89 µg/m3
2022-08-04 00:00 17.32 µg/m3 0.32 µg/m3 81.98 µg/m3 13.26 µg/m3 8.43 µg/m3 0.26 mg/m3 27.79 °C 67.3 % 1,013.99 mbar 1.37 m/s 52.07 Deg 7.45 µg/m3 0.79 µg/m3
2022-08-03 23:00 23.22 µg/m3 0.36 µg/m3 75.51 µg/m3 14.26 µg/m3 8.75 µg/m3 0.3 mg/m3 27.81 °C 68.42 % 1,013.81 mbar 1.91 m/s 55.85 Deg 16.57 µg/m3 0.89 µg/m3
2022-08-03 22:00 24.92 µg/m3 0.36 µg/m3 76.16 µg/m3 14.85 µg/m3 9.35 µg/m3 0.33 mg/m3 28.01 °C 67.26 % 1,013.76 mbar 2.16 m/s 58.25 Deg 15.67 µg/m3 0.94 µg/m3
2022-08-03 21:00 23.9 µg/m3 0.38 µg/m3 76.8 µg/m3 16.05 µg/m3 9.59 µg/m3 0.34 mg/m3 28.1 °C 65.85 % 1,013.65 mbar 2.31 m/s 59.27 Deg 17.07 µg/m3 1.42 µg/m3
2022-08-03 20:00 28.4 µg/m3 0.49 µg/m3 82.35 µg/m3 18.62 µg/m3 10.68 µg/m3 0.48 mg/m3 28.27 °C 65.97 % 1,013.23 mbar 2.54 m/s 55.07 Deg 25.3 µg/m3 1.21 µg/m3
2022-08-03 19:00 27.94 µg/m3 0.48 µg/m3 77.9 µg/m3 16.67 µg/m3 10.42 µg/m3 0.41 mg/m3 28.57 °C 65.67 % 1,013.03 mbar 2.85 m/s 59.93 Deg 24.93 µg/m3 1.36 µg/m3
2022-08-03 18:00 34.29 µg/m3 0.52 µg/m3 77.17 µg/m3 21.74 µg/m3 10.92 µg/m3 0.43 mg/m3 28.91 °C 62.34 % 1,012.81 mbar 3.09 m/s 61.3 Deg 27.82 µg/m3 1.1 µg/m3
2022-08-03 17:00 27.6 µg/m3 0.47 µg/m3 85.93 µg/m3 16.6 µg/m3 9.66 µg/m3 0.4 mg/m3 29.2 °C 58.91 % 1,012.79 mbar 3.64 m/s 61.53 Deg 25.37 µg/m3 1.05 µg/m3
2022-08-03 16:00 30.83 µg/m3 0.5 µg/m3 87.55 µg/m3 14.38 µg/m3 9.04 µg/m3 0.43 mg/m3 29.25 °C 60.18 % 1,012.83 mbar 3.81 m/s 60.17 Deg 24.06 µg/m3 1.31 µg/m3
2022-08-03 15:00 27.41 µg/m3 0.52 µg/m3 84.96 µg/m3 16.56 µg/m3 10.46 µg/m3 0.35 mg/m3 29.4 °C 59.09 % 1,013.00 mbar 3.71 m/s 60.45 Deg 26.72 µg/m3 1.05 µg/m3
2022-08-03 14:00 29.14 µg/m3 0.44 µg/m3 91.68 µg/m3 15.51 µg/m3 9.48 µg/m3 0.36 mg/m3 29.05 °C 62.4 % 1,013.45 mbar 3.6 m/s 57.05 Deg 24.61 µg/m3 1 µg/m3
2022-08-03 13:00 26.53 µg/m3 0.51 µg/m3 97.09 µg/m3 17.49 µg/m3 10.84 µg/m3 0.37 mg/m3 28.88 °C 64.28 % 1,013.74 mbar 4.03 m/s 57.97 Deg 26.29 µg/m3 1.26 µg/m3
2022-08-03 12:00 25.22 µg/m3 0.5 µg/m3 94.3 µg/m3 17.74 µg/m3 10.13 µg/m3 0.38 mg/m3 29.3 °C 59.74 % 1,014.04 mbar 4 m/s 57.02 Deg 27.63 µg/m3 1.63 µg/m3
2022-08-03 11:00 27.94 µg/m3 0.53 µg/m3 83.39 µg/m3 15.87 µg/m3 9.08 µg/m3 0.32 mg/m3 29.19 °C 61.94 % 1,014.19 mbar 4.35 m/s 58.28 Deg 26.68 µg/m3 1.15 µg/m3
2022-08-03 10:00 33.9 µg/m3 0.53 µg/m3 79.87 µg/m3 19.46 µg/m3 11.16 µg/m3 0.35 mg/m3 29.51 °C 58.92 % 1,014.03 mbar 3.56 m/s 42.13 Deg 27.41 µg/m3 1.05 µg/m3
2022-08-03 09:00 31.66 µg/m3 0.62 µg/m3 71.6 µg/m3 22.55 µg/m3 11.41 µg/m3 0.34 mg/m3 29.26 °C 57.83 % 1,013.75 mbar 2.88 m/s 44.65 Deg 34.8 µg/m3 1.31 µg/m3
2022-08-03 08:00 43.69 µg/m3 0.59 µg/m3 44.33 µg/m3 27.13 µg/m3 10.77 µg/m3 0.51 mg/m3 28.99 °C 68.57 % 1,013.48 mbar 1.67 m/s 28.52 Deg 35.18 µg/m3 2.2 µg/m3
2022-08-03 07:00 47.8 µg/m3 0.55 µg/m3 35.68 µg/m3 29.54 µg/m3 11.26 µg/m3 0.51 mg/m3 28.43 °C 70.81 % 1,013.00 mbar 1.08 m/s 249.2 Deg 24.59 µg/m3 1.36 µg/m3
2022-08-03 06:00 36.39 µg/m3 0.27 µg/m3 35.97 µg/m3 14.28 µg/m3 9.63 µg/m3 0.68 mg/m3 27.33 °C 75.1 % 1,012.51 mbar 0.81 m/s 301.8 Deg 5.29 µg/m3 0.73 µg/m3
2022-08-03 05:00 19.5 µg/m3 0.21 µg/m3 49.11 µg/m3 11.02 µg/m3 7.35 µg/m3 0.21 mg/m3 27.23 °C 73.74 % 1,012.16 mbar 0.77 m/s 313 Deg 2.35 µg/m3 0.42 µg/m3
2022-08-03 04:00 16.31 µg/m3 0.27 µg/m3 44.03 µg/m3 12.19 µg/m3 7.28 µg/m3 0.18 mg/m3 27.23 °C 69.98 % 1,012.08 mbar 0.67 m/s 213.18 Deg 1.07 µg/m3 0.42 µg/m3
2022-08-03 03:00 12.27 µg/m3 0.19 µg/m3 41.64 µg/m3 10.4 µg/m3 7.1 µg/m3 0.16 mg/m3 27.23 °C 73.3 % 1,011.95 mbar 0.53 m/s 250.57 Deg 0.39 µg/m3 0.26 µg/m3
2022-08-03 02:00 7.11 µg/m3 0.16 µg/m3 52.32 µg/m3 9.08 µg/m3 6.32 µg/m3 0.14 mg/m3 27.43 °C 74.37 % 1,012.34 mbar 0.81 m/s 283.17 Deg 0.18 µg/m3 0.31 µg/m3
2022-08-03 01:00 8.69 µg/m3 0.26 µg/m3 57.09 µg/m3 8.88 µg/m3 6.23 µg/m3 0.15 mg/m3 27.67 °C 74.67 % 1,012.44 mbar 1.06 m/s 245.23 Deg 3.94 µg/m3 0.52 µg/m3
2022-08-03 00:00 11.57 µg/m3 0.27 µg/m3 55.15 µg/m3 10.63 µg/m3 6.75 µg/m3 0.24 mg/m3 27.84 °C 73.03 % 1,012.62 mbar 0.92 m/s 97.48 Deg 7.83 µg/m3 0.68 µg/m3
2022-08-02 23:00 15.98 µg/m3 0.23 µg/m3 51.48 µg/m3 11.52 µg/m3 7.41 µg/m3 0.31 mg/m3 27.92 °C 73.62 % 1,012.79 mbar 1.08 m/s 13.42 Deg 8.84 µg/m3 0.68 µg/m3
2022-08-02 22:00 18.73 µg/m3 0.35 µg/m3 52.65 µg/m3 12.04 µg/m3 8.44 µg/m3 0.29 mg/m3 28.03 °C 75.29 % 1,012.83 mbar 1.21 m/s 106.88 Deg 11.84 µg/m3 1 µg/m3
2022-08-02 21:00 16.21 µg/m3 0.23 µg/m3 51.71 µg/m3 14.41 µg/m3 8.32 µg/m3 0.27 mg/m3 28.46 °C 71.9 % 1,012.66 mbar 1.3 m/s 161.37 Deg 8.47 µg/m3 0.42 µg/m3
2022-08-02 20:00 17.18 µg/m3 0.24 µg/m3 50.66 µg/m3 18.42 µg/m3 8.61 µg/m3 0.23 mg/m3 28.74 °C 68.1 % 1,012.17 mbar 1.38 m/s 312.65 Deg 5.16 µg/m3 0.63 µg/m3
2022-08-02 19:00 17.57 µg/m3 0.28 µg/m3 53.26 µg/m3 16.86 µg/m3 8.63 µg/m3 0.25 mg/m3 29.26 °C 67.63 % 1,011.94 mbar 1.58 m/s 320.75 Deg 7.61 µg/m3 0.58 µg/m3
2022-08-02 18:00 17.93 µg/m3 0.36 µg/m3 53.12 µg/m3 20.89 µg/m3 9.31 µg/m3 0.28 mg/m3 29.79 °C 65.98 % 1,011.75 mbar 2.17 m/s 258.5 Deg 13.35 µg/m3 1.1 µg/m3
2022-08-02 17:00 25.39 µg/m3 0.43 µg/m3 58.62 µg/m3 20.49 µg/m3 9.83 µg/m3 0.39 mg/m3 29.83 °C 65.96 % 1,011.78 mbar 2.12 m/s 29.17 Deg 19.73 µg/m3 1.05 µg/m3
2022-08-02 16:00 24.75 µg/m3 0.44 µg/m3 65.28 µg/m3 22.08 µg/m3 10.4 µg/m3 0.38 mg/m3 30.6 °C 60.16 % 1,011.73 mbar 1.86 m/s 113.2 Deg 20.63 µg/m3 1.31 µg/m3
2022-08-02 15:00 28.79 µg/m3 0.51 µg/m3 63.48 µg/m3 19.36 µg/m3 9.74 µg/m3 0.39 mg/m3 30.56 °C 59.54 % 1,011.91 mbar 2.65 m/s 38.82 Deg 26.29 µg/m3 1.21 µg/m3
2022-08-02 14:00 30.46 µg/m3 0.6 µg/m3 61.7 µg/m3 18.1 µg/m3 9.42 µg/m3 0.37 mg/m3 30.03 °C 60.55 % 1,012.14 mbar 3.45 m/s 35.92 Deg 32.4 µg/m3 1.05 µg/m3
2022-08-02 13:00 32.13 µg/m3 0.6 µg/m3 66.46 µg/m3 20.81 µg/m3 10.98 µg/m3 0.41 mg/m3 29.5 °C 65.07 % 1,012.27 mbar 3.85 m/s 53.9 Deg 36.47 µg/m3 0.89 µg/m3
2022-08-02 12:00 24.79 µg/m3 0.42 µg/m3 79.72 µg/m3 18.81 µg/m3 11.6 µg/m3 0.34 mg/m3 28.89 °C 67.67 % 1,012.53 mbar 4.38 m/s 52.98 Deg 23.86 µg/m3 0.94 µg/m3
2022-08-02 11:00 21.56 µg/m3 0.45 µg/m3 70.46 µg/m3 17.92 µg/m3 10.41 µg/m3 0.38 mg/m3 28.77 °C 67.03 % 1,012.85 mbar 3.41 m/s 52.4 Deg 24.83 µg/m3 0.89 µg/m3
2022-08-02 10:00 25.39 µg/m3 0.51 µg/m3 63.83 µg/m3 16.76 µg/m3 10.07 µg/m3 0.33 mg/m3 28.58 °C 67.55 % 1,012.72 mbar 3 m/s 58.77 Deg 29.24 µg/m3 1 µg/m3
2022-08-02 09:00 25.43 µg/m3 0.41 µg/m3 59.94 µg/m3 26.07 µg/m3 11.64 µg/m3 0.39 mg/m3 28.85 °C 67.66 % 1,012.66 mbar 1.97 m/s 110.52 Deg 20.81 µg/m3 0.89 µg/m3
2022-08-02 08:00 26.63 µg/m3 0.24 µg/m3 53.15 µg/m3 30.54 µg/m3 12.05 µg/m3 0.35 mg/m3 28.75 °C 67.83 % 1,012.65 mbar 1.2 m/s 270.58 Deg 8.57 µg/m3 1.21 µg/m3
2022-08-02 07:00 41.33 µg/m3 0.41 µg/m3 29.58 µg/m3 35.6 µg/m3 14.41 µg/m3 0.43 mg/m3 28.27 °C 68.97 % 1,012.39 mbar 0.9 m/s 259.57 Deg 18.59 µg/m3 1.94 µg/m3
2022-08-02 06:00 41.09 µg/m3 0.36 µg/m3 26.35 µg/m3 22.79 µg/m3 14.34 µg/m3 0.37 mg/m3 27.47 °C 74.13 % 1,012.13 mbar 0.74 m/s 227.53 Deg 11.97 µg/m3 0.94 µg/m3
2022-08-02 05:00 22.93 µg/m3 0.29 µg/m3 43.81 µg/m3 18.66 µg/m3 12.79 µg/m3 0.27 mg/m3 27.43 °C 73.57 % 1,011.83 mbar 0.69 m/s 151.28 Deg 9.37 µg/m3 1.1 µg/m3
2022-08-02 04:00 10.05 µg/m3 0.17 µg/m3 54.35 µg/m3 22.04 µg/m3 15.59 µg/m3 0.19 mg/m3 27.4 °C 73.95 % 1,011.78 mbar 0.5 m/s 213.26 Deg 1.15 µg/m3 0.31 µg/m3
2022-08-02 03:00 6.66 µg/m3 0.09 µg/m3 60.89 µg/m3 17.21 µg/m3 11.76 µg/m3 0.15 mg/m3 27.5 °C 75.53 % 1,011.94 mbar 0.9 m/s 237.15 Deg 0.27 µg/m3 0.26 µg/m3
2022-08-02 02:00 4 µg/m3 0.13 µg/m3 67.39 µg/m3 15.39 µg/m3 10.61 µg/m3 0.14 mg/m3 27.67 °C 74.6 % 1,012.09 mbar 0.67 m/s 240.05 Deg 0.03 µg/m3 0.26 µg/m3
2022-08-02 01:00 7.3 µg/m3 0.13 µg/m3 67.69 µg/m3 16.59 µg/m3 11.36 µg/m3 0.19 mg/m3 27.6 °C 77.18 % 1,012.42 mbar 1.02 m/s 231.6 Deg 0.2 µg/m3 0.63 µg/m3
2022-08-02 00:00 9.55 µg/m3 0.18 µg/m3 68.7 µg/m3 17.26 µg/m3 11.79 µg/m3 0.17 mg/m3 27.96 °C 75.96 % 1,012.67 mbar 1.19 m/s 282.27 Deg 0.51 µg/m3 0.37 µg/m3
2022-08-01 23:00 14.65 µg/m3 0.16 µg/m3 66.69 µg/m3 19.07 µg/m3 11.52 µg/m3 0.2 mg/m3 28.17 °C 73.01 % 1,012.86 mbar 1.23 m/s 273.15 Deg 0.89 µg/m3 0.42 µg/m3
2022-08-01 22:00 16.42 µg/m3 0.17 µg/m3 64.66 µg/m3 21.15 µg/m3 11.74 µg/m3 0.21 mg/m3 28.44 °C 71.3 % 1,012.91 mbar 1.39 m/s 261 Deg 1.41 µg/m3 0.42 µg/m3
2022-08-01 21:00 14.84 µg/m3 0.19 µg/m3 68.37 µg/m3 22.23 µg/m3 12.04 µg/m3 0.21 mg/m3 28.6 °C 70.23 % 1,012.37 mbar 1.66 m/s 252.97 Deg 1.03 µg/m3 0.47 µg/m3
2022-08-01 20:00 26.66 µg/m3 0.2 µg/m3 64.74 µg/m3 23.05 µg/m3 12.06 µg/m3 0.24 mg/m3 29.03 °C 66.05 % 1,011.94 mbar 1.84 m/s 257.78 Deg 2.43 µg/m3 0.68 µg/m3
2022-08-01 19:00 19.09 µg/m3 0.19 µg/m3 60.83 µg/m3 21.42 µg/m3 9.91 µg/m3 0.23 mg/m3 29.65 °C 63.19 % 1,011.60 mbar 1.93 m/s 232.65 Deg 2.95 µg/m3 0.58 µg/m3
2022-08-01 18:00 15.43 µg/m3 0.18 µg/m3 63.88 µg/m3 20.35 µg/m3 8.8 µg/m3 0.21 mg/m3 30.25 °C 59.82 % 1,011.35 mbar 2.01 m/s 223.87 Deg 3.53 µg/m3 0.47 µg/m3
2022-08-01 17:00 17.24 µg/m3 0.19 µg/m3 63.68 µg/m3 19.56 µg/m3 8.22 µg/m3 0.21 mg/m3 30.49 °C 56.99 % 1,011.49 mbar 1.93 m/s 214.33 Deg 2.81 µg/m3 0.52 µg/m3
2022-08-01 16:00 16.23 µg/m3 0.16 µg/m3 71.47 µg/m3 23.11 µg/m3 9.17 µg/m3 0.23 mg/m3 30.63 °C 59.07 % 1,011.59 mbar 2.07 m/s 213.92 Deg 3.61 µg/m3 0.73 µg/m3
2022-08-01 15:00 22.31 µg/m3 0.38 µg/m3 81.81 µg/m3 18.22 µg/m3 9.85 µg/m3 0.34 mg/m3 29.46 °C 66.07 % 1,011.67 mbar 4.29 m/s 119.72 Deg 18.47 µg/m3 1 µg/m3
2022-08-01 14:00 23.37 µg/m3 0.43 µg/m3 81.09 µg/m3 16.18 µg/m3 9.51 µg/m3 0.37 mg/m3 29.11 °C 66.88 % 1,012.04 mbar 3.98 m/s 55.92 Deg 26.05 µg/m3 1.1 µg/m3
2022-08-01 13:00 20.63 µg/m3 0.42 µg/m3 74.63 µg/m3 17.39 µg/m3 9.36 µg/m3 0.36 mg/m3 28.94 °C 68.44 % 1,012.49 mbar 3.69 m/s 54.43 Deg 23.41 µg/m3 0.94 µg/m3
2022-08-01 12:00 21.58 µg/m3 0.46 µg/m3 74.47 µg/m3 21.8 µg/m3 10.64 µg/m3 0.37 mg/m3 28.66 °C 70.7 % 1,012.86 mbar 3.62 m/s 57.52 Deg 27.26 µg/m3 1.26 µg/m3
2022-08-01 11:00 28.27 µg/m3 0.42 µg/m3 73.9 µg/m3 18.46 µg/m3 10.23 µg/m3 0.33 mg/m3 28.7 °C 70.89 % 1,012.78 mbar 3.78 m/s 58.8 Deg 23.79 µg/m3 0.89 µg/m3
2022-08-01 10:00 22.59 µg/m3 0.42 µg/m3 72.59 µg/m3 16.95 µg/m3 10.17 µg/m3 0.32 mg/m3 28.54 °C 73.06 % 1,012.71 mbar 2.9 m/s 54.85 Deg 25.55 µg/m3 0.94 µg/m3
2022-08-01 09:00 30.66 µg/m3 0.49 µg/m3 65.41 µg/m3 19.24 µg/m3 11.28 µg/m3 0.36 mg/m3 28.18 °C 75.89 % 1,012.49 mbar 3 m/s 55.9 Deg 29.25 µg/m3 1.1 µg/m3
2022-08-01 08:00 28.56 µg/m3 0.48 µg/m3 55.4 µg/m3 21.08 µg/m3 11.9 µg/m3 0.37 mg/m3 28.02 °C 75.02 % 1,012.26 mbar 2.6 m/s 57.13 Deg 32.91 µg/m3 1.15 µg/m3
2022-08-01 07:00 21.17 µg/m3 0.45 µg/m3 55.53 µg/m3 18.3 µg/m3 11.89 µg/m3 0.44 mg/m3 27.73 °C 78.02 % 1,012.07 mbar 1.8 m/s 54.13 Deg 25.93 µg/m3 1.42 µg/m3
2022-08-01 06:00 23.78 µg/m3 0.4 µg/m3 57.8 µg/m3 17.55 µg/m3 12.16 µg/m3 0.41 mg/m3 27.33 °C 81.04 % 1,011.71 mbar 2.09 m/s 60.98 Deg 20.31 µg/m3 0.79 µg/m3
2022-08-01 05:00 16.65 µg/m3 0.27 µg/m3 62.1 µg/m3 17.33 µg/m3 12.11 µg/m3 0.2 mg/m3 27.27 °C 81.21 % 1,011.60 mbar 1.83 m/s 64.1 Deg 9.02 µg/m3 0.42 µg/m3
2022-08-01 04:00 6.37 µg/m3 0.28 µg/m3 71.72 µg/m3 15.48 µg/m3 10.92 µg/m3 0.16 mg/m3 27.42 °C 81.26 % 1,011.49 mbar 2.26 m/s 62.98 Deg 4.02 µg/m3 0.37 µg/m3
2022-08-01 03:00 10.11 µg/m3 0.22 µg/m3 72.81 µg/m3 15.16 µg/m3 10.85 µg/m3 0.14 mg/m3 27.62 °C 80.34 % 1,011.50 mbar 2.96 m/s 55.3 Deg 2.38 µg/m3 0.47 µg/m3
2022-08-01 02:00 6.27 µg/m3 0.2 µg/m3 85.83 µg/m3 14.86 µg/m3 10.43 µg/m3 0.14 mg/m3 27.94 °C 75.87 % 1,011.57 mbar 2.77 m/s 51.07 Deg 1.23 µg/m3 0.63 µg/m3
2022-08-01 01:00 21.25 µg/m3 0.29 µg/m3 68.6 µg/m3 17.11 µg/m3 11.89 µg/m3 0.21 mg/m3 27.93 °C 77.04 % 1,011.79 mbar 1.39 m/s 55.43 Deg 5.7 µg/m3 1.1 µg/m3
2022-08-01 00:00 23.66 µg/m3 0.3 µg/m3 65.55 µg/m3 20.34 µg/m3 11.96 µg/m3 0.28 mg/m3 28.27 °C 71.54 % 1,012.09 mbar 1.07 m/s 60.52 Deg 8 µg/m3 0.73 µg/m3
2022-07-31 23:00 19.66 µg/m3 0.23 µg/m3 70.24 µg/m3 18.31 µg/m3 12.2 µg/m3 0.23 mg/m3 28.18 °C 75.33 % 1,012.16 mbar 0.65 m/s 172.52 Deg 6.99 µg/m3 1 µg/m3
2022-07-31 22:00 24.33 µg/m3 0.36 µg/m3 67.91 µg/m3 16.85 µg/m3 11.6 µg/m3 0.37 mg/m3 28.13 °C 77.84 % 1,012.26 mbar 1.37 m/s 50.35 Deg 16.63 µg/m3 1.15 µg/m3
2022-07-31 21:00 20.78 µg/m3 0.32 µg/m3 67.52 µg/m3 16.98 µg/m3 11.55 µg/m3 0.37 mg/m3 28.5 °C 75.42 % 1,012.05 mbar 1.11 m/s 19.92 Deg 13.15 µg/m3 1.05 µg/m3
2022-07-31 20:00 25.54 µg/m3 0.33 µg/m3 67.26 µg/m3 21.03 µg/m3 11.66 µg/m3 0.32 mg/m3 28.8 °C 72.95 % 1,011.65 mbar 1.77 m/s 267.82 Deg 12.79 µg/m3 1.1 µg/m3
2022-07-31 19:00 28.13 µg/m3 0.32 µg/m3 69.16 µg/m3 22.48 µg/m3 12.06 µg/m3 0.39 mg/m3 29.54 °C 70.07 % 1,011.49 mbar 1.89 m/s 21.17 Deg 15.09 µg/m3 1 µg/m3
2022-07-31 18:00 22.89 µg/m3 0.23 µg/m3 91.12 µg/m3 25.27 µg/m3 12.48 µg/m3 0.28 mg/m3 30.51 °C 65.85 % 1,011.26 mbar 2.32 m/s 296.85 Deg 4.66 µg/m3 0.73 µg/m3
2022-07-31 17:00 13.95 µg/m3 0.23 µg/m3 81.67 µg/m3 23.88 µg/m3 10.88 µg/m3 0.27 mg/m3 31.45 °C 58.74 % 1,011.54 mbar 2.36 m/s 155.32 Deg 6.93 µg/m3 1 µg/m3
2022-07-31 16:00 15.23 µg/m3 0.29 µg/m3 79.57 µg/m3 20.27 µg/m3 11.12 µg/m3 0.33 mg/m3 30.05 °C 65.82 % 1,011.84 mbar 3.81 m/s 127.78 Deg 13.33 µg/m3 1.05 µg/m3
2022-07-31 15:00 18.87 µg/m3 0.26 µg/m3 86.46 µg/m3 16.86 µg/m3 10.87 µg/m3 0.31 mg/m3 29.4 °C 69.33 % 1,012.26 mbar 3.66 m/s 57.68 Deg 9.89 µg/m3 1.05 µg/m3
2022-07-31 14:00 15.97 µg/m3 0.32 µg/m3 86.25 µg/m3 17.77 µg/m3 11.42 µg/m3 0.25 mg/m3 29.78 °C 67.55 % 1,012.75 mbar 3.55 m/s 54.83 Deg 10.99 µg/m3 0.79 µg/m3
2022-07-31 13:00 18.82 µg/m3 0.3 µg/m3 87.49 µg/m3 22.44 µg/m3 13.47 µg/m3 0.31 mg/m3 30.7 °C 58.36 % 1,013.08 mbar 2.78 m/s 42.77 Deg 8.82 µg/m3 1.21 µg/m3
2022-07-31 12:00 17.05 µg/m3 0.4 µg/m3 85.59 µg/m3 18.49 µg/m3 10.96 µg/m3 0.37 mg/m3 29.6 °C 63.56 % 1,013.29 mbar 3.29 m/s 58.57 Deg 13.35 µg/m3 1.15 µg/m3
2022-07-31 11:00 16.25 µg/m3 0.34 µg/m3 77.19 µg/m3 20.13 µg/m3 12.38 µg/m3 0.33 mg/m3 28.8 °C 72.88 % 1,013.41 mbar 3.12 m/s 58 Deg 14.88 µg/m3 0.94 µg/m3
2022-07-31 10:00 14.71 µg/m3 0.28 µg/m3 66.17 µg/m3 22.63 µg/m3 12.65 µg/m3 0.3 mg/m3 29.78 °C 65.37 % 1,013.33 mbar 2.61 m/s 119.47 Deg 12.65 µg/m3 0.63 µg/m3
2022-07-31 09:00 14.24 µg/m3 0.2 µg/m3 62.23 µg/m3 26.91 µg/m3 12.79 µg/m3 0.23 mg/m3 30.55 °C 54.47 % 1,013.06 mbar 1.55 m/s 314.4 Deg 5.03 µg/m3 0.73 µg/m3
2022-07-31 08:00 14.9 µg/m3 0.18 µg/m3 53.33 µg/m3 23.97 µg/m3 11.69 µg/m3 0.21 mg/m3 29.63 °C 66.53 % 1,012.68 mbar 1.36 m/s 324.1 Deg 5.41 µg/m3 0.47 µg/m3
2022-07-31 07:00 15.73 µg/m3 0.13 µg/m3 43.7 µg/m3 22.5 µg/m3 13.51 µg/m3 0.19 mg/m3 28.61 °C 74.35 % 1,012.34 mbar 1.53 m/s 310.33 Deg 4.08 µg/m3 0.63 µg/m3
2022-07-31 06:00 18.75 µg/m3 0.16 µg/m3 36.74 µg/m3 21.3 µg/m3 14.35 µg/m3 0.18 mg/m3 27.77 °C 76.6 % 1,011.88 mbar 1.63 m/s 279.72 Deg 1.79 µg/m3 0.31 µg/m3
2022-07-31 05:00 12.36 µg/m3 0.17 µg/m3 45.99 µg/m3 22.65 µg/m3 13.33 µg/m3 0.15 mg/m3 27.92 °C 72.79 % 1,011.65 mbar 1.56 m/s 269.73 Deg 0.47 µg/m3 0.31 µg/m3
2022-07-31 04:00 10.64 µg/m3 0.22 µg/m3 49.47 µg/m3 25.66 µg/m3 13.36 µg/m3 0.16 mg/m3 28.11 °C 70.87 % 1,011.67 mbar 1.75 m/s 261.27 Deg 0.88 µg/m3 0.37 µg/m3
2022-07-31 03:00 7.43 µg/m3 0.13 µg/m3 54.71 µg/m3 21.74 µg/m3 12.38 µg/m3 0.14 mg/m3 28.34 °C 70.44 % 1,011.79 mbar 3.04 m/s 252.12 Deg 0.32 µg/m3 0.16 µg/m3
2022-07-31 02:00 6.5 µg/m3 0.17 µg/m3 57.26 µg/m3 22.03 µg/m3 11.36 µg/m3 0.14 mg/m3 28.42 °C 70.86 % 1,012.14 mbar 3.17 m/s 253.9 Deg 0.52 µg/m3 0.26 µg/m3
2022-07-31 01:00 9.77 µg/m3 0.17 µg/m3 58.31 µg/m3 21.07 µg/m3 11.19 µg/m3 0.16 mg/m3 28.44 °C 73.66 % 1,012.75 mbar 2.14 m/s 237.77 Deg 0.86 µg/m3 0.37 µg/m3
2022-07-31 00:00 11.95 µg/m3 0.2 µg/m3 55.12 µg/m3 19.99 µg/m3 13.52 µg/m3 0.18 mg/m3 28.39 °C 76.06 % 1,013.15 mbar 2.3 m/s 219.93 Deg 0.79 µg/m3 0.47 µg/m3
2022-07-30 23:00 9.97 µg/m3 0.16 µg/m3 47.17 µg/m3 22.26 µg/m3 15.07 µg/m3 0.18 mg/m3 28.44 °C 76.53 % 1,013.52 mbar 2.27 m/s 217.65 Deg 0.98 µg/m3 0.42 µg/m3
2022-07-30 22:00 8.15 µg/m3 0.17 µg/m3 47.52 µg/m3 23.17 µg/m3 15.73 µg/m3 0.18 mg/m3 28.51 °C 79.07 % 1,013.60 mbar 2.19 m/s 219.42 Deg 0.81 µg/m3 0.42 µg/m3
2022-07-30 21:00 11.5 µg/m3 0.21 µg/m3 45.13 µg/m3 26.45 µg/m3 18.01 µg/m3 0.21 mg/m3 28.95 °C 76.14 % 1,013.54 mbar 2.12 m/s 237.58 Deg 1.66 µg/m3 0.79 µg/m3
2022-07-30 20:00 14.08 µg/m3 0.28 µg/m3 43.16 µg/m3 36.69 µg/m3 18.23 µg/m3 0.24 mg/m3 29.56 °C 70.09 % 1,013.33 mbar 2.09 m/s 249.78 Deg 2.51 µg/m3 0.58 µg/m3
2022-07-30 19:00 15.87 µg/m3 0.24 µg/m3 46.5 µg/m3 30.47 µg/m3 14.95 µg/m3 0.22 mg/m3 30.57 °C 61.04 % 1,013.09 mbar 2.46 m/s 249.28 Deg 3.53 µg/m3 0.73 µg/m3
2022-07-30 18:00 19.73 µg/m3 0.24 µg/m3 52.62 µg/m3 29.67 µg/m3 14.58 µg/m3 0.22 mg/m3 31.89 °C 50.43 % 1,012.73 mbar 2.95 m/s 253.98 Deg 4.93 µg/m3 0.52 µg/m3
2022-07-30 17:00 14.73 µg/m3 0.26 µg/m3 56.07 µg/m3 28.03 µg/m3 12.21 µg/m3 0.2 mg/m3 32.83 °C 46.24 % 1,012.63 mbar 2.89 m/s 240.6 Deg 3.36 µg/m3 0.42 µg/m3
2022-07-30 16:00 21.46 µg/m3 0.28 µg/m3 54.39 µg/m3 27.47 µg/m3 12.28 µg/m3 0.18 mg/m3 33.01 °C 47.04 % 1,013.03 mbar 2.94 m/s 247.75 Deg 3.94 µg/m3 0.42 µg/m3
2022-07-30 15:00 24.65 µg/m3 0.26 µg/m3 60.4 µg/m3 28.51 µg/m3 10.02 µg/m3 0.17 mg/m3 33.78 °C 38.94 % 1,013.25 mbar 2.9 m/s 255.13 Deg 2.84 µg/m3 0.37 µg/m3
2022-07-30 14:00 16.64 µg/m3 0.26 µg/m3 68.18 µg/m3 27.4 µg/m3 9.48 µg/m3 0.18 mg/m3 33.77 °C 39.01 % 1,013.45 mbar 2.58 m/s 241.9 Deg 2.2 µg/m3 0.42 µg/m3
2022-07-30 13:00 15.38 µg/m3 0.26 µg/m3 65.14 µg/m3 26.71 µg/m3 9.62 µg/m3 0.19 mg/m3 33.34 °C 41.71 % 1,013.61 mbar 2.69 m/s 238.4 Deg 2.93 µg/m3 0.52 µg/m3
2022-07-30 12:00 12.51 µg/m3 0.25 µg/m3 62.74 µg/m3 29.69 µg/m3 10.74 µg/m3 0.2 mg/m3 32.8 °C 46.52 % 1,013.80 mbar 2.38 m/s 246.65 Deg 5.33 µg/m3 0.73 µg/m3
2022-07-30 11:00 22.13 µg/m3 0.35 µg/m3 56.27 µg/m3 33.01 µg/m3 12.44 µg/m3 0.31 mg/m3 31.91 °C 57.98 % 1,014.02 mbar 1.82 m/s 331.72 Deg 13.14 µg/m3 0.68 µg/m3
2022-07-30 10:00 18.63 µg/m3 0.22 µg/m3 56.01 µg/m3 33.54 µg/m3 11.5 µg/m3 0.26 mg/m3 32.3 °C 45.76 % 1,013.97 mbar 1.88 m/s 273.52 Deg 6.6 µg/m3 0.58 µg/m3
2022-07-30 09:00 16.97 µg/m3 0.23 µg/m3 46.45 µg/m3 24.66 µg/m3 9.02 µg/m3 0.23 mg/m3 31.48 °C 46.16 % 1,013.78 mbar 2.08 m/s 256.28 Deg 5.5 µg/m3 0.63 µg/m3
2022-07-30 08:00 18.77 µg/m3 0.19 µg/m3 45.78 µg/m3 31.93 µg/m3 11.69 µg/m3 0.23 mg/m3 29.79 °C 63.47 % 1,013.58 mbar 2.04 m/s 257.52 Deg 5.31 µg/m3 0.73 µg/m3
2022-07-30 07:00 22.6 µg/m3 0.23 µg/m3 37.65 µg/m3 26.53 µg/m3 15.35 µg/m3 0.26 mg/m3 28.49 °C 76.47 % 1,013.53 mbar 1.48 m/s 247.43 Deg 5.22 µg/m3 0.79 µg/m3
2022-07-30 06:00 22.94 µg/m3 0.19 µg/m3 30.78 µg/m3 22.44 µg/m3 15.09 µg/m3 0.26 mg/m3 27.6 °C 79.88 % 1,013.03 mbar 1.3 m/s 244.5 Deg 5.12 µg/m3 0.58 µg/m3
2022-07-30 05:00 12.04 µg/m3 0.16 µg/m3 42.46 µg/m3 20.5 µg/m3 14.18 µg/m3 0.17 mg/m3 27.55 °C 80.34 % 1,012.77 mbar 1.91 m/s 247.18 Deg 1.13 µg/m3 0.31 µg/m3
2022-07-30 04:00 9.46 µg/m3 0.18 µg/m3 48.72 µg/m3 21.6 µg/m3 14.8 µg/m3 0.17 mg/m3 27.88 °C 79.53 % 1,012.89 mbar 1.05 m/s 245.8 Deg 0.6 µg/m3 0.42 µg/m3
2022-07-30 03:00 9.56 µg/m3 0.13 µg/m3 47.87 µg/m3 22.36 µg/m3 15.24 µg/m3 0.17 mg/m3 28.23 °C 75.17 % 1,013.03 mbar 1.1 m/s 238.37 Deg 0.36 µg/m3 0.52 µg/m3
2022-07-30 02:00 14.95 µg/m3 0.14 µg/m3 46.35 µg/m3 28.63 µg/m3 14.48 µg/m3 0.2 mg/m3 28.79 °C 65.67 % 1,013.46 mbar 0.71 m/s 238.18 Deg 1.37 µg/m3 0.58 µg/m3
2022-07-30 01:00 16.56 µg/m3 0.16 µg/m3 46.44 µg/m3 31.48 µg/m3 14.09 µg/m3 0.22 mg/m3 28.98 °C 62.1 % 1,013.90 mbar 0.59 m/s 234.95 Deg 1.48 µg/m3 0.73 µg/m3
2022-07-30 00:00 23.6 µg/m3 0.21 µg/m3 43.9 µg/m3 30.18 µg/m3 15.03 µg/m3 0.28 mg/m3 29.44 °C 60.71 % 1,014.31 mbar 0.9 m/s 227.42 Deg 2.08 µg/m3 1 µg/m3
2022-07-29 23:00 34.33 µg/m3 0.21 µg/m3 37.85 µg/m3 36.03 µg/m3 16.99 µg/m3 0.29 mg/m3 29.93 °C 51.53 % 1,014.30 mbar 1.02 m/s 243.52 Deg 3.35 µg/m3 1 µg/m3
2022-07-29 22:00 35.45 µg/m3 0.2 µg/m3 36.29 µg/m3 46.76 µg/m3 17.41 µg/m3 0.33 mg/m3 30.43 °C 49.95 % 1,014.31 mbar 1.29 m/s 237.62 Deg 3.17 µg/m3 1.05 µg/m3
2022-07-29 21:00 21.87 µg/m3 0.18 µg/m3 43.88 µg/m3 42.43 µg/m3 16.24 µg/m3 0.29 mg/m3 30.63 °C 54.32 % 1,014.11 mbar 1.42 m/s 223.08 Deg 1.32 µg/m3 1.31 µg/m3
2022-07-29 20:00 32.77 µg/m3 0.3 µg/m3 42.36 µg/m3 41.63 µg/m3 17.74 µg/m3 0.5 mg/m3 30.38 °C 63.37 % 1,013.66 mbar 1.21 m/s 134.58 Deg 12.53 µg/m3 2.05 µg/m3
2022-07-29 19:00 27.4 µg/m3 0.38 µg/m3 60.41 µg/m3 26.46 µg/m3 16.62 µg/m3 0.48 mg/m3 29.64 °C 75.69 % 1,013.51 mbar 2.72 m/s 57.08 Deg 23.54 µg/m3 1.31 µg/m3
2022-07-29 18:00 22.65 µg/m3 0.37 µg/m3 70.01 µg/m3 24.65 µg/m3 15.87 µg/m3 0.46 mg/m3 29.7 °C 75.29 % 1,013.27 mbar 3.12 m/s 61.42 Deg 20.22 µg/m3 1.47 µg/m3
2022-07-29 17:00 31.66 µg/m3 0.38 µg/m3 70.97 µg/m3 24.98 µg/m3 15.63 µg/m3 0.41 mg/m3 30.32 °C 69.89 % 1,013.32 mbar 3.63 m/s 58.6 Deg 21.45 µg/m3 1.21 µg/m3
2022-07-29 16:00 20.85 µg/m3 0.43 µg/m3 78.99 µg/m3 27.68 µg/m3 16.01 µg/m3 0.46 mg/m3 30.39 °C 66.89 % 1,013.73 mbar 3.3 m/s 58.6 Deg 23.78 µg/m3 1.57 µg/m3
2022-07-29 15:00 27.15 µg/m3 0.39 µg/m3 85.32 µg/m3 30.32 µg/m3 16.06 µg/m3 0.42 mg/m3 29.99 °C 67.42 % 1,014.01 mbar 3.63 m/s 58.75 Deg 24.81 µg/m3 1.31 µg/m3
2022-07-29 14:00 21.59 µg/m3 0.38 µg/m3 79.56 µg/m3 21.49 µg/m3 14.44 µg/m3 0.36 mg/m3 29.64 °C 69.16 % 1,014.24 mbar 3.67 m/s 54.85 Deg 21.85 µg/m3 1.57 µg/m3
2022-07-29 13:00 24.78 µg/m3 0.37 µg/m3 71.93 µg/m3 22.51 µg/m3 14.49 µg/m3 0.41 mg/m3 29.46 °C 70.46 % 1,014.34 mbar 3.73 m/s 53.22 Deg 21.55 µg/m3 1.1 µg/m3
2022-07-29 12:00 15.99 µg/m3 0.39 µg/m3 67.31 µg/m3 23.01 µg/m3 14.16 µg/m3 0.41 mg/m3 29.34 °C 68.79 % 1,014.41 mbar 3.83 m/s 51.83 Deg 21.09 µg/m3 14.54 µg/m3
2022-07-29 11:00 20.07 µg/m3 0.48 µg/m3 59.84 µg/m3 23.34 µg/m3 14.02 µg/m3 0.47 mg/m3 29.38 °C 66.39 % 1,014.46 mbar 3.49 m/s 58.1 Deg 28.03 µg/m3 48.03 µg/m3
2022-07-29 10:00 0 µg/m3 0 µg/m3 0 µg/m3 23.22 µg/m3 14.11 µg/m3 0 mg/m3 29.4 °C 66.61 % 1,014.31 mbar 3.01 m/s 56.85 Deg 0 µg/m3 48.81 µg/m3
2022-07-29 09:00 0 µg/m3 0 µg/m3 0 µg/m3 27.54 µg/m3 14.74 µg/m3 0 mg/m3 29.34 °C 65.66 % 1,014.13 mbar 2.36 m/s 54.5 Deg 0 µg/m3 5.04 µg/m3
2022-07-29 08:00 0 µg/m3 0 µg/m3 0 µg/m3 39.36 µg/m3 17.15 µg/m3 0 mg/m3 28.76 °C 72.15 % 1,013.72 mbar 1.86 m/s 53.28 Deg 0 µg/m3 1.89 µg/m3
2022-07-29 07:00 32.5 µg/m3 0.49 µg/m3 50.64 µg/m3 26 µg/m3 16.83 µg/m3 0.47 mg/m3 27.96 °C 80.22 % 1,013.31 mbar 2.09 m/s 52.67 Deg 19.07 µg/m3 1.52 µg/m3
2022-07-29 06:00 13.36 µg/m3 0.38 µg/m3 51.01 µg/m3 24.37 µg/m3 17.18 µg/m3 0.38 mg/m3 27.5 °C 84.94 % 1,012.73 mbar 1.71 m/s 51.3 Deg 20.36 µg/m3 0.84 µg/m3
2022-07-29 05:00 10.19 µg/m3 0.25 µg/m3 57.19 µg/m3 21.96 µg/m3 15.99 µg/m3 0.22 mg/m3 27.49 °C 85.65 % 1,012.25 mbar 1.98 m/s 50.12 Deg 6.81 µg/m3 0.73 µg/m3
2022-07-29 04:00 9.16 µg/m3 0.27 µg/m3 61.63 µg/m3 21.4 µg/m3 15.78 µg/m3 0.19 mg/m3 27.62 °C 85.81 % 1,012.24 mbar 2.07 m/s 40.37 Deg 5.21 µg/m3 0.42 µg/m3
2022-07-29 03:00 4.19 µg/m3 0.18 µg/m3 59.32 µg/m3 22.24 µg/m3 16.28 µg/m3 0.19 mg/m3 27.62 °C 87.85 % 1,012.21 mbar 1.68 m/s 41.4 Deg 2.58 µg/m3 0.42 µg/m3
2022-07-29 02:00 4.5 µg/m3 0.19 µg/m3 63.8 µg/m3 23.27 µg/m3 16.76 µg/m3 0.18 mg/m3 27.73 °C 87.72 % 1,012.35 mbar 1.78 m/s 40.62 Deg 1.57 µg/m3 0.42 µg/m3
2022-07-29 01:00 8.51 µg/m3 0.15 µg/m3 56.38 µg/m3 23.06 µg/m3 16.58 µg/m3 0.2 mg/m3 27.79 °C 86.86 % 1,012.67 mbar 2.23 m/s 39.9 Deg 2.62 µg/m3 0.63 µg/m3
2022-07-29 00:00 15.11 µg/m3 0.23 µg/m3 50.06 µg/m3 22.18 µg/m3 15.93 µg/m3 0.24 mg/m3 27.97 °C 85.16 % 1,013.07 mbar 2.1 m/s 44.02 Deg 7.48 µg/m3 0.79 µg/m3
2022-07-28 23:00 15.51 µg/m3 0.25 µg/m3 52.55 µg/m3 22.94 µg/m3 16.32 µg/m3 0.27 mg/m3 28.09 °C 83.99 % 1,013.12 mbar 1.82 m/s 51.97 Deg 11.2 µg/m3 1.26 µg/m3
2022-07-28 22:00 18.35 µg/m3 0.32 µg/m3 55.06 µg/m3 23.23 µg/m3 16.38 µg/m3 0.36 mg/m3 28.22 °C 83.51 % 1,013.04 mbar 1.7 m/s 55.65 Deg 15 µg/m3 1 µg/m3
2022-07-28 21:00 19.89 µg/m3 0.36 µg/m3 59.84 µg/m3 23.27 µg/m3 16.3 µg/m3 0.37 mg/m3 28.44 °C 83.03 % 1,012.61 mbar 1.75 m/s 41.43 Deg 15.3 µg/m3 1.1 µg/m3
2022-07-28 20:00 22.05 µg/m3 0.36 µg/m3 55.7 µg/m3 25.04 µg/m3 17.11 µg/m3 0.37 mg/m3 28.88 °C 79.84 % 1,011.74 mbar 1.46 m/s 114.27 Deg 13.69 µg/m3 1.84 µg/m3
2022-07-28 19:00 24.38 µg/m3 0.39 µg/m3 53.4 µg/m3 24.29 µg/m3 15.93 µg/m3 0.52 mg/m3 29.25 °C 76.16 % 1,011.13 mbar 2.16 m/s 53.2 Deg 21.6 µg/m3 2.94 µg/m3
2022-07-28 18:00 26.97 µg/m3 0.42 µg/m3 54.36 µg/m3 28.3 µg/m3 16.14 µg/m3 0.47 mg/m3 29.43 °C 74.56 % 1,010.54 mbar 2.12 m/s 52.77 Deg 24.72 µg/m3 1.94 µg/m3
2022-07-28 17:00 19.68 µg/m3 0.4 µg/m3 60.63 µg/m3 26.08 µg/m3 15.83 µg/m3 0.47 mg/m3 29.06 °C 78.86 % 1,010.60 mbar 3.15 m/s 49.23 Deg 25.02 µg/m3 1.05 µg/m3
2022-07-28 16:00 23.86 µg/m3 0.36 µg/m3 64.85 µg/m3 24.01 µg/m3 15.39 µg/m3 0.37 mg/m3 28.89 °C 78.03 % 1,010.74 mbar 3.66 m/s 58.4 Deg 20 µg/m3 1.31 µg/m3
2022-07-28 15:00 25.71 µg/m3 0.36 µg/m3 64.51 µg/m3 23.68 µg/m3 15.3 µg/m3 0.39 mg/m3 29.06 °C 77.29 % 1,010.81 mbar 3.64 m/s 60.37 Deg 20.73 µg/m3 1.26 µg/m3
2022-07-28 14:00 20.97 µg/m3 0.37 µg/m3 65.72 µg/m3 23.23 µg/m3 15.08 µg/m3 0.38 mg/m3 28.75 °C 76.98 % 1,011.01 mbar 3.24 m/s 60.03 Deg 22.97 µg/m3 1.36 µg/m3
2022-07-28 13:00 20.72 µg/m3 0.39 µg/m3 67.35 µg/m3 25.15 µg/m3 16.37 µg/m3 0.41 mg/m3 28.56 °C 76.85 % 1,011.22 mbar 3.84 m/s 60.55 Deg 25 µg/m3 1.1 µg/m3
2022-07-28 12:00 19.84 µg/m3 0.36 µg/m3 64.71 µg/m3 25.73 µg/m3 16.94 µg/m3 0.34 mg/m3 28.43 °C 75.12 % 1,011.28 mbar 4.37 m/s 55.97 Deg 22.62 µg/m3 1 µg/m3
2022-07-28 11:00 20.18 µg/m3 0.38 µg/m3 65.29 µg/m3 27.91 µg/m3 18.36 µg/m3 0.29 mg/m3 28.23 °C 77.16 % 1,011.06 mbar 4.17 m/s 56 Deg 25.1 µg/m3 1.42 µg/m3
2022-07-28 10:00 28.19 µg/m3 0.48 µg/m3 58.39 µg/m3 34.72 µg/m3 20.31 µg/m3 0.39 mg/m3 28.61 °C 75.83 % 1,010.51 mbar 3.2 m/s 53.03 Deg 25.11 µg/m3 1.1 µg/m3
2022-07-28 09:00 27.41 µg/m3 0.29 µg/m3 51.83 µg/m3 43.38 µg/m3 20.29 µg/m3 0.31 mg/m3 29.3 °C 72.39 % 1,010.30 mbar 1.14 m/s 297.55 Deg 12.92 µg/m3 0.73 µg/m3
2022-07-28 08:00 24.7 µg/m3 0.19 µg/m3 51.22 µg/m3 40.54 µg/m3 19.96 µg/m3 0.26 mg/m3 28.5 °C 76.49 % 1,009.84 mbar 1.78 m/s 248.87 Deg 6.87 µg/m3 0.84 µg/m3
2022-07-28 07:00 29.75 µg/m3 0.18 µg/m3 42.6 µg/m3 31.07 µg/m3 20.79 µg/m3 0.3 mg/m3 27.65 °C 80.74 % 1,009.23 mbar 1.4 m/s 241.85 Deg 7.46 µg/m3 0.94 µg/m3
2022-07-28 06:00 29.4 µg/m3 0.22 µg/m3 38.29 µg/m3 31.09 µg/m3 20.8 µg/m3 0.26 mg/m3 26.89 °C 83.64 % 1,008.75 mbar 1.18 m/s 226.35 Deg 4.03 µg/m3 0.52 µg/m3
2022-07-28 05:00 13.77 µg/m3 0.09 µg/m3 53.05 µg/m3 26.91 µg/m3 18.19 µg/m3 0.16 mg/m3 26.84 °C 83.48 % 1,008.32 mbar 1.54 m/s 220.07 Deg 0.72 µg/m3 0.31 µg/m3
2022-07-28 04:00 7.07 µg/m3 0.23 µg/m3 66.02 µg/m3 24.74 µg/m3 16.66 µg/m3 0.14 mg/m3 27.17 °C 82.57 % 1,008.60 mbar 0.95 m/s 255.83 Deg 1.65 µg/m3 0.21 µg/m3
2022-07-28 03:00 4.02 µg/m3 0.11 µg/m3 68.03 µg/m3 22.35 µg/m3 15.08 µg/m3 0.13 mg/m3 27.26 °C 82.66 % 1,009.14 mbar 1.68 m/s 284.97 Deg 0.15 µg/m3 0.21 µg/m3
2022-07-28 02:00 6.46 µg/m3 0.14 µg/m3 63.48 µg/m3 22.31 µg/m3 15.05 µg/m3 0.13 mg/m3 27.38 °C 82.2 % 1,009.33 mbar 1.96 m/s 252.95 Deg 0.11 µg/m3 0.26 µg/m3
2022-07-28 01:00 7.32 µg/m3 0.12 µg/m3 71.13 µg/m3 24.37 µg/m3 16.36 µg/m3 0.15 mg/m3 27.45 °C 82.72 % 1,009.56 mbar 1.5 m/s 237.07 Deg 0.34 µg/m3 0.37 µg/m3
2022-07-28 00:00 10.07 µg/m3 0.18 µg/m3 72.19 µg/m3 26.33 µg/m3 17.71 µg/m3 0.16 mg/m3 27.78 °C 81.73 % 1,009.87 mbar 1.32 m/s 232.57 Deg 0.6 µg/m3 0.42 µg/m3
2022-07-27 23:00 13 µg/m3 0.12 µg/m3 77.12 µg/m3 27.93 µg/m3 18.89 µg/m3 0.19 mg/m3 28.14 °C 79.61 % 1,009.69 mbar 1.53 m/s 224.57 Deg 0.69 µg/m3 0.47 µg/m3
2022-07-27 22:00 15.28 µg/m3 0.18 µg/m3 77.07 µg/m3 30.85 µg/m3 21.09 µg/m3 0.22 mg/m3 28.3 °C 79.1 % 1,009.56 mbar 1.82 m/s 247.77 Deg 1.33 µg/m3 0.58 µg/m3
2022-07-27 21:00 17.77 µg/m3 0.23 µg/m3 67.81 µg/m3 34.74 µg/m3 23.98 µg/m3 0.23 mg/m3 28.62 °C 78.23 % 1,008.95 mbar 1.81 m/s 237.72 Deg 2.55 µg/m3 0.68 µg/m3
2022-07-27 20:00 17.23 µg/m3 0.23 µg/m3 64.95 µg/m3 30.24 µg/m3 19.3 µg/m3 0.23 mg/m3 29.26 °C 73.98 % 1,008.48 mbar 1.84 m/s 236 Deg 1.79 µg/m3 0.79 µg/m3
2022-07-27 19:00 29.71 µg/m3 0.4 µg/m3 58.29 µg/m3 29.57 µg/m3 14.02 µg/m3 0.36 mg/m3 30.47 °C 61.63 % 1,008.09 mbar 2.34 m/s 147 Deg 18.48 µg/m3 1.36 µg/m3
2022-07-27 18:00 31.59 µg/m3 0.56 µg/m3 58.97 µg/m3 24.26 µg/m3 12.16 µg/m3 0.4 mg/m3 31.37 °C 46.78 % 1,007.89 mbar 2.85 m/s 52.3 Deg 26.26 µg/m3 1.68 µg/m3
2022-07-27 17:00 32.81 µg/m3 0.5 µg/m3 66.67 µg/m3 22.89 µg/m3 11.76 µg/m3 0.42 mg/m3 31.05 °C 57.49 % 1,007.92 mbar 3.54 m/s 47.22 Deg 21.37 µg/m3 1.36 µg/m3
2022-07-27 16:00 22.12 µg/m3 0.49 µg/m3 73.88 µg/m3 28.7 µg/m3 16.16 µg/m3 0.42 mg/m3 31.05 °C 60.37 % 1,008.14 mbar 3.61 m/s 53.8 Deg 22.92 µg/m3 1.73 µg/m3
2022-07-27 15:00 29.61 µg/m3 0.41 µg/m3 75.6 µg/m3 32.98 µg/m3 17.06 µg/m3 0.35 mg/m3 31.8 °C 56.69 % 1,008.73 mbar 2.97 m/s 43.32 Deg 20.4 µg/m3 1 µg/m3
2022-07-27 14:00 24.2 µg/m3 0.48 µg/m3 73.47 µg/m3 30.75 µg/m3 16.94 µg/m3 0.33 mg/m3 31.62 °C 52.9 % 1,009.09 mbar 3.55 m/s 40.7 Deg 20.4 µg/m3 1.15 µg/m3
2022-07-27 13:00 28.58 µg/m3 0.48 µg/m3 65.99 µg/m3 29.24 µg/m3 14.86 µg/m3 0.35 mg/m3 31.33 °C 48.81 % 1,009.42 mbar 2.99 m/s 43.37 Deg 24.31 µg/m3 0.94 µg/m3
2022-07-27 12:00 32.23 µg/m3 0.49 µg/m3 57.19 µg/m3 30.95 µg/m3 16.73 µg/m3 0.39 mg/m3 30.44 °C 57.72 % 1,009.75 mbar 2.26 m/s 51.2 Deg 27.86 µg/m3 0.89 µg/m3
2022-07-27 11:00 23.2 µg/m3 0.35 µg/m3 58.67 µg/m3 26.28 µg/m3 14.62 µg/m3 0.28 mg/m3 29.61 °C 67.78 % 1,009.85 mbar 2.16 m/s 35.5 Deg 21.77 µg/m3 0.94 µg/m3
2022-07-27 10:00 20.6 µg/m3 0.37 µg/m3 56.8 µg/m3 32.17 µg/m3 17.75 µg/m3 0.3 mg/m3 29.05 °C 75.21 % 1,009.54 mbar 2.4 m/s 32.17 Deg 20.81 µg/m3 0.73 µg/m3
2022-07-27 09:00 17.72 µg/m3 0.36 µg/m3 51.55 µg/m3 37.72 µg/m3 21.07 µg/m3 0.35 mg/m3 28.52 °C 78.99 % 1,009.32 mbar 1.78 m/s 100.8 Deg 20.33 µg/m3 1.1 µg/m3
2022-07-27 08:00 24.98 µg/m3 0.42 µg/m3 46.73 µg/m3 37.15 µg/m3 21.83 µg/m3 0.34 mg/m3 28.24 °C 80.2 % 1,008.90 mbar 1.74 m/s 104.77 Deg 25.35 µg/m3 1.15 µg/m3
2022-07-27 07:00 23.79 µg/m3 0.41 µg/m3 41.2 µg/m3 34.34 µg/m3 23.14 µg/m3 0.46 mg/m3 27.5 °C 83.35 % 1,008.45 mbar 1.07 m/s 36.3 Deg 24.58 µg/m3 1.36 µg/m3
2022-07-27 06:00 23.43 µg/m3 0.27 µg/m3 40.65 µg/m3 32.39 µg/m3 21.8 µg/m3 0.29 mg/m3 27.34 °C 84.48 % 1,008.09 mbar 1.21 m/s 293.5 Deg 7.95 µg/m3 0.47 µg/m3
2022-07-27 05:00 18.1 µg/m3 0.19 µg/m3 33.74 µg/m3 30.63 µg/m3 20.59 µg/m3 0.17 mg/m3 27.25 °C 83.57 % 1,007.87 mbar 1.05 m/s 267.47 Deg 1.3 µg/m3 0.26 µg/m3
2022-07-27 04:00 11.79 µg/m3 0.24 µg/m3 45.26 µg/m3 25.71 µg/m3 17.44 µg/m3 0.13 mg/m3 27.44 °C 81.85 % 1,008.00 mbar 1.51 m/s 261.43 Deg 0.44 µg/m3 0.26 µg/m3
2022-07-27 03:00 6.69 µg/m3 0.17 µg/m3 58.17 µg/m3 22.28 µg/m3 15.3 µg/m3 0.12 mg/m3 27.68 °C 77.99 % 1,008.34 mbar 1.3 m/s 220.43 Deg 0.15 µg/m3 0.26 µg/m3
2022-07-27 02:00 5.48 µg/m3 0.19 µg/m3 64.41 µg/m3 19.35 µg/m3 13.22 µg/m3 0.11 mg/m3 28.01 °C 74.55 % 1,008.82 mbar 1.63 m/s 216.72 Deg 0.26 µg/m3 0.21 µg/m3
2022-07-27 01:00 9.5 µg/m3 0.18 µg/m3 60.02 µg/m3 22.51 µg/m3 12.79 µg/m3 0.13 mg/m3 28.25 °C 71.9 % 1,009.40 mbar 1.76 m/s 215.78 Deg 0.49 µg/m3 0.31 µg/m3
2022-07-27 00:00 12.67 µg/m3 0.24 µg/m3 65.17 µg/m3 23.48 µg/m3 12.47 µg/m3 0.16 mg/m3 28.64 °C 67.28 % 1,009.62 mbar 1.41 m/s 220.23 Deg 1.43 µg/m3 0.37 µg/m3
2022-07-26 23:00 13.26 µg/m3 0.22 µg/m3 70.49 µg/m3 21.72 µg/m3 11.85 µg/m3 0.18 mg/m3 28.86 °C 63.95 % 1,009.66 mbar 2.1 m/s 235.83 Deg 0.82 µg/m3 0.52 µg/m3
2022-07-26 22:00 13.64 µg/m3 0.2 µg/m3 66.14 µg/m3 21.06 µg/m3 11.78 µg/m3 0.19 mg/m3 28.9 °C 64.79 % 1,009.77 mbar 2.2 m/s 237.35 Deg 1.12 µg/m3 0.52 µg/m3
2022-07-26 21:00 17.54 µg/m3 0.2 µg/m3 60.58 µg/m3 22.67 µg/m3 12.86 µg/m3 0.2 mg/m3 28.76 °C 68.42 % 1,009.76 mbar 2.26 m/s 242.3 Deg 3.01 µg/m3 0.84 µg/m3
2022-07-26 20:00 27.42 µg/m3 0.29 µg/m3 49.07 µg/m3 25.48 µg/m3 14.01 µg/m3 0.28 mg/m3 28.94 °C 73.51 % 1,009.51 mbar 2.2 m/s 242.55 Deg 7.29 µg/m3 0.79 µg/m3
2022-07-26 19:00 20.73 µg/m3 0.24 µg/m3 62.07 µg/m3 26.88 µg/m3 14.58 µg/m3 0.24 mg/m3 29.6 °C 71.48 % 1,009.41 mbar 2.83 m/s 252.03 Deg 4.11 µg/m3 1 µg/m3
2022-07-26 18:00 26.18 µg/m3 0.26 µg/m3 68.02 µg/m3 36.25 µg/m3 18.52 µg/m3 0.33 mg/m3 30.74 °C 66.68 % 1,009.42 mbar 2.46 m/s 254.8 Deg 5.27 µg/m3 1.1 µg/m3
2022-07-26 17:00 21.14 µg/m3 0.28 µg/m3 69.96 µg/m3 33.41 µg/m3 14.85 µg/m3 0.25 mg/m3 31.58 °C 60.45 % 1,009.46 mbar 3.03 m/s 252.82 Deg 4.96 µg/m3 0.79 µg/m3
2022-07-26 16:00 22.59 µg/m3 0.26 µg/m3 77.33 µg/m3 35.41 µg/m3 15.4 µg/m3 0.24 mg/m3 32.58 °C 49.09 % 1,009.91 mbar 2.88 m/s 250.42 Deg 4.73 µg/m3 0.47 µg/m3
2022-07-26 15:00 20.43 µg/m3 0.23 µg/m3 78.04 µg/m3 37.14 µg/m3 12.99 µg/m3 0.19 mg/m3 32.76 °C 42.06 % 1,010.36 mbar 3.54 m/s 242.68 Deg 4.65 µg/m3 0.37 µg/m3
2022-07-26 14:00 38.14 µg/m3 0.3 µg/m3 77.19 µg/m3 36.29 µg/m3 11.14 µg/m3 0.19 mg/m3 33.58 °C 35.33 % 1,010.62 mbar 3.4 m/s 244.48 Deg 3.8 µg/m3 0.52 µg/m3
2022-07-26 13:00 21.37 µg/m3 0.28 µg/m3 74.82 µg/m3 46.55 µg/m3 13.43 µg/m3 0.22 mg/m3 33.78 °C 38.79 % 1,010.88 mbar 3.19 m/s 243.72 Deg 5.35 µg/m3 0.52 µg/m3
2022-07-26 12:00 21.48 µg/m3 0.31 µg/m3 78.78 µg/m3 46.08 µg/m3 13.87 µg/m3 0.23 mg/m3 34.53 °C 37.95 % 1,011.02 mbar 2.38 m/s 241.4 Deg 4.25 µg/m3 0.73 µg/m3
2022-07-26 11:00 25.83 µg/m3 0.33 µg/m3 78.58 µg/m3 52.72 µg/m3 15.89 µg/m3 0.27 mg/m3 34.42 °C 40.52 % 1,011.02 mbar 1.89 m/s 256.1 Deg 5.62 µg/m3 0.79 µg/m3
2022-07-26 10:00 29.01 µg/m3 0.32 µg/m3 60.9 µg/m3 49.61 µg/m3 15.27 µg/m3 0.25 mg/m3 33.85 °C 39.25 % 1,010.86 mbar 1.83 m/s 282.73 Deg 8.92 µg/m3 0.84 µg/m3
2022-07-26 09:00 28.28 µg/m3 0.32 µg/m3 42.33 µg/m3 53.5 µg/m3 16.74 µg/m3 0.26 mg/m3 31.92 °C 52.58 % 1,010.88 mbar 1.55 m/s 243.75 Deg 9.42 µg/m3 0.79 µg/m3
2022-07-26 08:00 23.12 µg/m3 0.3 µg/m3 37.73 µg/m3 36.65 µg/m3 17.11 µg/m3 0.24 mg/m3 29.19 °C 73.95 % 1,010.98 mbar 2.15 m/s 247.75 Deg 8.25 µg/m3 0.68 µg/m3
2022-07-26 07:00 22.07 µg/m3 0.32 µg/m3 32.87 µg/m3 24.35 µg/m3 16.34 µg/m3 0.26 mg/m3 28.17 °C 81.37 % 1,010.84 mbar 1.91 m/s 233.55 Deg 8.07 µg/m3 0.68 µg/m3
2022-07-26 06:00 15.61 µg/m3 0.21 µg/m3 38.63 µg/m3 22.08 µg/m3 15 µg/m3 0.2 mg/m3 27.5 °C 83.96 % 1,010.70 mbar 1.72 m/s 221.28 Deg 2.65 µg/m3 0.47 µg/m3
2022-07-26 05:00 7.63 µg/m3 0.18 µg/m3 53.91 µg/m3 18.73 µg/m3 13.02 µg/m3 0.13 mg/m3 27.37 °C 83.39 % 1,010.52 mbar 2.39 m/s 224.33 Deg 0.57 µg/m3 0.21 µg/m3
2022-07-26 04:00 4.69 µg/m3 0.18 µg/m3 74 µg/m3 17.41 µg/m3 12.17 µg/m3 0.12 mg/m3 27.58 °C 79.07 % 1,010.70 mbar 2.06 m/s 220.58 Deg 0.08 µg/m3 0.16 µg/m3
2022-07-26 03:00 3.17 µg/m3 0.19 µg/m3 77.47 µg/m3 15.74 µg/m3 11.07 µg/m3 0.12 mg/m3 27.78 °C 75.19 % 1,011.16 mbar 2.31 m/s 221.55 Deg 0.04 µg/m3 0.16 µg/m3
2022-07-26 02:00 7.03 µg/m3 0.23 µg/m3 79.44 µg/m3 18.69 µg/m3 10.75 µg/m3 0.11 mg/m3 28.35 °C 68.19 % 1,011.54 mbar 1.69 m/s 216.15 Deg 0.33 µg/m3 0.21 µg/m3
2022-07-26 01:00 10.23 µg/m3 0.28 µg/m3 77.15 µg/m3 21 µg/m3 10.64 µg/m3 0.13 mg/m3 28.98 °C 58.87 % 1,011.81 mbar 1.13 m/s 209.57 Deg 0.04 µg/m3 0.47 µg/m3
2022-07-26 00:00 21.32 µg/m3 0.24 µg/m3 64.2 µg/m3 31.31 µg/m3 13.66 µg/m3 0.15 mg/m3 29.82 °C 46.45 % 1,012.03 mbar 1.14 m/s 223.37 Deg 0.78 µg/m3 0.68 µg/m3
2022-07-25 23:00 33.1 µg/m3 0.29 µg/m3 54.52 µg/m3 32.15 µg/m3 13.15 µg/m3 0.18 mg/m3 30.21 °C 43.82 % 1,012.11 mbar 1.15 m/s 224.25 Deg 2.64 µg/m3 0.73 µg/m3
2022-07-25 22:00 37.34 µg/m3 0.32 µg/m3 50.36 µg/m3 33.78 µg/m3 13.71 µg/m3 0.21 mg/m3 30.41 °C 45.51 % 1,012.29 mbar 1.33 m/s 232.42 Deg 1.78 µg/m3 0.79 µg/m3
2022-07-25 21:00 46.17 µg/m3 0.25 µg/m3 55.43 µg/m3 32.34 µg/m3 12.81 µg/m3 0.21 mg/m3 30.83 °C 42.85 % 1,012.18 mbar 1.89 m/s 249.6 Deg 3.22 µg/m3 0.84 µg/m3
2022-07-25 20:00 40.62 µg/m3 0.3 µg/m3 52.39 µg/m3 48.32 µg/m3 16.46 µg/m3 0.26 mg/m3 31.29 °C 47.75 % 1,011.94 mbar 1.23 m/s 266.72 Deg 5.05 µg/m3 0.94 µg/m3
2022-07-25 19:00 32.95 µg/m3 0.27 µg/m3 65.85 µg/m3 36.59 µg/m3 13.46 µg/m3 0.25 mg/m3 31.94 °C 49.4 % 1,011.79 mbar 1.5 m/s 279.98 Deg 4.04 µg/m3 0.84 µg/m3
2022-07-25 18:00 44.92 µg/m3 0.23 µg/m3 74.69 µg/m3 37.45 µg/m3 13.85 µg/m3 0.29 mg/m3 33.62 °C 40.75 % 1,011.65 mbar 2.33 m/s 272.13 Deg 6.08 µg/m3 0.94 µg/m3
2022-07-25 17:00 57.09 µg/m3 0.3 µg/m3 82.19 µg/m3 44.08 µg/m3 13.47 µg/m3 0.31 mg/m3 34.96 °C 36.4 % 1,011.77 mbar 2.24 m/s 191.15 Deg 10.64 µg/m3 1.21 µg/m3
2022-07-25 16:00 40.58 µg/m3 0.49 µg/m3 85.93 µg/m3 29.55 µg/m3 12.26 µg/m3 0.35 mg/m3 34.66 °C 34.21 % 1,012.10 mbar 2.26 m/s 30.32 Deg 19.32 µg/m3 0.84 µg/m3
2022-07-25 15:00 29.56 µg/m3 0.39 µg/m3 77.74 µg/m3 32.95 µg/m3 15.35 µg/m3 0.26 mg/m3 34.15 °C 44.4 % 1,012.55 mbar 2.03 m/s 96.42 Deg 15.6 µg/m3 0.94 µg/m3
2022-07-25 14:00 27.13 µg/m3 0.3 µg/m3 76.59 µg/m3 37.32 µg/m3 17.31 µg/m3 0.28 mg/m3 34.82 °C 47.89 % 1,012.82 mbar 2.01 m/s 157.03 Deg 10.23 µg/m3 0.58 µg/m3
2022-07-25 13:00 30.47 µg/m3 0.33 µg/m3 73.46 µg/m3 43.03 µg/m3 15.34 µg/m3 0.3 mg/m3 34.84 °C 44.25 % 1,013.03 mbar 2.53 m/s 243.97 Deg 12.61 µg/m3 1.31 µg/m3
2022-07-25 12:00 27.73 µg/m3 0.46 µg/m3 85.99 µg/m3 32.67 µg/m3 16.44 µg/m3 0.34 mg/m3 32.4 °C 53.29 % 1,013.38 mbar 3.53 m/s 57.37 Deg 19.23 µg/m3 1.31 µg/m3
2022-07-25 11:00 47.32 µg/m3 0.63 µg/m3 74.24 µg/m3 35.91 µg/m3 17.36 µg/m3 0.41 mg/m3 31.9 °C 55.08 % 1,013.58 mbar 3.38 m/s 52.12 Deg 35.02 µg/m3 2.99 µg/m3
2022-07-25 10:00 74.62 µg/m3 1.36 µg/m3 40.33 µg/m3 47.83 µg/m3 19.8 µg/m3 0.67 mg/m3 31.9 °C 56.15 % 1,013.51 mbar 2.48 m/s 55.03 Deg 98.13 µg/m3 3.52 µg/m3
2022-07-25 09:00 53.74 µg/m3 0.78 µg/m3 53.92 µg/m3 47.77 µg/m3 14.62 µg/m3 0.43 mg/m3 33.67 °C 35.13 % 1,013.51 mbar 1.34 m/s 169.23 Deg 44.34 µg/m3 1.47 µg/m3
2022-07-25 08:00 58.25 µg/m3 0.6 µg/m3 25.98 µg/m3 75.6 µg/m3 19.45 µg/m3 0.42 mg/m3 31.59 °C 53.47 % 1,013.58 mbar 1.12 m/s 230.65 Deg 28.11 µg/m3 1.68 µg/m3
2022-07-25 07:00 43.83 µg/m3 0.45 µg/m3 28.41 µg/m3 32.84 µg/m3 16.3 µg/m3 0.39 mg/m3 28.36 °C 77.37 % 1,013.53 mbar 1.34 m/s 229.73 Deg 16.99 µg/m3 1.26 µg/m3
2022-07-25 06:00 31.7 µg/m3 0.22 µg/m3 35.99 µg/m3 22.36 µg/m3 15.11 µg/m3 0.3 mg/m3 27.02 °C 82.03 % 1,013.50 mbar 1.36 m/s 228.05 Deg 4.45 µg/m3 0.79 µg/m3
2022-07-25 05:00 14.72 µg/m3 0.19 µg/m3 46.28 µg/m3 19.89 µg/m3 13.83 µg/m3 0.2 mg/m3 26.78 °C 80.45 % 1,013.31 mbar 1.09 m/s 221.72 Deg 1.75 µg/m3 0.47 µg/m3
2022-07-25 04:00 6.21 µg/m3 0.17 µg/m3 62.43 µg/m3 17.61 µg/m3 12.47 µg/m3 0.15 mg/m3 26.94 °C 78.22 % 1,013.34 mbar 1.2 m/s 223.97 Deg 0.08 µg/m3 0.42 µg/m3
2022-07-25 03:00 5.32 µg/m3 0.18 µg/m3 64.88 µg/m3 18.35 µg/m3 12.97 µg/m3 0.16 mg/m3 27.11 °C 76.66 % 1,013.62 mbar 1.02 m/s 229.47 Deg 0.04 µg/m3 0.37 µg/m3
2022-07-25 02:00 5.78 µg/m3 0.15 µg/m3 69.44 µg/m3 16.86 µg/m3 11.87 µg/m3 0.15 mg/m3 27.17 °C 77.52 % 1,014.12 mbar 1.01 m/s 225.32 Deg 0.27 µg/m3 0.37 µg/m3
2022-07-25 01:00 6.58 µg/m3 0.21 µg/m3 70.14 µg/m3 16.51 µg/m3 11.46 µg/m3 0.16 mg/m3 27.26 °C 76.8 % 1,014.65 mbar 1.06 m/s 221.62 Deg 0.08 µg/m3 0.37 µg/m3
2022-07-25 00:00 9.95 µg/m3 0.22 µg/m3 66.8 µg/m3 17.19 µg/m3 11.78 µg/m3 0.19 mg/m3 27.51 °C 74.58 % 1,015.10 mbar 1.06 m/s 223.47 Deg 0.37 µg/m3 0.58 µg/m3
2022-07-24 23:00 19.25 µg/m3 0.23 µg/m3 58.66 µg/m3 20.21 µg/m3 13 µg/m3 0.23 mg/m3 27.78 °C 73.24 % 1,015.21 mbar 1.35 m/s 234.53 Deg 1.8 µg/m3 0.73 µg/m3
2022-07-24 22:00 16.67 µg/m3 0.21 µg/m3 62.5 µg/m3 20.76 µg/m3 12.78 µg/m3 0.22 mg/m3 27.97 °C 72.68 % 1,015.12 mbar 1.68 m/s 230.05 Deg 1.87 µg/m3 0.84 µg/m3
2022-07-24 21:00 15.81 µg/m3 0.21 µg/m3 68.06 µg/m3 23.32 µg/m3 13.86 µg/m3 0.24 mg/m3 28.31 °C 70.24 % 1,014.91 mbar 2.09 m/s 250.58 Deg 1.7 µg/m3 0.84 µg/m3
2022-07-24 20:00 16.68 µg/m3 0.21 µg/m3 67.98 µg/m3 24.84 µg/m3 14.7 µg/m3 0.25 mg/m3 28.61 °C 69.44 % 1,014.69 mbar 2.38 m/s 258.43 Deg 1.95 µg/m3 0.79 µg/m3
2022-07-24 19:00 13.51 µg/m3 0.23 µg/m3 76.21 µg/m3 22.27 µg/m3 12.96 µg/m3 0.23 mg/m3 29.38 °C 64.21 % 1,014.51 mbar 2.96 m/s 257.13 Deg 2.07 µg/m3 0.47 µg/m3
2022-07-24 18:00 13.48 µg/m3 0.23 µg/m3 71.37 µg/m3 20.66 µg/m3 10.05 µg/m3 0.21 mg/m3 30.46 °C 57.84 % 1,014.49 mbar 2.78 m/s 251.73 Deg 2.46 µg/m3 0.37 µg/m3
2022-07-24 17:00 8.78 µg/m3 0.2 µg/m3 74.67 µg/m3 26.57 µg/m3 13.48 µg/m3 0.19 mg/m3 30.96 °C 56.26 % 1,014.62 mbar 3.27 m/s 240.43 Deg 1.54 µg/m3 0.31 µg/m3
2022-07-24 16:00 6.97 µg/m3 0.26 µg/m3 69.19 µg/m3 29.75 µg/m3 14.11 µg/m3 0.17 mg/m3 31.29 °C 53.8 % 1,015.12 mbar 3.45 m/s 231.3 Deg 1.4 µg/m3 0.21 µg/m3
2022-07-24 15:00 20.51 µg/m3 0.26 µg/m3 75.4 µg/m3 32.46 µg/m3 12.55 µg/m3 0.17 mg/m3 31.68 °C 47.96 % 1,015.54 mbar 3.88 m/s 239.22 Deg 1.32 µg/m3 0.26 µg/m3
2022-07-24 14:00 10.67 µg/m3 0.27 µg/m3 73.7 µg/m3 26.17 µg/m3 11.18 µg/m3 0.19 mg/m3 32.11 °C 46.19 % 1,016.06 mbar 3.17 m/s 247.2 Deg 2.56 µg/m3 0.31 µg/m3
2022-07-24 13:00 11.56 µg/m3 0.26 µg/m3 74.31 µg/m3 23.78 µg/m3 11.3 µg/m3 0.21 mg/m3 31.87 °C 45.75 % 1,016.40 mbar 3.14 m/s 262.38 Deg 3.09 µg/m3 0.31 µg/m3
2022-07-24 12:00 10.72 µg/m3 0.28 µg/m3 75.34 µg/m3 24.22 µg/m3 12.5 µg/m3 0.21 mg/m3 31.49 °C 50.6 % 1,016.70 mbar 2.98 m/s 250.3 Deg 2.81 µg/m3 0.37 µg/m3
2022-07-24 11:00 10.88 µg/m3 0.25 µg/m3 77.42 µg/m3 24.96 µg/m3 11.73 µg/m3 0.19 mg/m3 31.32 °C 49.4 % 1,016.86 mbar 3.17 m/s 251.65 Deg 2.34 µg/m3 0.42 µg/m3
2022-07-24 10:00 10.93 µg/m3 0.28 µg/m3 77.31 µg/m3 22.94 µg/m3 12.34 µg/m3 0.19 mg/m3 30.77 °C 51.95 % 1,016.72 mbar 2.87 m/s 243.2 Deg 2.37 µg/m3 0.63 µg/m3
2022-07-24 09:00 16.42 µg/m3 0.26 µg/m3 73.37 µg/m3 22.5 µg/m3 10.87 µg/m3 0.22 mg/m3 30.45 °C 53.25 % 1,016.62 mbar 2.28 m/s 256.82 Deg 4.69 µg/m3 0.52 µg/m3
2022-07-24 08:00 13 µg/m3 0.27 µg/m3 63.42 µg/m3 18.03 µg/m3 10.09 µg/m3 0.19 mg/m3 29.03 °C 62.9 % 1,016.53 mbar 1.82 m/s 254.32 Deg 2.63 µg/m3 0.68 µg/m3
2022-07-24 07:00 15.45 µg/m3 0.25 µg/m3 48.43 µg/m3 20.21 µg/m3 13.63 µg/m3 0.22 mg/m3 27.7 °C 73.46 % 1,016.40 mbar 1.35 m/s 257.75 Deg 3.02 µg/m3 0.84 µg/m3
2022-07-24 06:00 17.11 µg/m3 0.26 µg/m3 41.32 µg/m3 17.87 µg/m3 12.99 µg/m3 0.21 mg/m3 26.66 °C 79.53 % 1,016.36 mbar 0.96 m/s 257.38 Deg 1.84 µg/m3 0.42 µg/m3
2022-07-24 05:00 13.49 µg/m3 0.22 µg/m3 46.31 µg/m3 15.11 µg/m3 11.51 µg/m3 0.16 mg/m3 26.41 °C 81.02 % 1,016.17 mbar 1.34 m/s 267.65 Deg 1 µg/m3 0.31 µg/m3
2022-07-24 04:00 10 µg/m3 0.22 µg/m3 48.3 µg/m3 14.8 µg/m3 11.66 µg/m3 0.15 mg/m3 26.43 °C 82.39 % 1,016.17 mbar 1.13 m/s 257.38 Deg 0.82 µg/m3 0.37 µg/m3
2022-07-24 03:00 6.98 µg/m3 0.21 µg/m3 53.18 µg/m3 14.13 µg/m3 10.79 µg/m3 0.15 mg/m3 26.68 °C 79.77 % 1,016.26 mbar 1.47 m/s 256.65 Deg 0.28 µg/m3 0.42 µg/m3
2022-07-24 02:00 14.96 µg/m3 0.26 µg/m3 48.67 µg/m3 14.73 µg/m3 11.04 µg/m3 0.17 mg/m3 26.81 °C 78.68 % 1,016.59 mbar 1.48 m/s 244.63 Deg 2.77 µg/m3 0.58 µg/m3
2022-07-24 01:00 13.12 µg/m3 0.22 µg/m3 53.11 µg/m3 14.91 µg/m3 10.76 µg/m3 0.19 mg/m3 27.17 °C 76.49 % 1,017.03 mbar 1.34 m/s 241.07 Deg 0.9 µg/m3 0.52 µg/m3
2022-07-24 00:00 16.53 µg/m3 0.24 µg/m3 54.95 µg/m3 15.81 µg/m3 10.9 µg/m3 0.21 mg/m3 27.47 °C 72.97 % 1,017.38 mbar 1.57 m/s 257.45 Deg 1.39 µg/m3 0.58 µg/m3
2022-07-23 23:00 17.23 µg/m3 0.25 µg/m3 54.08 µg/m3 18.3 µg/m3 12.31 µg/m3 0.21 mg/m3 27.8 °C 71.1 % 1,017.50 mbar 1.6 m/s 250.82 Deg 2.07 µg/m3 0.73 µg/m3
2022-07-23 22:00 17.03 µg/m3 0.25 µg/m3 55.09 µg/m3 20.12 µg/m3 12.46 µg/m3 0.23 mg/m3 28.2 °C 66.4 % 1,017.44 mbar 1.61 m/s 250.52 Deg 1.89 µg/m3 0.68 µg/m3
2022-07-23 21:00 18.37 µg/m3 0.32 µg/m3 59.25 µg/m3 19.82 µg/m3 11.67 µg/m3 0.21 mg/m3 28.65 °C 60.16 % 1,017.15 mbar 1.96 m/s 249.72 Deg 2.61 µg/m3 0.73 µg/m3
2022-07-23 20:00 27.77 µg/m3 0.32 µg/m3 62.59 µg/m3 21.19 µg/m3 11.91 µg/m3 0.23 mg/m3 29.8 °C 44.35 % 1,016.69 mbar 2.23 m/s 250.45 Deg 3.56 µg/m3 0.79 µg/m3
2022-07-23 19:00 25.9 µg/m3 0.31 µg/m3 69.28 µg/m3 22.77 µg/m3 9.79 µg/m3 0.22 mg/m3 30.84 °C 37.21 % 1,016.56 mbar 2.82 m/s 254.63 Deg 3.35 µg/m3 0.52 µg/m3
2022-07-23 18:00 20.6 µg/m3 0.31 µg/m3 74.47 µg/m3 17.3 µg/m3 7.04 µg/m3 0.17 mg/m3 31.76 °C 32.76 % 1,016.35 mbar 3.03 m/s 255.35 Deg 2.89 µg/m3 0.42 µg/m3
2022-07-23 17:00 17.32 µg/m3 0.28 µg/m3 75.05 µg/m3 18.67 µg/m3 8.6 µg/m3 0.18 mg/m3 32.16 °C 38.12 % 1,016.58 mbar 2.73 m/s 249.33 Deg 3.18 µg/m3 0.42 µg/m3
2022-07-23 16:00 21.65 µg/m3 0.27 µg/m3 74.62 µg/m3 21.81 µg/m3 9.17 µg/m3 0.17 mg/m3 32.49 °C 40.53 % 1,016.69 mbar 2.84 m/s 256.93 Deg 2.87 µg/m3 0.37 µg/m3
2022-07-23 15:00 24.98 µg/m3 0.27 µg/m3 77.45 µg/m3 25.22 µg/m3 10.84 µg/m3 0.18 mg/m3 32.72 °C 41.87 % 1,016.71 mbar 2.99 m/s 260.13 Deg 2.91 µg/m3 0.47 µg/m3
2022-07-23 14:00 23.07 µg/m3 0.24 µg/m3 76.99 µg/m3 22.33 µg/m3 9.69 µg/m3 0.19 mg/m3 32.77 °C 41.01 % 1,016.88 mbar 2.76 m/s 254.55 Deg 2.82 µg/m3 3.36 µg/m3
2022-07-23 13:00 20.55 µg/m3 0.26 µg/m3 78.39 µg/m3 29.88 µg/m3 11.07 µg/m3 0.2 mg/m3 32.75 °C 41.29 % 1,017.17 mbar 2.34 m/s 260.67 Deg 3.78 µg/m3 48.29 µg/m3
2022-07-23 10:00 20.85 µg/m3 0.24 µg/m3 80.97 µg/m3 32.16 µg/m3 13.99 µg/m3 0.23 mg/m3 31.76 °C 45.29 % 1,017.31 mbar 1.67 m/s 252.2 Deg 4.22 µg/m3 0 µg/m3
2022-07-23 09:00 21.23 µg/m3 0.23 µg/m3 72.22 µg/m3 45.43 µg/m3 15.58 µg/m3 0.23 mg/m3 30.64 °C 54.19 % 1,017.29 mbar 1.44 m/s 238.97 Deg 4.67 µg/m3 0 µg/m3
2022-07-23 08:00 30.23 µg/m3 0.27 µg/m3 53.15 µg/m3 52.88 µg/m3 17.26 µg/m3 0.27 mg/m3 29.08 °C 62.67 % 1,017.25 mbar 1.34 m/s 248.62 Deg 6.51 µg/m3 1.21 µg/m3
2022-07-23 07:00 27.67 µg/m3 0.25 µg/m3 41.88 µg/m3 37.92 µg/m3 21.39 µg/m3 0.25 mg/m3 27.19 °C 76.99 % 1,016.91 mbar 1.17 m/s 227.78 Deg 4.28 µg/m3 0.84 µg/m3
2022-07-23 06:00 28.6 µg/m3 0.23 µg/m3 31.99 µg/m3 24.39 µg/m3 16.68 µg/m3 0.24 mg/m3 26.2 °C 82.28 % 1,016.73 mbar 0.79 m/s 227.69 Deg 4.61 µg/m3 0.84 µg/m3
2022-07-23 05:00 26.35 µg/m3 0.23 µg/m3 30.29 µg/m3 22.63 µg/m3 16.01 µg/m3 0.21 mg/m3 26.15 °C 78.89 % 1,016.53 mbar 0.98 m/s 219.05 Deg 1.14 µg/m3 1 µg/m3
2022-07-23 04:00 26.63 µg/m3 0.23 µg/m3 42.14 µg/m3 23.63 µg/m3 14.75 µg/m3 0.21 mg/m3 26.82 °C 68.47 % 1,016.42 mbar 0.7 m/s 222.47 Deg 0.4 µg/m3 0.84 µg/m3
2022-07-23 03:00 18.42 µg/m3 0.19 µg/m3 46.56 µg/m3 22.86 µg/m3 14.14 µg/m3 0.21 mg/m3 26.81 °C 68.56 % 1,016.56 mbar 0.88 m/s 225.4 Deg 0.25 µg/m3 0.63 µg/m3
2022-07-23 02:00 17.12 µg/m3 0.17 µg/m3 45.17 µg/m3 19.57 µg/m3 14.02 µg/m3 0.22 mg/m3 27.12 °C 76.06 % 1,016.63 mbar 0.72 m/s 236.15 Deg 0.44 µg/m3 0.79 µg/m3
2022-07-23 01:00 11.77 µg/m3 0.19 µg/m3 53.69 µg/m3 18.09 µg/m3 12.96 µg/m3 0.2 mg/m3 27.46 °C 75.86 % 1,016.77 mbar 0.72 m/s 223.82 Deg 0.12 µg/m3 0.47 µg/m3
2022-07-23 00:00 16.06 µg/m3 0.19 µg/m3 52.64 µg/m3 17.04 µg/m3 12.14 µg/m3 0.23 mg/m3 27.67 °C 75.23 % 1,016.87 mbar 0.69 m/s 267.77 Deg 0.86 µg/m3 0.68 µg/m3
2022-07-22 23:00 17.71 µg/m3 0.23 µg/m3 55.18 µg/m3 16.74 µg/m3 11.72 µg/m3 0.23 mg/m3 27.9 °C 73.99 % 1,017.07 mbar 0.87 m/s 275.92 Deg 1.42 µg/m3 0.31 µg/m3
2022-07-22 22:00 15.99 µg/m3 0.25 µg/m3 57.15 µg/m3 18.83 µg/m3 12.83 µg/m3 0.24 mg/m3 28.06 °C 74 % 1,016.96 mbar 1.08 m/s 247.68 Deg 1.85 µg/m3 0.37 µg/m3
2022-07-22 21:00 21.22 µg/m3 0.24 µg/m3 53.64 µg/m3 20.15 µg/m3 12.45 µg/m3 0.26 mg/m3 28.41 °C 72.12 % 1,016.53 mbar 1.29 m/s 269.25 Deg 4.05 µg/m3 0.89 µg/m3
2022-07-22 20:00 26.35 µg/m3 0.27 µg/m3 53.22 µg/m3 23.63 µg/m3 13.26 µg/m3 0.35 mg/m3 29.07 °C 68.75 % 1,016.04 mbar 1.58 m/s 228.73 Deg 6.2 µg/m3 0.63 µg/m3
2022-07-22 19:00 32.59 µg/m3 0.43 µg/m3 55.35 µg/m3 19.93 µg/m3 11.69 µg/m3 0.47 mg/m3 29.45 °C 69.57 % 1,015.93 mbar 1.62 m/s 108.97 Deg 20.01 µg/m3 1.21 µg/m3
2022-07-22 18:00 29.73 µg/m3 0.38 µg/m3 66.37 µg/m3 19.62 µg/m3 11.62 µg/m3 0.4 mg/m3 29.69 °C 69.33 % 1,015.89 mbar 2.13 m/s 33.27 Deg 20.14 µg/m3 1.36 µg/m3
2022-07-22 17:00 39.59 µg/m3 0.36 µg/m3 76.43 µg/m3 17.88 µg/m3 11.29 µg/m3 0.42 mg/m3 29.78 °C 67.81 % 1,015.87 mbar 2.7 m/s 44.27 Deg 16.35 µg/m3 0.47 µg/m3
2022-07-22 16:00 34.3 µg/m3 0.41 µg/m3 78.57 µg/m3 17.88 µg/m3 11.9 µg/m3 0.37 mg/m3 29.12 °C 72.83 % 1,015.87 mbar 3.45 m/s 59.43 Deg 21.33 µg/m3 1.47 µg/m3
2022-07-22 15:00 26.47 µg/m3 0.43 µg/m3 75.01 µg/m3 16.45 µg/m3 11.66 µg/m3 0.43 mg/m3 28.7 °C 76.27 % 1,016.18 mbar 3.69 m/s 62.48 Deg 23.79 µg/m3 1.1 µg/m3
2022-07-22 14:00 25.8 µg/m3 0.39 µg/m3 76.21 µg/m3 16.79 µg/m3 11.51 µg/m3 0.38 mg/m3 29 °C 75.48 % 1,016.42 mbar 3.39 m/s 57.58 Deg 24.84 µg/m3 1.36 µg/m3
2022-07-22 13:00 27.52 µg/m3 0.42 µg/m3 73.61 µg/m3 20 µg/m3 12.12 µg/m3 0.44 mg/m3 28.83 °C 76.48 % 1,016.63 mbar 3.16 m/s 57.82 Deg 22 µg/m3 1 µg/m3
2022-07-22 12:00 25.32 µg/m3 0.49 µg/m3 69.07 µg/m3 17.96 µg/m3 11.72 µg/m3 0.39 mg/m3 28.43 °C 77.57 % 1,016.81 mbar 3.82 m/s 59.45 Deg 25.69 µg/m3 0.52 µg/m3
2022-07-22 11:00 28.98 µg/m3 0.51 µg/m3 68.04 µg/m3 21.94 µg/m3 13.06 µg/m3 0.42 mg/m3 29.23 °C 73.1 % 1,016.78 mbar 2.98 m/s 43.9 Deg 25.79 µg/m3 0.89 µg/m3
2022-07-22 10:00 28.23 µg/m3 0.45 µg/m3 70.48 µg/m3 34.55 µg/m3 16.84 µg/m3 0.37 mg/m3 29.01 °C 72.02 % 1,016.71 mbar 2.09 m/s 40.7 Deg 24.76 µg/m3 0.73 µg/m3
2022-07-22 09:00 40.24 µg/m3 0.46 µg/m3 60.21 µg/m3 39.1 µg/m3 20.38 µg/m3 0.42 mg/m3 28.46 °C 73.62 % 1,016.54 mbar 1.71 m/s 39.67 Deg 24.85 µg/m3 1.05 µg/m3
2022-07-22 08:00 31.5 µg/m3 0.3 µg/m3 57.51 µg/m3 51.66 µg/m3 21.18 µg/m3 0.37 mg/m3 28.21 °C 72.22 % 1,016.21 mbar 1 m/s 221.63 Deg 17.42 µg/m3 1.05 µg/m3
2022-07-22 07:00 43.35 µg/m3 0.41 µg/m3 36.46 µg/m3 33.37 µg/m3 22.18 µg/m3 0.38 mg/m3 27.31 °C 76.95 % 1,015.85 mbar 1.08 m/s 260.83 Deg 12.61 µg/m3 1.89 µg/m3
2022-07-22 06:00 46.59 µg/m3 0.32 µg/m3 20.05 µg/m3 34.58 µg/m3 23.45 µg/m3 0.41 mg/m3 26.49 °C 74.01 % 1,015.58 mbar 0.87 m/s 231.37 Deg 10.29 µg/m3 1 µg/m3
2022-07-22 05:00 24.36 µg/m3 0.05 µg/m3 47.92 µg/m3 24.95 µg/m3 18.31 µg/m3 0.2 mg/m3 26.56 °C 74.41 % 1,015.31 mbar 0.71 m/s 244.75 Deg 1.32 µg/m3 0.42 µg/m3
2022-07-22 04:00 11.65 µg/m3 0.09 µg/m3 68.87 µg/m3 21.87 µg/m3 16.53 µg/m3 0.16 mg/m3 26.73 °C 73.67 % 1,015.17 mbar 0.92 m/s 255.67 Deg 0.2 µg/m3 0.21 µg/m3
2022-07-22 03:00 8.3 µg/m3 0.11 µg/m3 68.13 µg/m3 20.69 µg/m3 14.51 µg/m3 0.16 mg/m3 27.05 °C 69.89 % 1,015.30 mbar 0.85 m/s 244.25 Deg 0.11 µg/m3 0.42 µg/m3
2022-07-22 02:00 8.58 µg/m3 0.08 µg/m3 56.2 µg/m3 22.3 µg/m3 15.67 µg/m3 0.18 mg/m3 27.27 °C 71.24 % 1,015.49 mbar 0.76 m/s 247.75 Deg 0.02 µg/m3 0.58 µg/m3
2022-07-22 01:00 11.76 µg/m3 0.13 µg/m3 57.15 µg/m3 24 µg/m3 15.57 µg/m3 0.2 mg/m3 27.45 °C 70.63 % 1,015.93 mbar 0.84 m/s 230.83 Deg 0.22 µg/m3 0.58 µg/m3
2022-07-22 00:00 13.7 µg/m3 0.12 µg/m3 60.59 µg/m3 23.71 µg/m3 15.04 µg/m3 0.21 mg/m3 27.76 °C 69.31 % 1,016.24 mbar 0.75 m/s 240.88 Deg 0.28 µg/m3 0.37 µg/m3
2022-07-21 23:00 15.11 µg/m3 0.17 µg/m3 66.66 µg/m3 23.32 µg/m3 14.8 µg/m3 0.22 mg/m3 27.88 °C 68.53 % 1,016.41 mbar 0.93 m/s 300.85 Deg 2.64 µg/m3 0.31 µg/m3
2022-07-21 22:00 16.63 µg/m3 0.18 µg/m3 68.83 µg/m3 24.77 µg/m3 15.64 µg/m3 0.22 mg/m3 28.13 °C 66.83 % 1,016.44 mbar 0.95 m/s 278.83 Deg 0.75 µg/m3 0 µg/m3
2022-07-21 21:00 18.81 µg/m3 0.21 µg/m3 67.65 µg/m3 23.18 µg/m3 13.79 µg/m3 0.26 mg/m3 28.21 °C 66.74 % 1,016.15 mbar 0.94 m/s 314.08 Deg 4.59 µg/m3 0 µg/m3
2022-07-21 20:00 19.44 µg/m3 0.21 µg/m3 66.97 µg/m3 22.69 µg/m3 13.03 µg/m3 0.25 mg/m3 28.35 °C 65.47 % 1,015.84 mbar 1.53 m/s 317.07 Deg 4.92 µg/m3 0.42 µg/m3
2022-07-21 19:00 24.35 µg/m3 0.34 µg/m3 68.99 µg/m3 22.44 µg/m3 12.39 µg/m3 0.31 mg/m3 28.9 °C 62.02 % 1,015.68 mbar 1.81 m/s 252.43 Deg 12.49 µg/m3 0.42 µg/m3
2022-07-21 18:00 30.18 µg/m3 0.35 µg/m3 84.09 µg/m3 20.2 µg/m3 13.04 µg/m3 0.35 mg/m3 29.09 °C 63.18 % 1,015.45 mbar 2.47 m/s 39.5 Deg 16.09 µg/m3 1.15 µg/m3
2022-07-21 17:00 33.37 µg/m3 0.42 µg/m3 89.07 µg/m3 20.4 µg/m3 13.23 µg/m3 0.37 mg/m3 29.42 °C 61.66 % 1,015.80 mbar 2.66 m/s 42.08 Deg 19.2 µg/m3 1.1 µg/m3
2022-07-21 16:00 22.29 µg/m3 0.35 µg/m3 99.6 µg/m3 20.33 µg/m3 13.87 µg/m3 0.35 mg/m3 29.08 °C 63.82 % 1,016.18 mbar 3.34 m/s 50.67 Deg 18.15 µg/m3 1.05 µg/m3
2022-07-21 15:00 27.15 µg/m3 0.39 µg/m3 100.82 µg/m3 20.53 µg/m3 14.17 µg/m3 0.33 mg/m3 29.03 °C 65.2 % 1,016.39 mbar 3.52 m/s 40.12 Deg 14.37 µg/m3 0.47 µg/m3
2022-07-21 14:00 25.2 µg/m3 0.44 µg/m3 96.83 µg/m3 22.2 µg/m3 14.97 µg/m3 0.31 mg/m3 29.04 °C 63.55 % 1,016.57 mbar 3.36 m/s 47.85 Deg 19.07 µg/m3 0 µg/m3
2022-07-21 13:00 28.05 µg/m3 0.46 µg/m3 87.9 µg/m3 29.46 µg/m3 21.4 µg/m3 0.31 mg/m3 29.45 °C 57.41 % 1,016.66 mbar 2.89 m/s 42.68 Deg 24.38 µg/m3 0.42 µg/m3
2022-07-21 12:00 26.37 µg/m3 0.41 µg/m3 87.52 µg/m3 26.66 µg/m3 19.44 µg/m3 0.32 mg/m3 29.46 °C 55.5 % 1,017.01 mbar 3.22 m/s 50.58 Deg 23.02 µg/m3 0 µg/m3
2022-07-21 11:00 26.93 µg/m3 0.55 µg/m3 76.83 µg/m3 25.76 µg/m3 16.3 µg/m3 0.34 mg/m3 29.7 °C 48.11 % 1,017.22 mbar 2.12 m/s 56.53 Deg 34.85 µg/m3 0.47 µg/m3
2022-07-21 10:00 26.28 µg/m3 0.52 µg/m3 83.6 µg/m3 24.71 µg/m3 14.89 µg/m3 0.33 mg/m3 28.69 °C 60 % 1,017.24 mbar 2.61 m/s 39.68 Deg 25.95 µg/m3 1.05 µg/m3
2022-07-21 09:00 30.54 µg/m3 0.45 µg/m3 76.89 µg/m3 27.52 µg/m3 15.12 µg/m3 0.39 mg/m3 28.44 °C 68.53 % 1,017.23 mbar 1.63 m/s 108.17 Deg 24.54 µg/m3 0.63 µg/m3
2022-07-21 08:00 37.14 µg/m3 0.45 µg/m3 69.09 µg/m3 32.76 µg/m3 16.44 µg/m3 0.39 mg/m3 28.19 °C 67.67 % 1,017.14 mbar 1.71 m/s 93.03 Deg 22.86 µg/m3 0.24 µg/m3
2022-07-21 07:00 41.02 µg/m3 0.27 µg/m3 58.5 µg/m3 42.92 µg/m3 16.56 µg/m3 0.33 mg/m3 27.72 °C 66.96 % 1,016.65 mbar 1.03 m/s 272.27 Deg 7.69 µg/m3 0.58 µg/m3
2022-07-21 06:00 46.03 µg/m3 0.32 µg/m3 44 µg/m3 31.75 µg/m3 17.58 µg/m3 0.39 mg/m3 26.93 °C 72.27 % 1,016.33 mbar 0.72 m/s 259.22 Deg 8.52 µg/m3 0.47 µg/m3
2022-07-21 05:00 21.81 µg/m3 0.24 µg/m3 68.8 µg/m3 21.85 µg/m3 14.71 µg/m3 0.2 mg/m3 26.8 °C 72.27 % 1,016.15 mbar 0.9 m/s 265.37 Deg 0.53 µg/m3 0.14 µg/m3
2022-07-21 04:00 13.48 µg/m3 0.17 µg/m3 79.47 µg/m3 24.59 µg/m3 16.33 µg/m3 0.18 mg/m3 27.03 °C 70.99 % 1,016.07 mbar 0.5 m/s 282.24 Deg 0.61 µg/m3 0 µg/m3
2022-07-21 03:00 8.46 µg/m3 0.22 µg/m3 86.21 µg/m3 25.57 µg/m3 16.83 µg/m3 0.17 mg/m3 27.08 °C 71.54 % 1,016.27 mbar 0.53 m/s 240.74 Deg 0.01 µg/m3 0 µg/m3
2022-07-21 02:00 9.76 µg/m3 0.22 µg/m3 89.34 µg/m3 25.52 µg/m3 16.03 µg/m3 0.17 mg/m3 27.19 °C 71.87 % 1,016.42 mbar 0.71 m/s 211.03 Deg 0.03 µg/m3 0 µg/m3
2022-07-21 01:00 24.28 µg/m3 0.28 µg/m3 82.03 µg/m3 19.2 µg/m3 13.48 µg/m3 0.26 mg/m3 27.23 °C 73.53 % 1,016.68 mbar 0.62 m/s 103.69 Deg 6.39 µg/m3 0 µg/m3
2022-07-21 00:00 21.37 µg/m3 0.36 µg/m3 87.2 µg/m3 17.44 µg/m3 12.38 µg/m3 0.24 mg/m3 27.24 °C 74.18 % 1,017.02 mbar 1.22 m/s 55.35 Deg 7.61 µg/m3 0 µg/m3
2022-07-20 23:00 31.09 µg/m3 0.43 µg/m3 87.16 µg/m3 18.09 µg/m3 12.68 µg/m3 0.31 mg/m3 27.36 °C 73.66 % 1,017.29 mbar 1.36 m/s 69.7 Deg 11.3 µg/m3 0.63 µg/m3
2022-07-20 22:00 27.48 µg/m3 0.37 µg/m3 96.11 µg/m3 18.58 µg/m3 12.54 µg/m3 0.32 mg/m3 27.43 °C 72.59 % 1,017.29 mbar 1.74 m/s 61.55 Deg 15.31 µg/m3 0 µg/m3
2022-07-20 21:00 34.31 µg/m3 0.4 µg/m3 84.9 µg/m3 18.69 µg/m3 12.17 µg/m3 0.38 mg/m3 27.56 °C 71.03 % 1,016.95 mbar 2.06 m/s 63.67 Deg 20.9 µg/m3 0 µg/m3
2022-07-20 20:00 28.5 µg/m3 0.47 µg/m3 79.83 µg/m3 19.26 µg/m3 12.32 µg/m3 0.43 mg/m3 27.7 °C 69.79 % 1,016.70 mbar 2.25 m/s 61.4 Deg 25.3 µg/m3 0 µg/m3
2022-07-20 19:00 31.05 µg/m3 0.47 µg/m3 85.22 µg/m3 18.52 µg/m3 12.13 µg/m3 0.35 mg/m3 28.22 °C 66.25 % 1,016.54 mbar 2.55 m/s 62.52 Deg 22.59 µg/m3 0.73 µg/m3
2022-07-20 18:00 32.18 µg/m3 0.47 µg/m3 83.7 µg/m3 17.83 µg/m3 11.79 µg/m3 0.36 mg/m3 28.61 °C 63.85 % 1,016.47 mbar 3.26 m/s 53.43 Deg 20.55 µg/m3 0 µg/m3
2022-07-20 17:00 23.57 µg/m3 0.44 µg/m3 83.56 µg/m3 20.23 µg/m3 11.8 µg/m3 0.38 mg/m3 29.22 °C 62.04 % 1,016.32 mbar 3.41 m/s 36.05 Deg 20.03 µg/m3 0 µg/m3
2022-07-20 16:00 33.19 µg/m3 0.48 µg/m3 100.01 µg/m3 21.09 µg/m3 12.52 µg/m3 0.38 mg/m3 29.49 °C 60.76 % 1,016.68 mbar 3.41 m/s 39.98 Deg 16.74 µg/m3 0.24 µg/m3
2022-07-20 15:00 26.08 µg/m3 0.51 µg/m3 94.23 µg/m3 17.8 µg/m3 11.22 µg/m3 0.32 mg/m3 28.93 °C 61.29 % 1,017.07 mbar 4.1 m/s 52.13 Deg 22.62 µg/m3 0.47 µg/m3
2022-07-20 14:00 23.87 µg/m3 0.49 µg/m3 93.02 µg/m3 17.81 µg/m3 11.49 µg/m3 0.33 mg/m3 28.55 °C 62.36 % 1,017.43 mbar 4.62 m/s 53.3 Deg 19.9 µg/m3 0.65 µg/m3
2022-07-20 13:00 25.74 µg/m3 0.48 µg/m3 96.81 µg/m3 19.85 µg/m3 11.95 µg/m3 0.31 mg/m3 28.41 °C 63.76 % 1,017.83 mbar 4.46 m/s 52.87 Deg 20.16 µg/m3 0.42 µg/m3
2022-07-20 12:00 24.02 µg/m3 0.41 µg/m3 92.94 µg/m3 21.77 µg/m3 11.95 µg/m3 0.34 mg/m3 28.39 °C 62.61 % 1,018.10 mbar 3.56 m/s 51.82 Deg 23.56 µg/m3 0.73 µg/m3
2022-07-20 11:00 26.55 µg/m3 0.56 µg/m3 91.23 µg/m3 19.59 µg/m3 12.12 µg/m3 0.35 mg/m3 28.28 °C 61.52 % 1,017.96 mbar 3.72 m/s 51.13 Deg 29.78 µg/m3 0.26 µg/m3
2022-07-20 10:00 30.67 µg/m3 0.52 µg/m3 88.09 µg/m3 22.12 µg/m3 13.94 µg/m3 0.37 mg/m3 28.41 °C 57.38 % 1,017.82 mbar 3.21 m/s 52.03 Deg 29.19 µg/m3 0 µg/m3
2022-07-20 09:00 28.93 µg/m3 0.61 µg/m3 83.63 µg/m3 19.21 µg/m3 12.13 µg/m3 0.35 mg/m3 27.79 °C 64.99 % 1,017.42 mbar 3.18 m/s 54.4 Deg 31.69 µg/m3 0.45 µg/m3
2022-07-20 08:00 29.46 µg/m3 0.54 µg/m3 72.76 µg/m3 18.99 µg/m3 11.67 µg/m3 0.39 mg/m3 27.29 °C 71.33 % 1,017.16 mbar 3.59 m/s 52.22 Deg 23.83 µg/m3 0.45 µg/m3
2022-07-20 07:00 30.2 µg/m3 0.51 µg/m3 60.3 µg/m3 17.98 µg/m3 12.22 µg/m3 0.47 mg/m3 27.12 °C 75.56 % 1,016.78 mbar 2.92 m/s 55.82 Deg 24.52 µg/m3 1.05 µg/m3
2022-07-20 06:00 26.25 µg/m3 0.46 µg/m3 61.05 µg/m3 18.11 µg/m3 12.89 µg/m3 0.36 mg/m3 27.19 °C 74.03 % 1,016.34 mbar 1.15 m/s 46.2 Deg 16.22 µg/m3 1.28 µg/m3
2022-07-20 05:00 24.68 µg/m3 0.51 µg/m3 62.74 µg/m3 17.49 µg/m3 12.67 µg/m3 0.4 mg/m3 26.96 °C 73.1 % 1,016.00 mbar 0.91 m/s 57.88 Deg 10.85 µg/m3 2.68 µg/m3
2022-07-20 04:00 17.96 µg/m3 0.41 µg/m3 77.83 µg/m3 16.96 µg/m3 12.15 µg/m3 0.22 mg/m3 27.11 °C 71.78 % 1,015.82 mbar 0.7 m/s 70.08 Deg 5.87 µg/m3 0.24 µg/m3
2022-07-20 03:00 15.7 µg/m3 0.26 µg/m3 83.42 µg/m3 19.83 µg/m3 12.18 µg/m3 0.2 mg/m3 27.2 °C 70.9 % 1,015.78 mbar 0.73 m/s 61.17 Deg 2.52 µg/m3 0 µg/m3
2022-07-20 02:00 17.64 µg/m3 0.29 µg/m3 83.81 µg/m3 18.28 µg/m3 12.08 µg/m3 0.21 mg/m3 27.34 °C 69.04 % 1,016.08 mbar 1.04 m/s 57.83 Deg 3.6 µg/m3 0 µg/m3
2022-07-20 01:00 35.82 µg/m3 0.39 µg/m3 70.24 µg/m3 22.1 µg/m3 14.07 µg/m3 0.27 mg/m3 27.45 °C 69.14 % 1,016.35 mbar 0.98 m/s 52.57 Deg 7.67 µg/m3 0.73 µg/m3
2022-07-20 00:00 44.97 µg/m3 0.41 µg/m3 57.03 µg/m3 24.6 µg/m3 15.23 µg/m3 0.34 mg/m3 27.52 °C 69.94 % 1,016.47 mbar 1.17 m/s 54.27 Deg 12.27 µg/m3 0.58 µg/m3
2022-07-19 23:00 40.39 µg/m3 0.45 µg/m3 58.44 µg/m3 24.1 µg/m3 15.59 µg/m3 0.32 mg/m3 27.55 °C 70.77 % 1,016.56 mbar 1.37 m/s 52.15 Deg 15.96 µg/m3 0 µg/m3
2022-07-19 22:00 35.36 µg/m3 0.46 µg/m3 64.8 µg/m3 24.77 µg/m3 14.93 µg/m3 0.35 mg/m3 27.66 °C 69.86 % 1,016.54 mbar 1.46 m/s 50.93 Deg 19.68 µg/m3 0.31 µg/m3
2022-07-19 21:00 32.53 µg/m3 0.5 µg/m3 72.25 µg/m3 23.76 µg/m3 15.1 µg/m3 0.36 mg/m3 27.6 °C 72.3 % 1,016.35 mbar 1.68 m/s 55.78 Deg 20.71 µg/m3 0.68 µg/m3
2022-07-19 20:00 28.48 µg/m3 0.48 µg/m3 85.66 µg/m3 21.91 µg/m3 14.77 µg/m3 0.44 mg/m3 27.78 °C 71.86 % 1,016.12 mbar 2.53 m/s 55.75 Deg 23.19 µg/m3 2.23 µg/m3
2022-07-19 19:00 41.7 µg/m3 0.52 µg/m3 87.26 µg/m3 23.33 µg/m3 15.25 µg/m3 0.44 mg/m3 28.16 °C 69.63 % 1,016.13 mbar 2.43 m/s 59.03 Deg 26.13 µg/m3 0.91 µg/m3
2022-07-19 18:00 32.32 µg/m3 0.47 µg/m3 97.36 µg/m3 21.35 µg/m3 14.41 µg/m3 0.39 mg/m3 28.38 °C 70.83 % 1,016.04 mbar 3.39 m/s 51.87 Deg 20.93 µg/m3 0.65 µg/m3
2022-07-19 17:00 34.91 µg/m3 0.48 µg/m3 103.36 µg/m3 23.92 µg/m3 15.81 µg/m3 0.38 mg/m3 28.65 °C 71.32 % 1,016.06 mbar 3.62 m/s 50.6 Deg 23.96 µg/m3 0.28 µg/m3
2022-07-19 16:00 32.85 µg/m3 0.45 µg/m3 109.53 µg/m3 22.53 µg/m3 15.1 µg/m3 0.39 mg/m3 28.78 °C 71.29 % 1,016.13 mbar 3.49 m/s 51.58 Deg 20.37 µg/m3 0.24 µg/m3
2022-07-19 15:00 22.85 µg/m3 0.46 µg/m3 94.82 µg/m3 20.98 µg/m3 14.03 µg/m3 0.34 mg/m3 28.51 °C 72.25 % 1,016.41 mbar 3.41 m/s 51.63 Deg 19.62 µg/m3 0.24 µg/m3
2022-07-19 14:00 25.36 µg/m3 0.44 µg/m3 96.17 µg/m3 21.33 µg/m3 13.41 µg/m3 0.36 mg/m3 28.64 °C 68.36 % 1,016.81 mbar 3.34 m/s 60.28 Deg 24 µg/m3 1.36 µg/m3
2022-07-19 13:00 31.91 µg/m3 0.52 µg/m3 90.55 µg/m3 22.81 µg/m3 13.91 µg/m3 0.37 mg/m3 28.6 °C 69.93 % 1,017.17 mbar 2.89 m/s 49.92 Deg 23.98 µg/m3 0 µg/m3
2022-07-19 12:00 25.94 µg/m3 0.41 µg/m3 100.24 µg/m3 20.42 µg/m3 13.37 µg/m3 0.39 mg/m3 28.18 °C 72.9 % 1,017.50 mbar 3.5 m/s 61.25 Deg 22.71 µg/m3 0.26 µg/m3
2022-07-19 11:00 35.26 µg/m3 0.47 µg/m3 98.75 µg/m3 20.46 µg/m3 13.61 µg/m3 0.36 mg/m3 28.36 °C 70.28 % 1,017.45 mbar 3.56 m/s 64.03 Deg 24.26 µg/m3 0.84 µg/m3
2022-07-19 10:00 21.14 µg/m3 0.42 µg/m3 101.35 µg/m3 21.85 µg/m3 13.39 µg/m3 0.36 mg/m3 28.53 °C 64.94 % 1,017.25 mbar 4.22 m/s 54.27 Deg 24.31 µg/m3 0 µg/m3
2022-07-19 09:00 33.04 µg/m3 0.51 µg/m3 93.37 µg/m3 25.21 µg/m3 14.36 µg/m3 0.34 mg/m3 29.04 °C 57.02 % 1,017.01 mbar 3.94 m/s 53.12 Deg 25.5 µg/m3 0.68 µg/m3
2022-07-19 08:00 39.22 µg/m3 0.55 µg/m3 64.07 µg/m3 33.67 µg/m3 13.77 µg/m3 0.42 mg/m3 29.12 °C 59.97 % 1,016.91 mbar 2.48 m/s 39.85 Deg 28.36 µg/m3 0 µg/m3
2022-07-19 07:00 53.39 µg/m3 0.6 µg/m3 42.54 µg/m3 42.96 µg/m3 14.68 µg/m3 0.48 mg/m3 28.75 °C 63.7 % 1,016.70 mbar 1.14 m/s 30.72 Deg 30.06 µg/m3 0.47 µg/m3
2022-07-19 06:00 55.03 µg/m3 0.41 µg/m3 30.57 µg/m3 32.61 µg/m3 13.14 µg/m3 0.41 mg/m3 28.09 °C 62.55 % 1,016.31 mbar 0.35 m/s 230.05 Deg 15.66 µg/m3 1.63 µg/m3
2022-07-19 05:00 40.67 µg/m3 0.31 µg/m3 42.23 µg/m3 24.19 µg/m3 12.02 µg/m3 0.22 mg/m3 27.69 °C 62.34 % 1,016.06 mbar 0.21 m/s 196.34 Deg 8.9 µg/m3 0.31 µg/m3
2022-07-19 04:00 13.72 µg/m3 0.26 µg/m3 83.79 µg/m3 18.06 µg/m3 12.09 µg/m3 0.16 mg/m3 27.48 °C 65.86 % 1,016.07 mbar 0.44 m/s 225.1 Deg 0.01 µg/m3 0 µg/m3
2022-07-19 03:00 10.89 µg/m3 0.2 µg/m3 83.45 µg/m3 15.76 µg/m3 12.31 µg/m3 0.16 mg/m3 27.47 °C 73.36 % 1,016.09 mbar 0.58 m/s 316.55 Deg 0.54 µg/m3 0 µg/m3
2022-07-19 02:00 7.56 µg/m3 0.17 µg/m3 97.94 µg/m3 15.06 µg/m3 11.64 µg/m3 0.15 mg/m3 27.47 °C 75.49 % 1,016.23 mbar 0.91 m/s 289.53 Deg -0.04 µg/m3 0.21 µg/m3
2022-07-19 01:00 13.96 µg/m3 0.22 µg/m3 98.26 µg/m3 16.8 µg/m3 12.95 µg/m3 0.18 mg/m3 27.6 °C 77.08 % 1,016.66 mbar 1.06 m/s 171.07 Deg 1.58 µg/m3 0.16 µg/m3
2022-07-19 00:00 19.4 µg/m3 0.25 µg/m3 93.22 µg/m3 16.16 µg/m3 11.97 µg/m3 0.23 mg/m3 27.96 °C 73.31 % 1,016.98 mbar 1.02 m/s 16.65 Deg 3.22 µg/m3 0.31 µg/m3
2022-07-18 23:00 21.66 µg/m3 0.27 µg/m3 95.83 µg/m3 16.63 µg/m3 11.33 µg/m3 0.24 mg/m3 28.2 °C 72.63 % 1,017.23 mbar 1.02 m/s 184.35 Deg 5.59 µg/m3 0.16 µg/m3
2022-07-18 22:00 19.65 µg/m3 0.28 µg/m3 94.32 µg/m3 17.56 µg/m3 11.01 µg/m3 0.26 mg/m3 28.27 °C 70.42 % 1,017.27 mbar 1.23 m/s 327.72 Deg 2.54 µg/m3 0.31 µg/m3
2022-07-18 21:00 18.02 µg/m3 0.23 µg/m3 95.97 µg/m3 18.95 µg/m3 10.47 µg/m3 0.21 mg/m3 28.28 °C 69.41 % 1,017.01 mbar 1.81 m/s 306.13 Deg 1.01 µg/m3 0.42 µg/m3
2022-07-18 20:00 22.67 µg/m3 0.26 µg/m3 97.87 µg/m3 19.73 µg/m3 10.62 µg/m3 0.23 mg/m3 28.77 °C 67.36 % 1,016.75 mbar 1.64 m/s 318.03 Deg 2.13 µg/m3 1 µg/m3
2022-07-18 19:00 43.56 µg/m3 0.46 µg/m3 91.28 µg/m3 22.11 µg/m3 11.56 µg/m3 0.37 mg/m3 29.74 °C 57.67 % 1,016.51 mbar 1.3 m/s 11.9 Deg 16.48 µg/m3 1.15 µg/m3
2022-07-18 18:00 45.37 µg/m3 0.52 µg/m3 88.57 µg/m3 18.91 µg/m3 10.72 µg/m3 0.41 mg/m3 30.21 °C 51.79 % 1,016.30 mbar 2.18 m/s 45.73 Deg 24.8 µg/m3 0.31 µg/m3
2022-07-18 17:00 33.52 µg/m3 0.5 µg/m3 93.07 µg/m3 17.37 µg/m3 9.95 µg/m3 0.43 mg/m3 29.96 °C 58.72 % 1,016.49 mbar 2.58 m/s 51.92 Deg 23.02 µg/m3 1.47 µg/m3
2022-07-18 16:00 34 µg/m3 0.44 µg/m3 98.66 µg/m3 16.64 µg/m3 9.61 µg/m3 0.44 mg/m3 29.93 °C 59.3 % 1,016.96 mbar 2.82 m/s 51.43 Deg 21.84 µg/m3 0.68 µg/m3
2022-07-18 15:00 30.62 µg/m3 0.33 µg/m3 106 µg/m3 18.98 µg/m3 11.4 µg/m3 0.35 mg/m3 29.9 °C 59.32 % 1,017.25 mbar 2.47 m/s 36.02 Deg 14.13 µg/m3 0.86 µg/m3
2022-07-18 14:00 35.18 µg/m3 0.48 µg/m3 97.31 µg/m3 18.1 µg/m3 11.28 µg/m3 0.39 mg/m3 29.23 °C 69.13 % 1,017.46 mbar 3.23 m/s 57.43 Deg 22.2 µg/m3 0.6 µg/m3
2022-07-18 13:00 27.37 µg/m3 0.53 µg/m3 87.46 µg/m3 17.91 µg/m3 10.93 µg/m3 0.39 mg/m3 29.09 °C 71.14 % 1,017.70 mbar 3.36 m/s 53.2 Deg 27.62 µg/m3 0.71 µg/m3
2022-07-18 12:00 39.82 µg/m3 0.57 µg/m3 78.49 µg/m3 20.29 µg/m3 10.63 µg/m3 0.43 mg/m3 29.75 °C 62.56 % 1,017.84 mbar 3.21 m/s 60.8 Deg 28.25 µg/m3 0.65 µg/m3
2022-07-18 11:00 33.31 µg/m3 0.49 µg/m3 64.06 µg/m3 18.64 µg/m3 9.42 µg/m3 0.29 mg/m3 29.17 °C 64.38 % 1,017.80 mbar 2.83 m/s 46.48 Deg 27.47 µg/m3 0.68 µg/m3
2022-07-18 10:00 39.22 µg/m3 0.61 µg/m3 69.81 µg/m3 24.46 µg/m3 12.19 µg/m3 0.34 mg/m3 29.26 °C 59.26 % 1,017.62 mbar 2.56 m/s 41.18 Deg 34.58 µg/m3 1.08 µg/m3
2022-07-18 09:00 40.73 µg/m3 0.63 µg/m3 60.82 µg/m3 69.97 µg/m3 18.17 µg/m3 0.35 mg/m3 29.55 °C 51.6 % 1,017.44 mbar 1.49 m/s 42.83 Deg 36.48 µg/m3 1.42 µg/m3
2022-07-18 08:00 44.44 µg/m3 0.55 µg/m3 51.52 µg/m3 32.33 µg/m3 10.82 µg/m3 0.39 mg/m3 28.56 °C 61.96 % 1,017.30 mbar 1.21 m/s 22.52 Deg 24.84 µg/m3 2.23 µg/m3
2022-07-18 07:00 71.39 µg/m3 0.82 µg/m3 23.78 µg/m3 54.35 µg/m3 15.09 µg/m3 0.53 mg/m3 27.62 °C 54.87 % 1,017.12 mbar 0.79 m/s 170.4 Deg 40.02 µg/m3 1.75 µg/m3
2022-07-18 06:00 64.75 µg/m3 0.5 µg/m3 16.21 µg/m3 48.35 µg/m3 14.02 µg/m3 0.36 mg/m3 26.29 °C 55.88 % 1,016.90 mbar 0.9 m/s 224.22 Deg 15.06 µg/m3 1.31 µg/m3
2022-07-18 05:00 50.19 µg/m3 0.36 µg/m3 19.13 µg/m3 29.88 µg/m3 11.96 µg/m3 0.24 mg/m3 26.37 °C 56.04 % 1,016.87 mbar 0.7 m/s 224.52 Deg 6.1 µg/m3 0.77 µg/m3
2022-07-18 04:00 27.99 µg/m3 0.31 µg/m3 46.29 µg/m3 22.49 µg/m3 10.11 µg/m3 0.21 mg/m3 26.7 °C 52.56 % 1,016.83 mbar 0.69 m/s 221.47 Deg 0.45 µg/m3 0 µg/m3
2022-07-18 03:00 19.03 µg/m3 0.22 µg/m3 39.74 µg/m3 24.83 µg/m3 13.42 µg/m3 0.2 mg/m3 26.35 °C 68.5 % 1,016.84 mbar 0.85 m/s 234 Deg 0.25 µg/m3 0 µg/m3
2022-07-18 02:00 19.13 µg/m3 0.26 µg/m3 41.27 µg/m3 19.27 µg/m3 12.28 µg/m3 0.19 mg/m3 26.92 °C 72.16 % 1,016.96 mbar 0.69 m/s 232.68 Deg 0.15 µg/m3 0 µg/m3
2022-07-18 01:00 12.38 µg/m3 0.2 µg/m3 74.43 µg/m3 15.99 µg/m3 8.08 µg/m3 0.16 mg/m3 27.22 °C 62.98 % 1,017.27 mbar 0.8 m/s 245.15 Deg 0.09 µg/m3 0 µg/m3
2022-07-18 00:00 19.35 µg/m3 0.21 µg/m3 67.89 µg/m3 12.9 µg/m3 8.92 µg/m3 0.27 mg/m3 26.93 °C 75.33 % 1,017.60 mbar 0.94 m/s 313.4 Deg 3.71 µg/m3 0 µg/m3
2022-07-17 23:00 16.5 µg/m3 0.2 µg/m3 75.94 µg/m3 18.98 µg/m3 10.49 µg/m3 0.22 mg/m3 27.17 °C 72.6 % 1,017.77 mbar 1.28 m/s 299.92 Deg 0.68 µg/m3 0.07 µg/m3
2022-07-17 22:00 9.82 µg/m3 0.25 µg/m3 84.68 µg/m3 18.87 µg/m3 9.56 µg/m3 0.18 mg/m3 27.43 °C 70.25 % 1,017.72 mbar 1.47 m/s 306.45 Deg 0.02 µg/m3 0.07 µg/m3
2022-07-17 21:00 6.72 µg/m3 0.23 µg/m3 86.62 µg/m3 21.33 µg/m3 10.11 µg/m3 0.18 mg/m3 27.52 °C 66.42 % 1,017.38 mbar 1.64 m/s 315.3 Deg 0.23 µg/m3 0.26 µg/m3
2022-07-17 20:00 9.79 µg/m3 0.23 µg/m3 77.52 µg/m3 22.61 µg/m3 10.28 µg/m3 0.19 mg/m3 27.81 °C 67.4 % 1,016.74 mbar 1.35 m/s 325.78 Deg 0.22 µg/m3 0.31 µg/m3
2022-07-17 19:00 12.62 µg/m3 0.25 µg/m3 84.27 µg/m3 19.3 µg/m3 8.03 µg/m3 0.16 mg/m3 28.49 °C 63.06 % 1,016.55 mbar 1.71 m/s 328.12 Deg 0.6 µg/m3 0.1 µg/m3
2022-07-17 18:00 15.87 µg/m3 0.27 µg/m3 84.76 µg/m3 17.14 µg/m3 7.08 µg/m3 0.22 mg/m3 29.39 °C 59.18 % 1,016.49 mbar 1.84 m/s 259.65 Deg 5.19 µg/m3 0.1 µg/m3
2022-07-17 17:00 19.83 µg/m3 0.35 µg/m3 89.55 µg/m3 16.73 µg/m3 7.55 µg/m3 0.28 mg/m3 29.7 °C 59.22 % 1,016.58 mbar 2.24 m/s 31.87 Deg 10.59 µg/m3 0.47 µg/m3
2022-07-17 16:00 17.31 µg/m3 0.35 µg/m3 101.05 µg/m3 14.2 µg/m3 7.71 µg/m3 0.4 mg/m3 28.99 °C 63.04 % 1,016.91 mbar 3.07 m/s 44.52 Deg 10.55 µg/m3 0.31 µg/m3
2022-07-17 15:00 15 µg/m3 0.33 µg/m3 97.59 µg/m3 10.92 µg/m3 6.9 µg/m3 0.26 mg/m3 28.47 °C 66.33 % 1,017.05 mbar 3.26 m/s 54.87 Deg 8.27 µg/m3 0.47 µg/m3
2022-07-17 14:00 15.27 µg/m3 0.28 µg/m3 96.42 µg/m3 9.6 µg/m3 6.55 µg/m3 0.22 mg/m3 28.14 °C 66.95 % 1,017.09 mbar 3.46 m/s 61.83 Deg 6.75 µg/m3 0.58 µg/m3
2022-07-17 13:00 10.97 µg/m3 0.31 µg/m3 100.42 µg/m3 12.17 µg/m3 8.22 µg/m3 0.21 mg/m3 28.39 °C 62.35 % 1,017.17 mbar 3.33 m/s 55.18 Deg 4.47 µg/m3 0.66 µg/m3
2022-07-17 12:00 17.67 µg/m3 0.36 µg/m3 92.11 µg/m3 14.81 µg/m3 9.3 µg/m3 0.27 mg/m3 28.85 °C 55.83 % 1,017.40 mbar 3.24 m/s 45.65 Deg 10.18 µg/m3 0.89 µg/m3
2022-07-17 11:00 7.95 µg/m3 0.3 µg/m3 93.65 µg/m3 11.53 µg/m3 6.89 µg/m3 0.18 mg/m3 28.87 °C 50.39 % 1,017.43 mbar 3.17 m/s 46.82 Deg 3.91 µg/m3 0.73 µg/m3
2022-07-17 10:00 20.33 µg/m3 0.44 µg/m3 83.75 µg/m3 14 µg/m3 7.55 µg/m3 0.27 mg/m3 28.69 °C 51.46 % 1,017.21 mbar 2.78 m/s 44.23 Deg 13.58 µg/m3 1.21 µg/m3
2022-07-17 09:00 27.83 µg/m3 0.42 µg/m3 76.7 µg/m3 18.56 µg/m3 9.45 µg/m3 0.37 mg/m3 28.74 °C 52.75 % 1,017.08 mbar 2.26 m/s 57.63 Deg 17.11 µg/m3 1.73 µg/m3
2022-07-17 08:00 31.42 µg/m3 0.42 µg/m3 63.25 µg/m3 23.39 µg/m3 9.61 µg/m3 0.36 mg/m3 28.87 °C 51.62 % 1,016.90 mbar 0.73 m/s 231.72 Deg 12.41 µg/m3 1.07 µg/m3
2022-07-17 07:00 28.32 µg/m3 0.35 µg/m3 43.7 µg/m3 247.21 µg/m3 37.88 µg/m3 0.34 mg/m3 26.85 °C 60.52 % 1,016.48 mbar 0.87 m/s 223.52 Deg 3.42 µg/m3 0 µg/m3
2022-07-17 06:00 43.67 µg/m3 0.36 µg/m3 22 µg/m3 61.07 µg/m3 13.61 µg/m3 0.32 mg/m3 25.72 °C 58.18 % 1,016.02 mbar 0.78 m/s 234.2 Deg 5.66 µg/m3 0 µg/m3
2022-07-17 05:00 45.28 µg/m3 0.27 µg/m3 18.97 µg/m3 23.11 µg/m3 10.19 µg/m3 0.21 mg/m3 25.24 °C 63.4 % 1,015.70 mbar 0.68 m/s 231.07 Deg 3.13 µg/m3 0 µg/m3
2022-07-17 04:00 18.68 µg/m3 0.2 µg/m3 37.61 µg/m3 17.04 µg/m3 8.95 µg/m3 0.18 mg/m3 25.13 °C 70.37 % 1,015.63 mbar 0.82 m/s 231.07 Deg 0.39 µg/m3 0 µg/m3
2022-07-17 03:00 12.71 µg/m3 0.19 µg/m3 53.47 µg/m3 11.63 µg/m3 8.48 µg/m3 0.16 mg/m3 25.66 °C 75.2 % 1,015.81 mbar 0.83 m/s 242.9 Deg 0.28 µg/m3 0 µg/m3
2022-07-17 02:00 12.12 µg/m3 0.22 µg/m3 52.84 µg/m3 12.38 µg/m3 9.02 µg/m3 0.18 mg/m3 25.57 °C 81.18 % 1,016.05 mbar 0.96 m/s 247 Deg 0.3 µg/m3 0.31 µg/m3
2022-07-17 01:00 14.54 µg/m3 0.2 µg/m3 50.35 µg/m3 13.15 µg/m3 9.48 µg/m3 0.19 mg/m3 25.89 °C 80.49 % 1,016.31 mbar 0.99 m/s 255.8 Deg 0.54 µg/m3 0 µg/m3
2022-07-17 00:00 15.63 µg/m3 0.24 µg/m3 51.75 µg/m3 15.21 µg/m3 10.66 µg/m3 0.22 mg/m3 26.14 °C 77.19 % 1,016.60 mbar 0.9 m/s 252.93 Deg 0.5 µg/m3 0 µg/m3
2022-07-16 23:00 16.68 µg/m3 0.28 µg/m3 49.46 µg/m3 18.34 µg/m3 12.57 µg/m3 0.21 mg/m3 26.33 °C 74.84 % 1,016.66 mbar 0.99 m/s 265.63 Deg 0.44 µg/m3 0.47 µg/m3
2022-07-16 22:00 13.31 µg/m3 0.23 µg/m3 55.94 µg/m3 16.81 µg/m3 9.67 µg/m3 0.2 mg/m3 26.54 °C 72.33 % 1,016.62 mbar 1.53 m/s 271.58 Deg 0.34 µg/m3 0.89 µg/m3
2022-07-16 21:00 17.31 µg/m3 0.27 µg/m3 57.35 µg/m3 44.15 µg/m3 16.65 µg/m3 0.21 mg/m3 26.87 °C 69.68 % 1,016.26 mbar 1.6 m/s 261 Deg 1.46 µg/m3 0.26 µg/m3
2022-07-16 20:00 27.2 µg/m3 0.29 µg/m3 54.62 µg/m3 18.06 µg/m3 8.24 µg/m3 0.25 mg/m3 27.45 °C 66.08 % 1,015.63 mbar 1.67 m/s 274.88 Deg 3.66 µg/m3 0.63 µg/m3
2022-07-16 19:00 22.96 µg/m3 0.28 µg/m3 56.6 µg/m3 18.72 µg/m3 7.28 µg/m3 0.28 mg/m3 28.27 °C 65.79 % 1,015.37 mbar 1.48 m/s 317.33 Deg 7.34 µg/m3 1.07 µg/m3
2022-07-16 18:00 21.48 µg/m3 0.33 µg/m3 68.97 µg/m3 19.64 µg/m3 7.15 µg/m3 0.29 mg/m3 28.77 °C 60.25 % 1,015.16 mbar 1.84 m/s 177.68 Deg 10.79 µg/m3 0.89 µg/m3
2022-07-16 17:00 25.74 µg/m3 0.41 µg/m3 81.53 µg/m3 18.66 µg/m3 8.75 µg/m3 0.29 mg/m3 28.57 °C 57.98 % 1,015.42 mbar 2.39 m/s 38.03 Deg 16.5 µg/m3 1.1 µg/m3
2022-07-16 16:00 22.86 µg/m3 0.41 µg/m3 89.06 µg/m3 10.85 µg/m3 6.1 µg/m3 0.31 mg/m3 28.66 °C 56.8 % 1,015.67 mbar 2.82 m/s 43.05 Deg 15.17 µg/m3 1.47 µg/m3
2022-07-16 15:00 20.3 µg/m3 0.37 µg/m3 95.64 µg/m3 9.97 µg/m3 5.08 µg/m3 0.34 mg/m3 28.19 °C 60.42 % 1,015.80 mbar 3.27 m/s 49.95 Deg 15.02 µg/m3 0.97 µg/m3
2022-07-16 14:00 25.36 µg/m3 0.36 µg/m3 94.49 µg/m3 12.63 µg/m3 6.67 µg/m3 0.28 mg/m3 27.7 °C 61.37 % 1,015.83 mbar 3.54 m/s 58.88 Deg 14.1 µg/m3 0.21 µg/m3
2022-07-16 13:00 24.23 µg/m3 0.38 µg/m3 94.76 µg/m3 13.28 µg/m3 7.26 µg/m3 0.27 mg/m3 27.63 °C 59.51 % 1,015.95 mbar 3.66 m/s 55.33 Deg 17.41 µg/m3 0.21 µg/m3
2022-07-16 12:00 35.22 µg/m3 0.43 µg/m3 94.86 µg/m3 11.19 µg/m3 5.95 µg/m3 0.3 mg/m3 27.26 °C 64.59 % 1,016.05 mbar 3.51 m/s 55.05 Deg 17.8 µg/m3 0 µg/m3
2022-07-16 11:00 28.47 µg/m3 0.38 µg/m3 94.47 µg/m3 17.48 µg/m3 8.33 µg/m3 0.35 mg/m3 27.94 °C 60.08 % 1,015.99 mbar 3.46 m/s 48.73 Deg 19.49 µg/m3 0.42 µg/m3
2022-07-16 10:00 30.82 µg/m3 0.41 µg/m3 81.06 µg/m3 18.06 µg/m3 7.4 µg/m3 0.39 mg/m3 27.75 °C 62.79 % 1,015.68 mbar 2.65 m/s 42.8 Deg 18.41 µg/m3 0 µg/m3
2022-07-16 09:00 29.67 µg/m3 0.4 µg/m3 76.25 µg/m3 31.66 µg/m3 10.56 µg/m3 0.34 mg/m3 28.06 °C 59.08 % 1,015.38 mbar 1.64 m/s 135.47 Deg 15.77 µg/m3 0 µg/m3
2022-07-16 08:00 23.5 µg/m3 0.3 µg/m3 73.29 µg/m3 40.05 µg/m3 11.08 µg/m3 0.24 mg/m3 27.22 °C 61.15 % 1,015.32 mbar 1.11 m/s 248.17 Deg 4.62 µg/m3 0 µg/m3
2022-07-16 07:00 25.18 µg/m3 0.27 µg/m3 63.74 µg/m3 27.44 µg/m3 14.58 µg/m3 0.28 mg/m3 25.78 °C 75.4 % 1,015.02 mbar 1.15 m/s 247.95 Deg 3.52 µg/m3 0.42 µg/m3
2022-07-16 06:00 27.54 µg/m3 0.38 µg/m3 48.04 µg/m3 33.24 µg/m3 22.35 µg/m3 0.36 mg/m3 24.93 °C 82.3 % 1,014.76 mbar 0.81 m/s 235.28 Deg 2.36 µg/m3 0.89 µg/m3
2022-07-16 05:00 19.3 µg/m3 0.21 µg/m3 53.17 µg/m3 21.83 µg/m3 15.65 µg/m3 0.21 mg/m3 24.73 °C 83.05 % 1,014.63 mbar 0.87 m/s 238.23 Deg 0.66 µg/m3 0 µg/m3
2022-07-16 04:00 10.9 µg/m3 0.22 µg/m3 73.39 µg/m3 17.59 µg/m3 13.33 µg/m3 0.18 mg/m3 25.01 °C 82.37 % 1,014.63 mbar 0.96 m/s 239.63 Deg 0.14 µg/m3 0 µg/m3
2022-07-16 03:00 7.42 µg/m3 0.21 µg/m3 83.56 µg/m3 13.56 µg/m3 10.31 µg/m3 0.17 mg/m3 25.31 °C 81.36 % 1,014.72 mbar 0.91 m/s 256.92 Deg -0.03 µg/m3 0 µg/m3
2022-07-16 02:00 9.88 µg/m3 0.22 µg/m3 79.77 µg/m3 13.76 µg/m3 10.21 µg/m3 0.18 mg/m3 25.57 °C 80.93 % 1,014.88 mbar 0.94 m/s 259.55 Deg 0.05 µg/m3 0 µg/m3
2022-07-16 01:00 10.69 µg/m3 0.19 µg/m3 81 µg/m3 12.41 µg/m3 8.78 µg/m3 0.19 mg/m3 25.83 °C 80.44 % 1,014.90 mbar 1.15 m/s 301.35 Deg 0.32 µg/m3 0 µg/m3
2022-07-16 00:00 15.39 µg/m3 0.22 µg/m3 72.63 µg/m3 26.35 µg/m3 19.57 µg/m3 0.24 mg/m3 26.11 °C 79.47 % 1,015.02 mbar 1.2 m/s 286.48 Deg 0.54 µg/m3 0.26 µg/m3
2022-07-15 23:00 11.66 µg/m3 0.17 µg/m3 72.86 µg/m3 13.18 µg/m3 9.05 µg/m3 0.21 mg/m3 26.48 °C 77.86 % 1,014.99 mbar 1.39 m/s 300.52 Deg 0.21 µg/m3 0.31 µg/m3
2022-07-15 22:00 17.12 µg/m3 0.21 µg/m3 70.71 µg/m3 16.53 µg/m3 7.85 µg/m3 0.3 mg/m3 26.96 °C 72.16 % 1,014.91 mbar 1.08 m/s 173.9 Deg 6.42 µg/m3 0.21 µg/m3
2022-07-15 21:00 16.35 µg/m3 0.2 µg/m3 79.17 µg/m3 19.07 µg/m3 9.1 µg/m3 0.27 mg/m3 27.16 °C 70.9 % 1,014.48 mbar 1.3 m/s 318.18 Deg 3.18 µg/m3 0.79 µg/m3
2022-07-15 20:00 28.94 µg/m3 0.23 µg/m3 71.46 µg/m3 22.09 µg/m3 9.91 µg/m3 0.3 mg/m3 27.73 °C 67.07 % 1,014.02 mbar 1.63 m/s 307.67 Deg 4.76 µg/m3 1.03 µg/m3
2022-07-15 19:00 27.1 µg/m3 0.22 µg/m3 77.96 µg/m3 18.64 µg/m3 7.64 µg/m3 0.29 mg/m3 28.61 °C 61.21 % 1,013.87 mbar 1.74 m/s 309.45 Deg 3.08 µg/m3 0.47 µg/m3
2022-07-15 18:00 28.6 µg/m3 0.28 µg/m3 82.14 µg/m3 16.79 µg/m3 7.3 µg/m3 0.33 mg/m3 28.89 °C 61.01 % 1,013.77 mbar 2.06 m/s 101.85 Deg 13.33 µg/m3 0.71 µg/m3
2022-07-15 17:00 35.12 µg/m3 0.41 µg/m3 85.85 µg/m3 16.68 µg/m3 7.38 µg/m3 0.4 mg/m3 29.01 °C 60.67 % 1,013.66 mbar 2.27 m/s 39.2 Deg 19.79 µg/m3 0 µg/m3
2022-07-15 16:00 25.43 µg/m3 0.53 µg/m3 81.61 µg/m3 14.64 µg/m3 7.03 µg/m3 0.49 mg/m3 28.26 °C 62.5 % 1,013.92 mbar 2.9 m/s 58.63 Deg 32.34 µg/m3 0 µg/m3
2022-07-15 15:00 25.1 µg/m3 0.4 µg/m3 79.72 µg/m3 11.14 µg/m3 6.16 µg/m3 0.33 mg/m3 27.61 °C 66.65 % 1,014.11 mbar 3.75 m/s 57.7 Deg 21.98 µg/m3 0 µg/m3
2022-07-15 14:00 25.86 µg/m3 0.39 µg/m3 83 µg/m3 10.51 µg/m3 6.2 µg/m3 0.31 mg/m3 27.41 °C 67.14 % 1,014.39 mbar 3.73 m/s 48.97 Deg 18.88 µg/m3 0 µg/m3
2022-07-15 13:00 23.49 µg/m3 0.4 µg/m3 87.14 µg/m3 12.69 µg/m3 7.58 µg/m3 0.34 mg/m3 27.11 °C 68.93 % 1,014.84 mbar 3.67 m/s 51.9 Deg 20.37 µg/m3 0.21 µg/m3
2022-07-15 12:00 23.88 µg/m3 0.41 µg/m3 86.61 µg/m3 14.21 µg/m3 8.15 µg/m3 0.34 mg/m3 26.55 °C 71.89 % 1,015.20 mbar 3.78 m/s 59.72 Deg 23.21 µg/m3 14.43 µg/m3
2022-07-15 11:00 12.86 µg/m3 0.46 µg/m3 79.05 µg/m3 16.07 µg/m3 8.31 µg/m3 0.33 mg/m3 26.69 °C 70.52 % 1,015.26 mbar 3.09 m/s 158.27 Deg 31.53 µg/m3 17.98 µg/m3
2022-07-15 08:00 0 µg/m3 0 µg/m3 0 µg/m3 24.46 µg/m3 10.05 µg/m3 0 mg/m3 26.68 °C 67.49 % 1,014.67 mbar 1.2 m/s 285.97 Deg 0 µg/m3 0 µg/m3
2022-07-15 07:00 23.67 µg/m3 267.21 µg/m3 102.22 µg/m3 26.26 µg/m3 11.48 µg/m3 0.36 mg/m3 26.13 °C 72.08 % 1,014.46 mbar 0.91 m/s 294.88 Deg 5.46 µg/m3 0.63 µg/m3
2022-07-15 06:00 35.04 µg/m3 0.18 µg/m3 45.64 µg/m3 16.97 µg/m3 11.41 µg/m3 0.25 mg/m3 25.04 °C 76.16 % 1,014.12 mbar 0.63 m/s 244.02 Deg 4.06 µg/m3 0.63 µg/m3
2022-07-15 05:00 15.51 µg/m3 0.19 µg/m3 57.19 µg/m3 10.67 µg/m3 7.49 µg/m3 0.13 mg/m3 24.54 °C 76.25 % 1,014.06 mbar 0.92 m/s 215.47 Deg 0.44 µg/m3 0.58 µg/m3
2022-07-15 04:00 14.27 µg/m3 0.24 µg/m3 58.25 µg/m3 9.76 µg/m3 7.01 µg/m3 0.13 mg/m3 24.7 °C 76.2 % 1,014.09 mbar 0.56 m/s 247.82 Deg 0.96 µg/m3 0.42 µg/m3
2022-07-15 03:00 6.75 µg/m3 0.17 µg/m3 66.58 µg/m3 11.04 µg/m3 8.16 µg/m3 0.11 mg/m3 24.65 °C 77.19 % 1,014.41 mbar 1.38 m/s 221.17 Deg 0.07 µg/m3 0.31 µg/m3
2022-07-15 02:00 6.68 µg/m3 0.18 µg/m3 68.97 µg/m3 10.72 µg/m3 7.86 µg/m3 0.12 mg/m3 25.02 °C 75.02 % 1,014.92 mbar 1.23 m/s 213.43 Deg 0.04 µg/m3 0.52 µg/m3
2022-07-15 01:00 12.44 µg/m3 0.14 µg/m3 63.34 µg/m3 13.99 µg/m3 7.7 µg/m3 0.15 mg/m3 25.5 °C 71.75 % 1,015.46 mbar 1.1 m/s 222.08 Deg 0.44 µg/m3 0.63 µg/m3
2022-07-15 00:00 14.9 µg/m3 0.2 µg/m3 67.53 µg/m3 16.66 µg/m3 6.95 µg/m3 0.18 mg/m3 25.8 °C 68.06 % 1,016.07 mbar 1.02 m/s 215.98 Deg 0.23 µg/m3 0.52 µg/m3
2022-07-14 23:00 15.36 µg/m3 0.15 µg/m3 67.35 µg/m3 17.73 µg/m3 6.91 µg/m3 0.17 mg/m3 26.13 °C 63.8 % 1,016.40 mbar 1.05 m/s 219.42 Deg 0.15 µg/m3 0.58 µg/m3
2022-07-14 22:00 21.4 µg/m3 0.23 µg/m3 61.06 µg/m3 19.05 µg/m3 8.51 µg/m3 0.19 mg/m3 26.4 °C 61.15 % 1,016.40 mbar 1.21 m/s 241.72 Deg 1.09 µg/m3 0.84 µg/m3
2022-07-14 21:00 24.77 µg/m3 0.23 µg/m3 65.65 µg/m3 22.49 µg/m3 9.37 µg/m3 0.2 mg/m3 26.8 °C 55.27 % 1,016.28 mbar 1.43 m/s 239.48 Deg 2.59 µg/m3 0.84 µg/m3
2022-07-14 20:00 26.84 µg/m3 0.25 µg/m3 69.22 µg/m3 18.84 µg/m3 9.58 µg/m3 0.24 mg/m3 27.11 °C 55.19 % 1,016.02 mbar 2.1 m/s 254.32 Deg 3.25 µg/m3 1.21 µg/m3
2022-07-14 19:00 30.97 µg/m3 0.24 µg/m3 71.14 µg/m3 20.37 µg/m3 10.23 µg/m3 0.25 mg/m3 28.03 °C 49.93 % 1,016.10 mbar 2.25 m/s 255.85 Deg 4.49 µg/m3 0.84 µg/m3
2022-07-14 18:00 21.62 µg/m3 0.23 µg/m3 78.3 µg/m3 16.88 µg/m3 6.86 µg/m3 0.19 mg/m3 28.47 °C 52.52 % 1,016.28 mbar 2.18 m/s 233.98 Deg 3.72 µg/m3 0.52 µg/m3
2022-07-14 17:00 18.87 µg/m3 0.23 µg/m3 84.54 µg/m3 20.63 µg/m3 7.75 µg/m3 0.19 mg/m3 28.55 °C 54.35 % 1,016.61 mbar 2.53 m/s 210.25 Deg 3.1 µg/m3 0.58 µg/m3
2022-07-14 16:00 21.14 µg/m3 0.25 µg/m3 79.83 µg/m3 21.27 µg/m3 7.32 µg/m3 0.2 mg/m3 28.41 °C 57 % 1,017.31 mbar 2.15 m/s 202.45 Deg 5.75 µg/m3 0.52 µg/m3
2022-07-14 15:00 15.85 µg/m3 0.25 µg/m3 86.91 µg/m3 20.85 µg/m3 7.38 µg/m3 0.18 mg/m3 28.17 °C 58.75 % 1,017.90 mbar 1.59 m/s 203.47 Deg 3.67 µg/m3 0.68 µg/m3
2022-07-14 14:00 23.3 µg/m3 0.26 µg/m3 83.07 µg/m3 17.18 µg/m3 6.58 µg/m3 0.24 mg/m3 27.45 °C 60.84 % 1,018.45 mbar 1.61 m/s 163.22 Deg 13.87 µg/m3 0.94 µg/m3
2022-07-14 13:00 26.68 µg/m3 0.43 µg/m3 91.45 µg/m3 10.43 µg/m3 5.59 µg/m3 0.28 mg/m3 26.5 °C 63.91 % 1,018.75 mbar 4.03 m/s 51.87 Deg 24.06 µg/m3 0.89 µg/m3
2022-07-14 12:00 28.34 µg/m3 0.43 µg/m3 87.23 µg/m3 12.85 µg/m3 5.98 µg/m3 0.25 mg/m3 26.53 °C 63.57 % 1,019.02 mbar 4.01 m/s 52.12 Deg 21 µg/m3 1.05 µg/m3
2022-07-14 11:00 29.06 µg/m3 0.47 µg/m3 81.99 µg/m3 12.55 µg/m3 6.39 µg/m3 0.25 mg/m3 26.3 °C 66.06 % 1,019.30 mbar 3.36 m/s 58.45 Deg 23.3 µg/m3 0.94 µg/m3
2022-07-14 10:00 28.1 µg/m3 0.43 µg/m3 79.54 µg/m3 11.98 µg/m3 6.52 µg/m3 0.3 mg/m3 26.12 °C 69.95 % 1,019.23 mbar 3.51 m/s 61.75 Deg 21.85 µg/m3 1.68 µg/m3
2022-07-14 09:00 38.86 µg/m3 0.46 µg/m3 69 µg/m3 14.59 µg/m3 7.18 µg/m3 0.31 mg/m3 26.12 °C 70.71 % 1,019.12 mbar 2.91 m/s 61.5 Deg 25.7 µg/m3 1.63 µg/m3
2022-07-14 08:00 27.63 µg/m3 0.53 µg/m3 70.24 µg/m3 18.19 µg/m3 8.3 µg/m3 0.29 mg/m3 26.04 °C 71.6 % 1,019.14 mbar 2.14 m/s 57.05 Deg 26.55 µg/m3 2.1 µg/m3
2022-07-14 07:00 36.53 µg/m3 0.44 µg/m3 57.43 µg/m3 18.54 µg/m3 9.32 µg/m3 0.37 mg/m3 25.87 °C 74.64 % 1,019.00 mbar 1.25 m/s 46.6 Deg 23.4 µg/m3 2.94 µg/m3
2022-07-14 06:00 55.13 µg/m3 0.51 µg/m3 25.69 µg/m3 19.52 µg/m3 13.04 µg/m3 0.46 mg/m3 25.4 °C 77.9 % 1,018.74 mbar 0.45 m/s 45.93 Deg 22.63 µg/m3 2.26 µg/m3
2022-07-14 05:00 41.02 µg/m3 0.28 µg/m3 34.27 µg/m3 20.76 µg/m3 14.13 µg/m3 0.21 mg/m3 25.16 °C 78.97 % 1,018.63 mbar 0.26 m/s 61 Deg 6.32 µg/m3 1.78 µg/m3
2022-07-14 04:00 28.46 µg/m3 0.33 µg/m3 58.15 µg/m3 12.55 µg/m3 8.53 µg/m3 0.19 mg/m3 25.19 °C 78.66 % 1,018.63 mbar 0.57 m/s 58.78 Deg 7.34 µg/m3 1.21 µg/m3
2022-07-14 03:00 14.08 µg/m3 0.28 µg/m3 69.34 µg/m3 11.11 µg/m3 7.57 µg/m3 0.18 mg/m3 25.31 °C 78.55 % 1,018.77 mbar 0.78 m/s 49.03 Deg 2.62 µg/m3 1.52 µg/m3
2022-07-14 02:00 9.99 µg/m3 0.27 µg/m3 73.63 µg/m3 11.19 µg/m3 7.67 µg/m3 0.16 mg/m3 25.5 °C 78.34 % 1,019.05 mbar 0.77 m/s 60.97 Deg 3.21 µg/m3 0.89 µg/m3
2022-07-14 01:00 15.11 µg/m3 0.28 µg/m3 75.51 µg/m3 10.12 µg/m3 7.03 µg/m3 0.22 mg/m3 25.71 °C 77.52 % 1,019.37 mbar 1.11 m/s 55.65 Deg 5.14 µg/m3 1.1 µg/m3
2022-07-14 00:00 17.51 µg/m3 0.32 µg/m3 76.1 µg/m3 10.67 µg/m3 7.47 µg/m3 0.22 mg/m3 25.91 °C 76.61 % 1,019.67 mbar 1.49 m/s 60.95 Deg 5.99 µg/m3 1.89 µg/m3
2022-07-13 23:00 31.39 µg/m3 0.41 µg/m3 65.94 µg/m3 13.4 µg/m3 8.06 µg/m3 0.37 mg/m3 26.27 °C 73.3 % 1,019.73 mbar 1.11 m/s 59.98 Deg 14.76 µg/m3 1.57 µg/m3
2022-07-13 22:00 31.3 µg/m3 0.47 µg/m3 75.06 µg/m3 11.97 µg/m3 8.13 µg/m3 0.31 mg/m3 26.35 °C 73.79 % 1,019.64 mbar 1.99 m/s 66.08 Deg 19.41 µg/m3 1.68 µg/m3
2022-07-13 21:00 29.76 µg/m3 0.5 µg/m3 89.27 µg/m3 13.68 µg/m3 8.61 µg/m3 0.35 mg/m3 26.59 °C 70.62 % 1,019.23 mbar 2.55 m/s 56.6 Deg 17.97 µg/m3 2.83 µg/m3
2022-07-13 20:00 30.5 µg/m3 0.37 µg/m3 106.94 µg/m3 13.63 µg/m3 8.27 µg/m3 0.38 mg/m3 26.87 °C 65.69 % 1,018.77 mbar 3.16 m/s 54.1 Deg 16.59 µg/m3 1.63 µg/m3
2022-07-13 19:00 30.12 µg/m3 0.44 µg/m3 83.51 µg/m3 13.38 µg/m3 6.96 µg/m3 0.43 mg/m3 27.56 °C 61.32 % 1,018.51 mbar 2.68 m/s 49.33 Deg 19.85 µg/m3 1.36 µg/m3
2022-07-13 18:00 36.49 µg/m3 0.43 µg/m3 84.46 µg/m3 13.44 µg/m3 7.42 µg/m3 0.36 mg/m3 27.89 °C 60.7 % 1,018.26 mbar 2.76 m/s 47.65 Deg 21.3 µg/m3 2.05 µg/m3
2022-07-13 17:00 35.57 µg/m3 0.52 µg/m3 93.37 µg/m3 15.39 µg/m3 8.88 µg/m3 0.33 mg/m3 28.53 °C 54.08 % 1,018.20 mbar 3.08 m/s 45.6 Deg 21.6 µg/m3 1.42 µg/m3
2022-07-13 16:00 42.26 µg/m3 0.55 µg/m3 94.48 µg/m3 15.47 µg/m3 8.76 µg/m3 0.32 mg/m3 28.69 °C 47.74 % 1,018.54 mbar 2.81 m/s 63.13 Deg 27.52 µg/m3 1.68 µg/m3
2022-07-13 15:00 34.03 µg/m3 0.57 µg/m3 92.07 µg/m3 17.12 µg/m3 9.79 µg/m3 0.33 mg/m3 28.26 °C 51.16 % 1,018.99 mbar 2.84 m/s 67.82 Deg 29.31 µg/m3 1.15 µg/m3
2022-07-13 14:00 40.03 µg/m3 0.5 µg/m3 88.89 µg/m3 18.83 µg/m3 10.26 µg/m3 0.32 mg/m3 27.8 °C 54.79 % 1,019.38 mbar 2.79 m/s 66.32 Deg 25.81 µg/m3 1.26 µg/m3
2022-07-13 13:00 31.6 µg/m3 0.4 µg/m3 86.85 µg/m3 16.75 µg/m3 9.13 µg/m3 0.29 mg/m3 27.52 °C 60.01 % 1,019.77 mbar 2.4 m/s 115.15 Deg 19.82 µg/m3 0.94 µg/m3
2022-07-13 12:00 27.23 µg/m3 0.35 µg/m3 72.65 µg/m3 24.98 µg/m3 8.29 µg/m3 0.24 mg/m3 27.93 °C 61.77 % 1,019.97 mbar 2.44 m/s 262.67 Deg 16.4 µg/m3 0.79 µg/m3
2022-07-13 11:00 21.03 µg/m3 0.26 µg/m3 76.07 µg/m3 24.1 µg/m3 8.66 µg/m3 0.21 mg/m3 28.76 °C 51.24 % 1,019.66 mbar 2.62 m/s 313.53 Deg 8.92 µg/m3 0.94 µg/m3
2022-07-13 10:00 26.54 µg/m3 0.37 µg/m3 62.7 µg/m3 22.2 µg/m3 8.53 µg/m3 0.24 mg/m3 28.82 °C 52.38 % 1,019.43 mbar 1.89 m/s 322.57 Deg 12.16 µg/m3 0.94 µg/m3
2022-07-13 09:00 39.98 µg/m3 0.37 µg/m3 51.14 µg/m3 28.61 µg/m3 8.51 µg/m3 0.26 mg/m3 29.18 °C 46.03 % 1,019.31 mbar 1.63 m/s 282.53 Deg 13.41 µg/m3 1.31 µg/m3
2022-07-13 08:00 58.75 µg/m3 0.51 µg/m3 37.37 µg/m3 27.89 µg/m3 9.12 µg/m3 0.32 mg/m3 27.94 °C 56.01 % 1,019.17 mbar 1.15 m/s 309.33 Deg 25.8 µg/m3 1.42 µg/m3
2022-07-13 07:00 35.61 µg/m3 0.36 µg/m3 29.81 µg/m3 21.82 µg/m3 10.65 µg/m3 0.31 mg/m3 26.24 °C 71.17 % 1,018.84 mbar 1.11 m/s 265.3 Deg 11.83 µg/m3 1.78 µg/m3
2022-07-13 06:00 39.29 µg/m3 0.6 µg/m3 15.74 µg/m3 22.61 µg/m3 15.4 µg/m3 0.35 mg/m3 25.07 °C 78.9 % 1,018.42 mbar 0.82 m/s 244.78 Deg 11.28 µg/m3 1.1 µg/m3
2022-07-13 05:00 27.39 µg/m3 0.49 µg/m3 25.48 µg/m3 15.01 µg/m3 10.5 µg/m3 0.19 mg/m3 24.9 °C 73.9 % 1,018.36 mbar 0.83 m/s 246.7 Deg 2.91 µg/m3 0.63 µg/m3
2022-07-13 04:00 13.1 µg/m3 0.23 µg/m3 37.26 µg/m3 15.2 µg/m3 10.59 µg/m3 0.15 mg/m3 24.74 °C 77.75 % 1,018.40 mbar 0.7 m/s 222.57 Deg 0.19 µg/m3 0.42 µg/m3
2022-07-13 03:00 7.28 µg/m3 0.16 µg/m3 42.23 µg/m3 10.76 µg/m3 7.56 µg/m3 0.14 mg/m3 24.82 °C 81.23 % 1,018.55 mbar 0.83 m/s 220.07 Deg 0.03 µg/m3 0.37 µg/m3
2022-07-13 02:00 6.94 µg/m3 0.14 µg/m3 50.87 µg/m3 10.1 µg/m3 7.1 µg/m3 0.14 mg/m3 25.17 °C 80.21 % 1,018.96 mbar 0.82 m/s 230.75 Deg -0 µg/m3 0.37 µg/m3
2022-07-13 01:00 8.33 µg/m3 0.21 µg/m3 52.77 µg/m3 8.87 µg/m3 6.22 µg/m3 0.17 mg/m3 25.42 °C 79.38 % 1,019.17 mbar 0.98 m/s 251.58 Deg 0.31 µg/m3 0.47 µg/m3
2022-07-13 00:00 11.5 µg/m3 0.16 µg/m3 51.16 µg/m3 9.11 µg/m3 6.44 µg/m3 0.19 mg/m3 25.6 °C 78.56 % 1,019.52 mbar 1.18 m/s 264.35 Deg 0.47 µg/m3 0.63 µg/m3
2022-07-12 23:00 12.79 µg/m3 0.22 µg/m3 50.63 µg/m3 10.63 µg/m3 7.44 µg/m3 0.2 mg/m3 25.82 °C 77.57 % 1,019.67 mbar 1.31 m/s 273.35 Deg 0.87 µg/m3 0.84 µg/m3
2022-07-12 22:00 15.39 µg/m3 0.26 µg/m3 54.02 µg/m3 16.22 µg/m3 11.34 µg/m3 0.21 mg/m3 26.09 °C 74.15 % 1,019.86 mbar 1.48 m/s 282.28 Deg 1.25 µg/m3 0.73 µg/m3
2022-07-12 21:00 16.36 µg/m3 0.24 µg/m3 55.08 µg/m3 18.34 µg/m3 10.43 µg/m3 0.21 mg/m3 26.57 °C 71.5 % 1,019.60 mbar 1.53 m/s 273.48 Deg 1.39 µg/m3 0.84 µg/m3
2022-07-12 20:00 20.81 µg/m3 0.26 µg/m3 57.14 µg/m3 18.6 µg/m3 10.43 µg/m3 0.24 mg/m3 27.08 °C 66.64 % 1,019.14 mbar 1.82 m/s 264.13 Deg 2.96 µg/m3 0.84 µg/m3
2022-07-12 19:00 24.26 µg/m3 0.29 µg/m3 60.91 µg/m3 18.92 µg/m3 8.81 µg/m3 0.26 mg/m3 28.18 °C 58.35 % 1,018.83 mbar 2.36 m/s 249.68 Deg 5.04 µg/m3 0.68 µg/m3
2022-07-12 18:00 17.85 µg/m3 0.24 µg/m3 68.6 µg/m3 20.25 µg/m3 9.17 µg/m3 0.21 mg/m3 29.03 °C 55.03 % 1,018.78 mbar 2.5 m/s 240.88 Deg 2.94 µg/m3 0.47 µg/m3
2022-07-12 17:00 18.26 µg/m3 0.24 µg/m3 81.75 µg/m3 20.24 µg/m3 8.86 µg/m3 0.2 mg/m3 29.44 °C 51.54 % 1,019.19 mbar 2.33 m/s 246.25 Deg 4.1 µg/m3 1.21 µg/m3
2022-07-12 16:00 26.8 µg/m3 0.51 µg/m3 83.51 µg/m3 17.66 µg/m3 9.72 µg/m3 0.36 mg/m3 28.67 °C 53.87 % 1,019.60 mbar 2.72 m/s 50.98 Deg 26.18 µg/m3 1.21 µg/m3
2022-07-12 15:00 27.39 µg/m3 0.48 µg/m3 83.11 µg/m3 15.59 µg/m3 8.85 µg/m3 0.32 mg/m3 28.43 °C 52.25 % 1,019.89 mbar 3.42 m/s 56.63 Deg 24.96 µg/m3 1.21 µg/m3
2022-07-12 14:00 26.77 µg/m3 0.52 µg/m3 78.39 µg/m3 15.06 µg/m3 8.3 µg/m3 0.3 mg/m3 28.17 °C 52.99 % 1,020.18 mbar 3.66 m/s 55.93 Deg 24.18 µg/m3 1.15 µg/m3
2022-07-12 13:00 32.14 µg/m3 0.55 µg/m3 76.17 µg/m3 15.74 µg/m3 8.64 µg/m3 0.33 mg/m3 27.77 °C 53.91 % 1,020.39 mbar 3.55 m/s 62.73 Deg 26.35 µg/m3 1 µg/m3
2022-07-12 12:00 28.49 µg/m3 0.49 µg/m3 77.49 µg/m3 12.35 µg/m3 7.04 µg/m3 0.28 mg/m3 27.2 °C 58.71 % 1,020.64 mbar 3.7 m/s 59.97 Deg 25.87 µg/m3 1.26 µg/m3
2022-07-12 11:00 33.42 µg/m3 0.53 µg/m3 76.61 µg/m3 13.63 µg/m3 7.56 µg/m3 0.32 mg/m3 27.08 °C 65.31 % 1,020.54 mbar 3.38 m/s 57.58 Deg 29.23 µg/m3 1.31 µg/m3
2022-07-12 10:00 34.44 µg/m3 0.48 µg/m3 73.17 µg/m3 15.14 µg/m3 8.46 µg/m3 0.29 mg/m3 26.98 °C 68.09 % 1,020.27 mbar 2.87 m/s 53.88 Deg 25.77 µg/m3 1.26 µg/m3
2022-07-12 09:00 29.4 µg/m3 0.53 µg/m3 70.79 µg/m3 15.32 µg/m3 8.02 µg/m3 0.33 mg/m3 26.59 °C 67.27 % 1,019.89 mbar 2.29 m/s 52.73 Deg 29.71 µg/m3 1.94 µg/m3
2022-07-12 08:00 48.83 µg/m3 0.63 µg/m3 60.94 µg/m3 18.62 µg/m3 9.37 µg/m3 0.39 mg/m3 26.38 °C 68.16 % 1,019.50 mbar 1.79 m/s 57.72 Deg 34.1 µg/m3 2.57 µg/m3
2022-07-12 07:00 52.47 µg/m3 1.01 µg/m3 33.98 µg/m3 29.62 µg/m3 12.56 µg/m3 0.53 mg/m3 26.32 °C 68.6 % 1,019.07 mbar 0.89 m/s 58.48 Deg 51.66 µg/m3 6.61 µg/m3
2022-07-12 06:00 51.53 µg/m3 1.3 µg/m3 2.91 µg/m3 38.48 µg/m3 16.53 µg/m3 0.65 mg/m3 25.41 °C 70.01 % 1,018.66 mbar 0.42 m/s 173.24 Deg 60.66 µg/m3 3.04 µg/m3
2022-07-12 05:00 44.71 µg/m3 0.87 µg/m3 2.87 µg/m3 19.89 µg/m3 13.34 µg/m3 0.29 mg/m3 25 °C 71.46 % 1,018.30 mbar 0.24 m/s 236.94 Deg 24.9 µg/m3 3.41 µg/m3
2022-07-12 04:00 32.44 µg/m3 0.52 µg/m3 28.93 µg/m3 12.99 µg/m3 8.97 µg/m3 0.2 mg/m3 25.17 °C 72.69 % 1,018.17 mbar 0.49 m/s 58.34 Deg 5.42 µg/m3 1.78 µg/m3
2022-07-12 03:00 19.14 µg/m3 0.32 µg/m3 46.85 µg/m3 11.53 µg/m3 7.86 µg/m3 0.18 mg/m3 25.47 °C 70.41 % 1,018.14 mbar 0.68 m/s 62.07 Deg 5.46 µg/m3 2.15 µg/m3
2022-07-12 02:00 23.54 µg/m3 0.33 µg/m3 49.28 µg/m3 12.71 µg/m3 8.26 µg/m3 0.21 mg/m3 25.68 °C 68.28 % 1,018.32 mbar 0.71 m/s 56.73 Deg 5.98 µg/m3 1.63 µg/m3
2022-07-12 01:00 22.11 µg/m3 0.32 µg/m3 52.04 µg/m3 13.34 µg/m3 7.88 µg/m3 0.17 mg/m3 25.85 °C 67.82 % 1,018.44 mbar 0.8 m/s 51.47 Deg 6.17 µg/m3 1.21 µg/m3
2022-07-12 00:00 23.02 µg/m3 0.31 µg/m3 51.96 µg/m3 13.86 µg/m3 7.79 µg/m3 0.25 mg/m3 25.96 °C 69.5 % 1,018.39 mbar 1.1 m/s 67.03 Deg 8.24 µg/m3 1.21 µg/m3
2022-07-11 23:00 26.07 µg/m3 0.37 µg/m3 49.12 µg/m3 16 µg/m3 8.43 µg/m3 0.3 mg/m3 26.17 °C 69.61 % 1,018.09 mbar 1.16 m/s 115.72 Deg 16.65 µg/m3 1.47 µg/m3
2022-07-11 22:00 44.43 µg/m3 0.53 µg/m3 34.46 µg/m3 18.68 µg/m3 9.48 µg/m3 0.34 mg/m3 26.24 °C 68.89 % 1,017.67 mbar 1.37 m/s 70.68 Deg 25.27 µg/m3 1.21 µg/m3
2022-07-11 21:00 30.73 µg/m3 0.5 µg/m3 50.15 µg/m3 15.83 µg/m3 8.5 µg/m3 0.29 mg/m3 26.34 °C 69.41 % 1,017.10 mbar 2.01 m/s 141.45 Deg 20.19 µg/m3 1.26 µg/m3
2022-07-11 20:00 45.29 µg/m3 0.51 µg/m3 47.24 µg/m3 18.86 µg/m3 8.99 µg/m3 0.32 mg/m3 26.99 °C 61.88 % 1,016.48 mbar 1.73 m/s 122.97 Deg 21.94 µg/m3 1.21 µg/m3
2022-07-11 19:00 38.47 µg/m3 0.51 µg/m3 56.86 µg/m3 21.1 µg/m3 9.64 µg/m3 0.3 mg/m3 27.91 °C 55.07 % 1,016.16 mbar 1.49 m/s 205.3 Deg 23.75 µg/m3 0.84 µg/m3
2022-07-11 18:00 31.23 µg/m3 0.44 µg/m3 65.56 µg/m3 19.34 µg/m3 8.17 µg/m3 0.25 mg/m3 28.61 °C 49.06 % 1,015.72 mbar 1.5 m/s 144.68 Deg 18.71 µg/m3 1.1 µg/m3
2022-07-11 17:00 31.11 µg/m3 0.42 µg/m3 69.88 µg/m3 21.33 µg/m3 8.97 µg/m3 0.29 mg/m3 28.6 °C 50.66 % 1,015.64 mbar 1.81 m/s 149.02 Deg 22.64 µg/m3 1.15 µg/m3
2022-07-11 16:00 26.93 µg/m3 0.43 µg/m3 69.45 µg/m3 18.41 µg/m3 8.15 µg/m3 0.32 mg/m3 27.75 °C 60.42 % 1,015.63 mbar 3.02 m/s 76.5 Deg 21.26 µg/m3 1.15 µg/m3
2022-07-11 15:00 25.23 µg/m3 0.34 µg/m3 76.48 µg/m3 16.28 µg/m3 7.02 µg/m3 0.24 mg/m3 27.71 °C 59.77 % 1,015.69 mbar 2.29 m/s 19.85 Deg 13.81 µg/m3 0.89 µg/m3
2022-07-11 14:00 24.34 µg/m3 0.42 µg/m3 81.97 µg/m3 18.25 µg/m3 7.55 µg/m3 0.24 mg/m3 27.24 °C 64.34 % 1,015.70 mbar 2.25 m/s 103.7 Deg 18.97 µg/m3 0.89 µg/m3
2022-07-11 13:00 31.89 µg/m3 0.45 µg/m3 79.7 µg/m3 18.38 µg/m3 7.65 µg/m3 0.27 mg/m3 27.17 °C 65.14 % 1,015.74 mbar 2.33 m/s 34.73 Deg 21.66 µg/m3 0.89 µg/m3
2022-07-11 12:00 25.72 µg/m3 0.45 µg/m3 77.73 µg/m3 21.25 µg/m3 8.69 µg/m3 0.32 mg/m3 26.89 °C 65.59 % 1,015.76 mbar 1.95 m/s 111.85 Deg 24.88 µg/m3 0.79 µg/m3
2022-07-11 11:00 31.43 µg/m3 0.4 µg/m3 74.84 µg/m3 23.11 µg/m3 8.94 µg/m3 0.27 mg/m3 26.76 °C 66.1 % 1,015.71 mbar 1.47 m/s 194.33 Deg 20.85 µg/m3 0.94 µg/m3
2022-07-11 10:00 29.64 µg/m3 0.41 µg/m3 73.75 µg/m3 24.05 µg/m3 8.65 µg/m3 0.27 mg/m3 27.41 °C 57.78 % 1,015.48 mbar 1.57 m/s 245.63 Deg 18.32 µg/m3 0.42 µg/m3
2022-07-11 09:00 22.34 µg/m3 0.22 µg/m3 75.92 µg/m3 22.5 µg/m3 7.53 µg/m3 0.16 mg/m3 26.7 °C 63.58 % 1,015.30 mbar 1.78 m/s 217.22 Deg 5.43 µg/m3 1.15 µg/m3
2022-07-11 08:00 28.81 µg/m3 0.26 µg/m3 67.48 µg/m3 43.02 µg/m3 11.68 µg/m3 0.22 mg/m3 26.31 °C 67.49 % 1,014.88 mbar 1.45 m/s 198.13 Deg 9.36 µg/m3 0.84 µg/m3
2022-07-11 07:00 38.26 µg/m3 0.35 µg/m3 47.66 µg/m3 34.71 µg/m3 11.63 µg/m3 0.27 mg/m3 25.61 °C 71.64 % 1,014.29 mbar 1.1 m/s 213.32 Deg 8.83 µg/m3 1.57 µg/m3
2022-07-11 06:00 36.98 µg/m3 0.51 µg/m3 39.58 µg/m3 18.09 µg/m3 12.07 µg/m3 0.26 mg/m3 24.65 °C 75.3 % 1,013.85 mbar 0.7 m/s 174.75 Deg 5.71 µg/m3 1.05 µg/m3
2022-07-11 05:00 16.93 µg/m3 0.2 µg/m3 57.65 µg/m3 14.18 µg/m3 9.5 µg/m3 0.12 mg/m3 24.39 °C 76.63 % 1,013.50 mbar 1.16 m/s 213.93 Deg 0.49 µg/m3 0.47 µg/m3
2022-07-11 04:00 7.06 µg/m3 0.18 µg/m3 78.32 µg/m3 11.97 µg/m3 8.05 µg/m3 0.1 mg/m3 24.57 °C 77.37 % 1,013.50 mbar 1.65 m/s 224.67 Deg 0.24 µg/m3 0.21 µg/m3
2022-07-11 03:00 4.19 µg/m3 0.16 µg/m3 81.18 µg/m3 9.88 µg/m3 6.69 µg/m3 0.09 mg/m3 24.62 °C 76.63 % 1,013.61 mbar 1.88 m/s 223.73 Deg 0.05 µg/m3 0.21 µg/m3
2022-07-11 02:00 10.55 µg/m3 0.22 µg/m3 71.46 µg/m3 11.27 µg/m3 6.29 µg/m3 0.1 mg/m3 24.64 °C 72.68 % 1,013.92 mbar 1.12 m/s 232.68 Deg 0.95 µg/m3 0.26 µg/m3
2022-07-11 01:00 12.08 µg/m3 0.26 µg/m3 70.09 µg/m3 15.69 µg/m3 6.78 µg/m3 0.12 mg/m3 24.74 °C 67.24 % 1,014.25 mbar 1.24 m/s 231.3 Deg 0.41 µg/m3 0.42 µg/m3
2022-07-11 00:00 13.4 µg/m3 0.19 µg/m3 80 µg/m3 19.93 µg/m3 10.53 µg/m3 0.15 mg/m3 25.22 °C 65.69 % 1,014.57 mbar 1.51 m/s 221.43 Deg 0.15 µg/m3 0.68 µg/m3
2022-07-10 23:00 18.24 µg/m3 0.2 µg/m3 83.06 µg/m3 22.27 µg/m3 10.74 µg/m3 0.2 mg/m3 25.7 °C 62.89 % 1,014.70 mbar 1.36 m/s 221.42 Deg 0.42 µg/m3 1.15 µg/m3
2022-07-10 22:00 20.19 µg/m3 0.21 µg/m3 86.43 µg/m3 27.88 µg/m3 12.31 µg/m3 0.24 mg/m3 26.09 °C 60.97 % 1,014.60 mbar 1 m/s 248.62 Deg 0.66 µg/m3 1.31 µg/m3

It is to be noted that the data is provisional and subject to quality assurance procedures. For validated data kindly refer your request to contact.air@era.org.mt